[[{"header":{"parameterUnit":"m.s-1","parameterCategory":1,"la1":31.0,"la2":29.5877,"lo1":-88.7671,"lo2":-86.6584,"dy":0.0162,"dx":0.0185,"nx":115,"ny":88,"refTime":"2023-04-17T06:00:00:Z","depth":0,"parameterNumber":2,"parameterNumberName":"U-component_of_WINDS"},"data":[0.0,0.0,0.0,0.0,0.0,0.0,0.0,0.0,0.0,0.0,0.0,0.0,0.0,0.0,0.0,0.0,0.0,0.0,0.0,0.0,0.0,0.0,0.0,0.0,0.0,0.0,0.0,0.0,0.0,0.0,0.0,0.0,0.0,0.0,0.0,0.0,0.0,0.0,0.0,0.0,0.0,0.0,0.0,0.0,0.0,0.0,0.0,0.0,0.0,0.0,0.0,0.0,0.0,0.0,0.0,0.0,0.0,0.0,0.0,0.0,0.0,0.0,0.0,0.0,0.0,0.0,0.0,0.0,0.0,0.0,0.0,0.0,0.0,0.0,0.0,0.0,0.0,0.0,0.0,0.0,0.0,0.0,0.0,0.0,0.0,0.0,0.0,0.0,0.0,0.0,0.0,0.0,0.0,0.0,0.0,0.0,0.0,0.0,0.0,0.0,0.0,0.0,0.0,0.0,0.0,0.0,0.0,0.0,0.0,0.0,0.0,0.0,0.0,0.0,0.0,0.0,0.0,0.0,0.0,0.0,0.0,0.0,0.0,0.0,0.0,0.0,0.0,0.0,0.0,0.0,0.0,0.0,0.0,0.0,0.0,0.0,0.0,0.0,0.0,0.0,0.0,0.0,0.0,0.0,0.0,0.0,0.0,0.0,0.0,0.0,0.0,0.0,0.0,0.0,0.0,0.0,0.0,0.0,0.0,0.0,0.0,0.0,0.0,0.0,0.0,0.0,0.0,0.0,0.0,0.0,0.0,0.0,0.0,0.0,0.0,0.0,0.0,0.0,0.0,0.0,0.0,0.0,0.0,0.0,0.0,0.0,0.0,0.0,0.0,0.0,0.0,0.0,0.0,0.0,0.0,0.0,0.0,0.0,0.0,0.0,0.0,0.0,0.0,0.0,0.0,0.0,0.0,0.0,0.0,0.0,0.0,0.0,0.0,0.0,0.0,0.0,0.0,0.0,0.0,0.0,0.0,0.0,0.0,0.0,0.0,0.0,0.0,0.0,0.0,0.0,0.0,0.0,0.0,0.0,0.0,0.0,0.0,0.0,0.0,0.0,0.0,0.0,0.0,0.0,0.0,0.0,0.0,0.0,0.0,0.0,0.0,0.0,0.0,0.0,0.0,0.0,0.0,0.0,0.0,0.0,0.0,0.0,0.0,0.0,0.0,0.0,0.0,0.0,0.0,0.0,0.0,0.0,0.0,0.0,0.0,0.0,0.0,0.0,0.0,0.0,0.0,0.0,0.0,0.0,0.0,0.0,0.0,0.0,0.0,0.0,0.0,0.0,0.0,0.0,0.0,0.0,0.0,0.0,0.0,0.0,0.0,0.0,0.0,0.0,0.0,0.0,0.0,0.0,0.0,0.0,0.0,0.0,0.0,0.0,0.0,0.0,0.0,0.0,0.0,0.0,0.0,0.0,0.0,0.0,0.0,0.0,0.0,0.0,0.0,0.0,0.0,0.0,0.0,0.0,0.0,0.0,0.0,0.0,0.0,0.0,0.0,0.0,0.0,0.0,0.0,0.0,0.0,0.0,0.0,0.0,0.0,0.0,0.0,0.0,0.0,0.0,0.0,0.0,0.0,0.0,0.0,0.0,0.0,0.0,0.0,0.0,0.0,0.0,0.0,0.0,0.0,0.0,0.0,0.0,0.0,0.0,0.0,0.0,0.0,0.0,0.0,0.0,0.0,0.0,0.0,0.0,0.0,0.0,0.0,0.0,0.0,0.0,0.0,0.0,0.0,0.0,0.0,0.0,0.0,0.0,0.0,0.0,0.0,0.0,0.0,0.0,0.0,0.0,0.0,0.0,0.0,0.0,0.0,0.0,0.0,0.0,0.0,0.0,0.0,0.0,0.0,0.0,0.0,0.0,0.0,0.0,0.0,0.0,0.0,0.0,0.0,0.0,0.0,0.0,0.0,0.0,0.0,0.0,0.0,0.0,0.0,0.0,0.0,0.0,0.0,0.0,0.0,0.0,0.0,0.0,0.0,0.0,0.0,0.0,0.0,0.0,0.0,0.0,0.0,0.0,0.0,0.0,0.0,0.0,0.0,0.0,0.0,0.0,0.0,0.0,0.0,0.0,0.0,0.0,0.0,0.0,0.0,0.0,0.0,0.0,0.0,0.0,0.0,0.0,0.0,0.0,0.0,0.0,0.0,0.0,0.0,0.0,0.0,0.0,0.0,0.0,0.0,0.0,0.0,0.0,0.0,0.0,0.0,0.0,0.0,0.0,0.0,0.0,0.0,0.0,0.0,0.0,0.0,0.0,0.0,0.0,0.0,0.0,0.0,0.0,0.0,0.0,0.0,0.0,0.0,0.0,0.0,0.0,0.0,0.0,0.0,0.0,0.0,0.0,0.0,0.0,0.0,0.0,0.0,0.0,0.0,0.0,0.0,0.0,0.0,0.0,0.0,0.0,0.0,0.0,0.0,0.0,0.0,0.0,0.0,0.0,0.0,0.0,0.0,0.0,0.0,0.0,0.0,0.0,0.0,0.0,0.0,0.0,0.0,0.0,0.0,0.0,0.0,0.0,0.0,0.0,0.0,0.0,0.0,0.0,0.0,0.0,0.0,0.0,0.0,0.0,0.0,0.0,0.0,0.0,0.0,0.0,0.0,0.0,0.0,0.0,0.0,0.0,0.0,0.0,0.0,0.0,0.0,0.0,0.0,0.0,0.0,0.0,0.0,0.0,0.0,0.0,0.0,0.0,0.0,0.0,0.0,0.0,0.0,0.0,0.0,0.0,0.0,0.0,0.0,0.0,0.0,0.0,0.0,0.0,0.0,0.0,0.0,0.0,0.0,0.0,0.0,0.0,0.0,0.0,0.0,0.0,0.0,0.0,0.0,0.0,0.0,0.0,0.0,0.0,0.0,0.0,0.0,0.0,0.0,0.0,0.0,0.0,0.0,0.0,0.0,0.0,0.0,0.0,0.0,0.0,0.0,0.0,0.0,0.0,0.0,0.0,0.0,0.0,0.0,0.0,0.0,0.0,0.0,0.0,0.0,0.0,0.0,0.0,0.0,0.0,0.0,0.0,0.0,0.0,0.0,0.0,0.0,0.0,0.0,0.0,0.0,0.0,0.0,0.0,0.0,0.0,0.0,0.0,0.0,0.0,0.0,0.0,0.0,0.0,0.0,0.0,0.0,0.0,0.0,0.0,0.0,0.0,0.0,0.0,0.0,0.0,0.0,0.0,0.0,0.0,0.0,0.0,0.0,0.0,0.0,0.0,0.0,0.0,0.0,0.0,0.0,0.0,0.0,0.0,0.0,0.0,0.0,0.0,0.0,0.0,0.0,0.0,0.0,0.0,0.0,0.0,0.0,0.0,0.0,0.0,0.0,0.0,0.0,0.0,0.0,0.0,0.0,0.0,0.0,0.0,0.0,0.0,0.0,0.0,0.0,0.0,0.0,0.0,0.0,0.0,0.0,0.0,0.0,0.0,0.0,0.0,0.0,0.0,0.0,0.0,0.0,0.0,0.0,0.0,0.0,0.0,0.0,0.0,0.0,0.0,0.0,0.0,0.0,0.0,0.0,0.0,0.0,0.0,0.0,0.0,0.0,0.0,0.0,0.0,0.0,0.0,0.0,0.0,0.0,0.0,0.0,0.0,0.0,0.0,0.0,0.0,0.0,0.0,0.0,0.0,0.0,0.0,0.0,0.0,0.0,0.0,0.0,0.0,0.0,0.0,0.0,0.0,0.0,0.0,0.0,0.0,0.0,0.0,0.0,0.0,0.0,0.0,0.0,0.0,0.0,0.0,0.0,0.0,0.0,0.0,0.0,0.0,0.0,0.0,0.0,0.0,0.0,0.0,0.0,0.0,0.0,0.0,0.0,0.0,0.0,0.0,0.0,0.0,0.0,0.0,0.0,0.0,0.0,0.0,0.0,0.0,0.0,0.0,0.0,0.0,0.0,0.0,0.0,0.0,0.0,0.0,0.0,0.0,0.0,0.0,0.0,0.0,0.0,0.0,0.0,0.0,0.0,0.0,0.0,0.0,0.0,0.0,0.0,0.0,0.0,0.0,0.0,0.0,0.0,0.0,0.0,0.0,0.0,0.0,0.0,0.0,0.0,0.0,0.0,0.0,0.0,0.0,0.0,0.0,0.0,0.0,0.0,0.0,0.0,0.0,0.0,0.0,0.0,0.0,0.0,0.0,0.0,0.0,0.0,0.0,0.0,0.0,0.0,0.0,0.0,0.0,0.0,0.0,0.0,0.0,0.0,0.0,0.0,0.0,0.0,0.0,0.0,0.0,0.0,0.0,-0.8994,0.0,0.0,0.0,0.0,0.0,0.0,0.0,0.0,0.0,0.0,0.0,0.0,0.0,0.0,0.0,0.0,0.0,0.0,0.0,0.0,0.0,0.0,0.0,0.0,0.0,0.0,0.0,0.0,0.0,0.0,0.0,0.0,0.0,0.0,0.0,0.0,0.0,0.0,0.0,0.0,0.0,0.0,0.0,0.0,0.0,0.0,0.0,0.0,0.0,0.0,0.0,0.0,0.0,0.0,0.0,0.0,0.0,0.0,0.0,0.0,0.0,0.0,0.0,0.0,0.0,0.0,0.0,0.0,0.0,0.0,0.0,0.0,0.0,0.0,0.0,0.0,0.0,0.0,0.0,0.0,0.0,0.0,0.0,0.0,0.0,0.0,0.0,0.0,0.0,0.0,0.0,0.0,0.0,0.0,0.0,0.0,0.0,0.0,0.0,0.0,0.0,0.0,0.0,0.0,0.0,0.0,0.0,0.0,0.0,0.0,-0.786,-0.8094,-0.8175,-0.8597,-0.946,0.0,0.0,0.0,0.0,0.0,0.0,0.0,0.0,0.0,0.0,0.0,0.0,0.0,0.0,0.0,0.0,0.0,0.0,0.0,0.0,0.0,0.0,0.0,0.0,0.0,0.0,0.0,0.0,0.0,0.0,0.0,0.0,0.0,0.0,0.0,0.0,0.0,0.0,0.0,0.0,0.0,0.0,0.0,0.0,0.0,0.0,0.0,0.0,0.0,0.0,0.0,0.0,0.0,0.0,0.0,0.0,0.0,0.0,0.0,0.0,0.0,0.0,0.0,0.0,0.0,0.0,0.0,0.0,0.0,0.0,0.0,0.0,0.0,0.0,0.0,0.0,0.0,0.0,0.0,0.0,0.0,0.0,0.0,0.0,0.0,0.0,0.0,0.0,0.0,0.0,0.0,0.0,0.0,0.0,0.0,0.0,0.0,0.0,0.0,0.0,0.0,0.0,0.0,0.0,0.0,0.0,0.0,0.0,0.0,0.0,0.0,0.0,-0.8588,-0.9155,-1.0286,0.0,0.0,0.0,0.0,0.0,0.0,0.0,0.0,0.0,0.0,0.0,0.0,0.0,0.0,0.0,0.0,0.0,0.0,0.0,0.0,0.0,0.0,0.0,0.0,0.0,0.0,0.0,0.0,0.0,0.0,0.0,0.0,0.0,0.0,0.0,0.0,0.0,0.0,0.0,0.0,0.0,0.0,0.0,0.0,0.0,0.0,0.0,0.0,0.0,0.0,0.0,0.0,0.0,0.0,0.0,0.0,0.0,0.0,0.0,0.0,0.0,0.0,0.0,0.0,0.0,0.0,0.0,0.0,0.0,0.0,0.0,0.0,0.0,0.0,0.0,0.0,0.0,0.0,0.0,0.0,0.0,0.0,0.0,0.0,0.0,0.0,0.0,0.0,0.0,0.0,0.0,0.0,0.0,0.0,0.0,0.0,0.0,0.0,0.0,0.0,0.0,0.0,0.0,0.0,0.0,0.0,0.0,0.0,0.0,0.0,-0.8711,-0.9784,-0.9838,0.0,-1.1544,0.0,0.0,0.0,0.0,0.0,0.0,0.0,0.0,0.0,0.0,0.0,0.0,0.0,0.0,0.0,0.0,0.0,0.0,0.0,0.0,0.0,0.0,0.0,0.0,0.0,0.0,0.0,0.0,0.0,0.0,0.0,0.0,0.0,0.0,0.0,0.0,0.0,0.0,0.0,0.0,0.0,0.0,0.0,0.0,0.0,0.0,0.0,0.0,0.0,0.0,0.0,0.0,0.0,0.0,0.0,0.0,0.0,0.0,0.0,0.0,0.0,0.0,0.0,0.0,0.0,0.0,0.0,0.0,0.0,0.0,0.0,0.0,0.0,0.0,0.0,0.0,0.0,0.0,0.0,0.0,0.0,0.0,0.0,0.0,0.0,0.0,0.0,0.0,0.0,0.0,0.0,0.0,0.0,0.0,0.0,0.0,0.0,0.0,0.0,0.0,0.0,0.0,0.0,0.0,0.0,0.0,0.0,0.0,0.0,0.0,-0.9079,-0.9919,-1.066,-1.1122,0.0,0.0,0.0,0.0,0.0,0.0,0.0,0.0,0.0,0.0,0.0,0.0,0.0,0.0,0.0,0.0,0.0,0.0,0.0,0.0,0.0,0.0,0.0,0.0,0.0,0.0,0.0,0.0,0.0,0.0,0.0,0.0,0.0,0.0,0.0,0.0,0.0,0.0,0.0,0.0,0.0,0.0,0.0,0.0,0.0,0.0,0.0,0.0,0.0,0.0,0.0,0.0,0.0,0.0,0.0,0.0,0.0,0.0,0.0,0.0,0.0,0.0,0.0,0.0,0.0,0.0,0.0,0.0,0.0,0.0,0.0,0.0,0.0,0.0,0.0,0.0,0.0,0.0,0.0,0.0,0.0,0.0,0.0,0.0,0.0,0.0,0.0,0.0,0.0,0.0,0.0,0.0,0.0,0.0,0.0,0.0,0.0,0.0,0.0,0.0,0.0,0.0,0.0,0.0,0.0,0.0,0.0,0.0,0.0,0.0,-0.8432,-0.9372,-1.0164,-1.0912,-1.1247,-1.1152,0.0,0.0,0.0,0.0,0.0,0.0,0.0,0.0,0.0,0.0,0.0,0.0,0.0,0.0,0.0,0.0,0.0,0.0,0.0,0.0,0.0,0.0,0.0,0.0,0.0,0.0,0.0,0.0,0.0,0.0,0.0,0.0,0.0,0.0,0.0,0.0,0.0,0.0,0.0,0.0,0.0,0.0,0.0,0.0,0.0,0.0,0.0,0.0,0.0,0.0,0.0,0.0,0.0,0.0,0.0,0.0,0.0,0.0,0.0,0.0,0.0,0.0,0.0,0.0,0.0,0.0,0.0,0.0,0.0,0.0,0.0,0.0,0.0,0.0,0.0,0.0,0.0,0.0,0.0,0.0,0.0,0.0,0.0,0.0,0.0,0.0,0.0,0.0,0.0,0.0,0.0,0.0,0.0,0.0,0.0,0.0,0.0,0.0,0.0,0.0,0.0,0.0,0.0,0.0,0.0,0.0,0.0,0.0,-1.0563,-0.9591,-0.9589,-1.0771,-1.0361,-1.0604,0.0,0.0,0.0,0.0,0.0,0.0,0.0,0.0,0.0,0.0,0.0,0.0,0.0,0.0,0.0,0.0,0.0,0.0,0.0,0.0,0.0,0.0,0.0,0.0,0.0,0.0,0.0,0.0,0.0,0.0,0.0,0.0,0.0,0.0,0.0,0.0,0.0,0.0,0.0,0.0,0.0,0.0,0.0,0.0,0.0,0.0,0.0,0.0,0.0,0.0,0.0,0.0,0.0,0.0,0.0,0.0,0.0,0.0,0.0,0.0,0.0,0.0,0.0,0.0,0.0,0.0,0.0,0.0,0.0,0.0,0.0,0.0,0.0,0.0,0.0,0.0,0.0,0.0,0.0,0.0,0.0,0.0,0.0,0.0,0.0,0.0,0.0,0.0,0.0,0.0,0.0,0.0,0.0,0.0,0.0,0.0,0.0,0.0,0.0,0.0,0.0,0.0,0.0,0.0,0.0,0.0,0.0,0.0,0.0,-0.8402,-0.9145,-0.9986,-1.0782,-1.0633,-1.0728,0.0,0.0,0.0,0.0,0.0,0.0,0.0,0.0,0.0,0.0,0.0,0.0,0.0,0.0,0.0,0.0,0.0,0.0,0.0,0.0,0.0,0.0,0.0,0.0,0.0,0.0,0.0,0.0,0.0,0.0,0.0,0.0,0.0,0.0,0.0,0.0,0.0,0.0,0.0,0.0,0.0,0.0,0.0,0.0,0.0,0.0,0.0,0.0,0.0,0.0,0.0,0.0,0.0,0.0,0.0,0.0,0.0,0.0,0.0,0.0,0.0,0.0,0.0,0.0,0.0,0.0,0.0,0.0,0.0,0.0,0.0,0.0,0.0,0.0,0.0,0.0,0.0,0.0,0.0,0.0,0.0,0.0,0.0,0.0,0.0,0.0,0.0,0.0,0.0,0.0,0.0,0.0,0.0,0.0,0.0,0.0,0.0,0.0,0.0,0.0,0.0,0.0,0.0,0.0,0.0,0.0,0.0,0.0,0.0,-0.7608,0.0,-0.977,-1.0116,-1.0157,-1.0134,0.0,0.0,0.0,0.0,0.0,0.0,0.0,0.0,0.0,0.0,0.0,0.0,0.0,0.0,0.0,0.0,0.0,0.0,0.0,0.0,0.0,0.0,0.0,0.0,0.0,0.0,0.0,0.0,0.0,0.0,0.0,0.0,0.0,0.0,0.0,0.0,0.0,0.0,0.0,0.0,0.0,0.0,0.0,0.0,0.0,0.0,0.0,0.0,0.0,0.0,0.0,0.0,0.0,0.0,0.0,0.0,0.0,0.0,0.0,0.0,0.0,0.0,0.0,0.0,0.0,0.0,0.0,0.0,0.0,0.0,0.0,0.0,0.0,0.0,0.0,0.0,0.0,0.0,0.0,0.0,0.0,0.0,0.0,0.0,0.0,0.0,0.0,0.0,0.0,0.0,0.0,0.0,0.0,0.0,0.0,0.0,0.0,0.0,0.0,0.0,0.0,0.0,0.0,0.0,0.0,0.0,0.0,0.0,-0.8236,-0.8853,-0.8898,-0.8962,-0.8845,-0.8866,-0.8797,0.0,0.0,0.0,0.0,0.0,0.0,0.0,0.0,0.0,0.0,0.0,0.0,0.0,0.0,0.0,0.0,0.0,0.0,0.0,0.0,0.0,0.0,0.0,0.0,0.0,0.0,0.0,0.0,0.0,0.0,0.0,0.0,0.0,0.0,0.0,0.0,0.0,0.0,0.0,0.0,0.0,0.0,0.0,0.0,0.0,0.0,0.0,0.0,0.0,0.0,0.0,0.0,0.0,0.0,0.0,0.0,0.0,0.0,0.0,0.0,0.0,0.0,0.0,0.0,0.0,0.0,0.0,0.0,0.0,0.0,0.0,0.0,0.0,0.0,0.0,0.0,0.0,0.0,0.0,0.0,0.0,0.0,0.0,0.0,0.0,0.0,0.0,0.0,0.0,0.0,0.0,0.0,0.0,0.0,0.0,0.0,0.0,0.0,0.0,0.0,0.0,0.0,0.0,0.0,0.0,0.0,0.0,0.0,0.0,-0.8898,-0.8921,-0.9498,-1.0688,-0.8957,-0.8787,0.0,0.0,0.0,0.0,0.0,0.0,0.0,0.0,0.0,0.0,0.0,0.0,0.0,0.0,0.0,0.0,0.0,0.0,0.0,0.0,0.0,0.0,0.0,0.0,0.0,0.0,0.0,0.0,0.0,0.0,0.0,0.0,0.0,0.0,0.0,0.0,0.0,0.0,0.0,0.0,0.0,0.0,0.0,0.0,0.0,0.0,0.0,0.0,0.0,0.0,0.0,0.0,0.0,0.0,0.0,0.0,0.0,0.0,0.0,0.0,0.0,0.0,0.0,0.0,0.0,0.0,0.0,0.0,0.0,0.0,0.0,0.0,0.0,0.0,0.0,0.0,0.0,0.0,0.0,0.0,0.0,0.0,0.0,0.0,0.0,0.0,0.0,0.0,0.0,0.0,0.0,0.0,0.0,0.0,0.0,0.0,0.0,0.0,0.0,0.0,0.0,0.0,0.0,0.0,0.0,0.0,0.0,0.0,0.0,-1.0083,-0.9532,-0.9776,-1.0943,-0.8982,-0.8663,-1.0179,0.0,0.0,0.0,0.0,0.0,0.0,0.0,0.0,0.0,0.0,0.0,0.0,0.0,0.0,0.0,0.0,0.0,0.0,0.0,0.0,0.0,0.0,0.0,0.0,0.0,0.0,0.0,0.0,0.0,0.0,0.0,0.0,0.0,0.0,0.0,0.0,0.0,0.0,0.0,0.0,0.0,0.0,0.0,0.0,0.0,0.0,0.0,0.0,0.0,0.0,0.0,0.0,0.0,0.0,0.0,0.0,0.0,0.0,0.0,0.0,0.0,0.0,0.0,0.0,0.0,0.0,0.0,0.0,0.0,0.0,0.0,0.0,0.0,0.0,0.0,0.0,0.0,0.0,0.0,0.0,0.0,0.0,0.0,0.0,0.0,0.0,0.0,0.0,0.0,0.0,0.0,0.0,0.0,0.0,0.0,0.0,0.0,0.0,0.0,0.0,0.0,0.0,0.0,0.0,0.0,0.0,0.0,0.0,-1.2211,-1.0845,-1.0127,-1.003,-0.9142,-0.8613,0.0,0.0,0.0,0.0,0.0,0.0,0.0,0.0,0.0,0.0,0.0,0.0,0.0,0.0,0.0,0.0,0.0,0.0,0.0,0.0,0.0,0.0,0.0,0.0,0.0,0.0,0.0,0.0,0.0,0.0,0.0,0.0,0.0,0.0,0.0,0.0,0.0,0.0,0.0,0.0,0.0,0.0,0.0,0.0,0.0,0.0,0.0,0.0,0.0,0.0,0.0,0.0,0.0,0.0,0.0,0.0,0.0,0.0,0.0,0.0,0.0,0.0,0.0,0.0,0.0,0.0,0.0,0.0,0.0,0.0,0.0,0.0,0.0,0.0,0.0,0.0,0.0,0.0,0.0,0.0,0.0,0.0,0.0,0.0,0.0,0.0,0.0,0.0,0.0,0.0,0.0,0.0,0.0,0.0,0.0,0.0,0.0,0.0,0.0,0.0,0.0,0.0,0.0,0.0,0.0,0.0,0.0,0.0,0.0,-1.3747,-1.39,-1.3722,-1.3221,-1.1324,-1.0456,0.0,0.0,0.0,0.0,0.0,0.0,0.0,0.0,0.0,0.0,0.0,0.0,0.0,0.0,0.0,0.0,0.0,0.0,0.0,0.0,0.0,0.0,0.0,0.0,0.0,0.0,0.0,0.0,0.0,0.0,0.0,0.0,0.0,0.0,0.0,0.0,0.0,0.0,0.0,0.0,0.0,0.0,0.0,0.0,0.0,0.0,0.0,0.0,0.0,0.0,0.0,0.0,0.0,0.0,0.0,0.0,0.0,0.0,0.0,0.0,0.0,0.0,0.0,0.0,0.0,0.0,0.0,0.0,0.0,0.0,0.0,0.0,0.0,0.0,0.0,0.0,0.0,0.0,0.0,0.0,0.0,0.0,0.0,0.0,0.0,0.0,0.0,0.0,0.0,0.0,0.0,0.0,0.0,0.0,0.0,0.0,0.0,0.0,0.0,0.0,0.0,0.0,0.0,0.0,0.0,0.0,0.0,0.0,-1.3666,-1.4946,-1.5754,-1.6073,-1.5894,-1.3466,-1.1765,0.0,0.0,0.0,0.0,0.0,0.0,0.0,0.0,0.0,0.0,0.0,0.0,0.0,0.0,0.0,0.0,0.0,0.0,0.0,0.0,0.0,0.0,0.0,0.0,0.0,0.0,0.0,0.0,0.0,0.0,0.0,0.0,0.0,0.0,0.0,0.0,0.0,0.0,0.0,0.0,0.0,0.0,0.0,0.0,0.0,0.0,0.0,0.0,0.0,0.0,0.0,0.0,0.0,0.0,0.0,0.0,0.0,0.0,0.0,0.0,0.0,0.0,0.0,0.0,0.0,0.0,0.0,0.0,0.0,0.0,0.0,0.0,0.0,0.0,0.0,0.0,0.0,0.0,0.0,0.0,0.0,0.0,0.0,0.0,0.0,0.0,0.0,0.0,0.0,0.0,0.0,0.0,0.0,0.0,0.0,0.0,0.0,0.0,0.0,0.0,0.0,0.0,0.0,0.0,0.0,0.0,0.0,0.0,-1.4994,-1.5831,-1.6832,-1.7444,-1.7576,-1.5236,-1.2733,0.0,0.0,0.0,0.0,0.0,0.0,0.0,0.0,0.0,0.0,0.0,0.0,0.0,0.0,0.0,0.0,0.0,0.0,0.0,0.0,0.0,0.0,0.0,0.0,0.0,0.0,0.0,0.0,0.0,0.0,0.0,0.0,0.0,0.0,0.0,0.0,0.0,0.0,0.0,0.0,0.0,0.0,0.0,0.0,0.0,0.0,0.0,0.0,0.0,0.0,0.0,0.0,0.0,0.0,0.0,0.0,0.0,0.0,0.0,0.0,0.0,0.0,0.0,0.0,0.0,0.0,0.0,0.0,0.0,0.0,0.0,0.0,0.0,0.0,0.0,0.0,0.0,0.0,0.0,0.0,0.0,0.0,0.0,0.0,0.0,0.0,0.0,0.0,0.0,0.0,0.0,0.0,0.0,0.0,0.0,0.0,0.0,0.0,0.0,0.0,0.0,0.0,0.0,0.0,0.0,0.0,0.0,0.0,-1.4527,-1.6085,-1.7539,-1.7814,-1.6807,-1.5022,-1.3297,0.0,0.0,0.0,0.0,0.0,0.0,0.0,0.0,0.0,0.0,0.0,0.0,0.0,0.0,0.0,0.0,0.0,0.0,0.0,0.0,0.0,0.0,0.0,0.0,0.0,0.0,0.0,0.0,0.0,0.0,0.0,0.0,0.0,0.0,0.0,0.0,0.0,0.0,0.0,0.0,0.0,0.0,0.0,0.0,0.0,0.0,0.0,0.0,-0.6645,0.0,0.0,0.0,0.0,0.0,0.0,0.0,0.0,0.0,0.0,0.0,0.0,0.0,0.0,0.0,0.0,0.0,0.0,0.0,0.0,0.0,0.0,0.0,0.0,0.0,0.0,0.0,0.0,0.0,0.0,0.0,0.0,0.0,0.0,0.0,0.0,0.0,0.0,0.0,0.0,0.0,0.0,0.0,0.0,0.0,0.0,0.0,0.0,0.0,0.0,0.0,0.0,0.0,0.0,0.0,0.0,0.0,0.0,0.0,-1.4255,-1.6053,-1.694,-1.7158,-1.6647,-1.4641,-1.2962,0.0,0.0,0.0,0.0,0.0,0.0,0.0,0.0,0.0,0.0,0.0,0.0,0.0,0.0,0.0,0.0,0.0,0.0,0.0,0.0,0.0,0.0,0.0,0.0,0.0,0.0,0.0,0.0,0.0,0.0,0.0,0.0,0.0,0.0,0.0,0.0,0.0,0.0,0.0,0.0,0.0,0.0,0.0,0.0,0.0,0.0,0.0,0.0,0.0,0.0,0.0,0.0,0.0,0.0,0.0,0.0,0.0,0.0,0.0,0.0,0.0,0.0,0.0,0.0,0.0,0.0,0.0,0.0,0.0,0.0,0.0,0.0,0.0,0.0,0.0,0.0,0.0,0.0,0.0,0.0,0.0,0.0,0.0,0.0,0.0,0.0,0.0,0.0,0.0,0.0,0.0,0.0,0.0,0.0,0.0,0.0,0.0,0.0,0.0,0.0,0.0,0.0,0.0,0.0,0.0,0.0,0.0,-1.2778,-1.407,-1.5817,-1.5964,-1.6212,-1.6577,-1.4216,-1.2464,-1.1548,0.0,0.0,0.0,0.0,0.0,0.0,0.0,0.0,0.0,0.0,0.0,0.0,0.0,0.0,0.0,0.0,0.0,0.0,0.0,0.0,0.0,0.0,0.0,0.0,0.0,0.0,0.0,0.0,0.0,0.0,0.0,0.0,0.0,0.0,0.0,0.0,0.0,0.0,-0.7064,-0.6662,0.0,0.0,0.0,0.0,0.0,0.0,0.0,0.0,-0.6896,0.0,0.0,0.0,0.0,0.0,0.0,0.0,0.0,0.0,0.0,0.0,0.0,0.0,0.0,0.0,0.0,0.0,0.0,0.0,0.0,0.0,0.0,0.0,0.0,0.0,0.0,0.0,0.0,0.0,0.0,0.0,0.0,0.0,0.0,0.0,0.0,0.0,0.0,0.0,0.0,0.0,0.0,0.0,0.0,0.0,0.0,0.0,0.0,0.0,0.0,0.0,0.0,0.0,0.0,0.0,0.0,-1.2878,-1.3041,-1.3912,-1.5547,-1.5858,-1.582,-1.5366,-1.3837,-1.2663,-1.1992,0.0,0.0,0.0,0.0,0.0,0.0,0.0,0.0,0.0,0.0,0.0,0.0,0.0,0.0,0.0,0.0,0.0,0.0,0.0,0.0,0.0,0.0,0.0,0.0,0.0,0.0,0.0,0.0,0.0,0.0,0.0,0.0,0.0,0.0,0.0,0.0,0.0,0.0,0.0,-0.6279,-0.6244,0.0,0.0,0.0,0.0,0.0,0.0,0.0,0.0,-0.6467,0.0,0.0,0.0,0.0,0.0,0.0,0.0,0.0,0.0,0.0,0.0,0.0,0.0,0.0,0.0,0.0,0.0,0.0,0.0,0.0,0.0,0.0,0.0,0.0,0.0,0.0,0.0,0.0,0.0,0.0,0.0,0.0,0.0,0.0,0.0,0.0,0.0,0.0,0.0,0.0,0.0,0.0,0.0,0.0,0.0,0.0,0.0,0.0,0.0,0.0,0.0,0.0,0.0,0.0,0.0,-1.3065,-1.2563,-1.3048,-1.4708,-1.4822,-1.4582,-1.3954,-1.275,-1.198,0.0,0.0,0.0,0.0,0.0,0.0,0.0,0.0,0.0,0.0,0.0,0.0,0.0,0.0,0.0,0.0,0.0,0.0,0.0,0.0,0.0,0.0,0.0,0.0,0.0,0.0,0.0,0.0,0.0,0.0,0.0,0.0,0.0,0.0,0.0,0.0,0.0,0.0,0.0,0.0,-0.6305,-0.6188,-0.6435,0.0,0.0,0.0,0.0,0.0,0.0,-0.6615,-0.6612,0.0,0.0,0.0,0.0,0.0,0.0,0.0,0.0,0.0,0.0,0.0,0.0,0.0,0.0,0.0,0.0,0.0,0.0,0.0,0.0,0.0,0.0,0.0,0.0,0.0,0.0,0.0,0.0,0.0,0.0,0.0,0.0,0.0,0.0,0.0,0.0,0.0,0.0,0.0,0.0,0.0,0.0,0.0,0.0,0.0,0.0,0.0,0.0,0.0,0.0,0.0,0.0,0.0,0.0,0.0,-1.3079,-1.2155,-1.2406,-1.3952,-1.3891,-1.3569,-1.3085,-1.2032,-1.1426,0.0,0.0,0.0,0.0,0.0,0.0,0.0,0.0,0.0,0.0,0.0,0.0,0.0,0.0,0.0,0.0,0.0,0.0,0.0,0.0,0.0,0.0,0.0,0.0,0.0,0.0,0.0,0.0,0.0,0.0,0.0,0.0,0.0,0.0,0.0,0.0,0.0,0.0,0.0,0.0,0.0,-0.6347,-0.683,-0.6476,0.0,0.0,0.0,0.0,-0.7003,-0.7046,0.0,0.0,0.0,0.0,0.0,0.0,0.0,0.0,0.0,0.0,0.0,0.0,0.0,0.0,0.0,0.0,0.0,0.0,0.0,0.0,0.0,0.0,0.0,0.0,0.0,0.0,0.0,0.0,0.0,0.0,0.0,0.0,0.0,0.0,0.0,0.0,0.0,0.0,0.0,0.0,0.0,0.0,0.0,0.0,0.0,0.0,0.0,0.0,0.0,0.0,0.0,0.0,0.0,0.0,0.0,0.0,-1.2719,-1.2512,-1.2849,-1.3776,-1.3821,-1.3765,-1.3687,-1.2654,-1.2047,0.0,0.0,0.0,0.0,0.0,0.0,0.0,0.0,0.0,0.0,0.0,0.0,0.0,0.0,0.0,0.0,0.0,0.0,0.0,0.0,0.0,0.0,0.0,0.0,0.0,0.0,0.0,0.0,0.0,0.0,0.0,0.0,0.0,0.0,0.0,0.0,0.0,0.0,0.0,0.0,0.0,-0.6919,-0.7508,-0.7114,-0.6987,0.0,0.0,-0.7322,-0.8012,-0.8262,0.0,0.0,0.0,0.0,0.0,0.0,0.0,0.0,0.0,0.0,0.0,0.0,0.0,0.0,0.0,0.0,0.0,0.0,0.0,0.0,0.0,0.0,0.0,0.0,0.0,0.0,0.0,0.0,0.0,0.0,0.0,0.0,0.0,0.0,0.0,0.0,0.0,0.0,0.0,0.0,0.0,0.0,0.0,0.0,0.0,0.0,0.0,0.0,0.0,0.0,0.0,0.0,0.0,0.0,0.0,-1.2286,-1.3261,-1.3055,-1.3218,-1.3832,-1.3871,-1.351,-1.2779,-1.2114,-1.152,0.0,0.0,0.0,0.0,0.0,0.0,0.0,0.0,0.0,0.0,0.0,0.0,0.0,0.0,0.0,0.0,0.0,0.0,0.0,0.0,0.0,0.0,0.0,0.0,0.0,0.0,0.0,0.0,0.0,0.0,0.0,0.0,0.0,0.0,0.0,0.0,0.0,0.0,0.0,0.0,0.0,0.0,-0.7604,-0.7405,0.0,0.0,0.0,-0.7536,-0.8133,0.0,0.0,0.0,0.0,0.0,0.0,0.0,0.0,0.0,0.0,0.0,0.0,0.0,0.0,0.0,0.0,0.0,0.0,0.0,0.0,0.0,0.0,0.0,0.0,0.0,0.0,0.0,0.0,0.0,0.0,0.0,0.0,0.0,0.0,0.0,0.0,0.0,0.0,0.0,0.0,0.0,0.0,0.0,0.0,0.0,0.0,0.0,0.0,0.0,0.0,0.0,0.0,0.0,0.0,0.0,0.0,0.0,-1.3766,-1.342,-1.3424,-1.3878,-1.3891,-1.3371,-1.227,-1.1796,0.0,0.0,0.0,0.0,0.0,0.0,0.0,0.0,0.0,0.0,0.0,0.0,0.0,0.0,0.0,0.0,0.0,0.0,0.0,0.0,0.0,0.0,0.0,0.0,0.0,0.0,0.0,-0.7113,0.0,0.0,0.0,0.0,0.0,0.0,0.0,0.0,0.0,0.0,0.0,0.0,0.0,0.0,-0.7966,-0.7966,-0.7938,-0.8059,0.0,0.0,-0.819,-0.8382,-0.8555,-0.8703,0.0,0.0,0.0,0.0,0.0,0.0,0.0,0.0,0.0,0.0,0.0,0.0,0.0,0.0,0.0,0.0,0.0,0.0,0.0,0.0,0.0,0.0,0.0,0.0,0.0,0.0,0.0,0.0,0.0,0.0,0.0,0.0,0.0,0.0,0.0,0.0,0.0,0.0,0.0,0.0,0.0,0.0,0.0,0.0,0.0,0.0,0.0,0.0,0.0,0.0,0.0,0.0,0.0,0.0,0.0,-1.3752,-1.3452,-1.3512,-1.3878,-1.3891,-1.3555,-1.2862,-1.2318,-1.2001,0.0,0.0,0.0,0.0,0.0,0.0,0.0,0.0,0.0,0.0,0.0,0.0,0.0,0.0,0.0,0.0,0.0,0.0,0.0,0.0,0.0,0.0,0.0,0.0,0.0,0.0,0.0,0.0,0.0,0.0,0.0,0.0,0.0,0.0,0.0,0.0,0.0,0.0,0.0,0.0,0.0,-0.9193,-0.9022,-0.9047,-0.9061,0.0,0.0,-0.9629,-0.9031,-1.0692,-1.1677,-1.0537,0.0,0.0,0.0,0.0,0.0,0.0,0.0,0.0,0.0,0.0,0.0,0.0,0.0,0.0,0.0,0.0,0.0,0.0,0.0,0.0,0.0,0.0,0.0,0.0,0.0,0.0,0.0,0.0,0.0,0.0,0.0,0.0,0.0,0.0,0.0,0.0,0.0,0.0,0.0,0.0,0.0,0.0,0.0,0.0,0.0,0.0,0.0,0.0,0.0,0.0,0.0,0.0,0.0,-1.3829,-1.477,-1.4585,-1.4654,-1.5043,-1.472,-1.4175,-1.3464,-1.2922,-1.2137,0.0,0.0,0.0,0.0,0.0,0.0,0.0,0.0,0.0,0.0,0.0,0.0,0.0,0.0,0.0,0.0,0.0,0.0,0.0,0.0,0.0,0.0,0.0,0.0,0.0,0.0,0.0,0.0,-0.6877,-0.6842,-0.7807,0.0,0.0,0.0,0.0,0.0,0.0,0.0,0.0,0.0,0.0,-0.9802,-0.9728,-1.0008,0.0,0.0,-1.0082,-1.0324,-0.9667,-1.0597,-1.117,-1.0493,-1.0696,0.0,0.0,0.0,0.0,0.0,0.0,0.0,0.0,0.0,0.0,0.0,0.0,0.0,0.0,0.0,0.0,0.0,0.0,0.0,0.0,0.0,0.0,0.0,0.0,0.0,0.0,0.0,0.0,0.0,0.0,0.0,0.0,0.0,0.0,0.0,0.0,0.0,0.0,0.0,0.0,0.0,0.0,0.0,0.0,0.0,0.0,0.0,0.0,0.0,0.0,0.0,0.0,-1.4448,-1.5474,-1.5302,-1.5414,-1.5845,-1.523,-1.454,-1.3854,-1.3266,-1.2428,0.0,0.0,0.0,0.0,0.0,0.0,0.0,0.0,0.0,0.0,0.0,0.0,0.0,0.0,0.0,0.0,0.0,0.0,0.0,0.0,0.0,0.0,0.0,0.0,0.0,0.0,0.0,0.0,-0.7463,-0.7532,-0.8865,0.0,0.0,0.0,0.0,0.0,0.0,0.0,0.0,0.0,0.0,-1.0582,-1.0541,-1.0731,-1.0691,-1.018,-1.0577,-1.0746,-1.0246,-1.0816,-1.1215,-1.0945,0.0,0.0,0.0,0.0,0.0,0.0,0.0,0.0,0.0,0.0,0.0,0.0,0.0,0.0,0.0,0.0,0.0,0.0,0.0,0.0,0.0,0.0,0.0,0.0,0.0,0.0,0.0,0.0,0.0,0.0,-1.4474,0.0,0.0,0.0,0.0,0.0,0.0,0.0,0.0,0.0,0.0,0.0,0.0,0.0,0.0,0.0,0.0,0.0,0.0,0.0,0.0,0.0,0.0,-1.5024,-1.5702,-1.5411,-1.549,-1.5977,-1.5292,-1.4631,-1.3967,-1.3263,-1.2888,-1.2823,0.0,0.0,0.0,0.0,0.0,0.0,0.0,0.0,0.0,0.0,0.0,0.0,0.0,0.0,0.0,0.0,0.0,0.0,0.0,0.0,0.0,0.0,0.0,0.0,0.0,0.0,-0.9391,-0.8597,-0.8246,0.0,0.0,0.0,0.0,0.0,0.0,0.0,0.0,0.0,0.0,-1.1372,-1.1687,-1.149,-1.1113,-1.0843,-1.0778,-1.0926,-1.0967,-1.082,-1.1716,-1.2414,0.0,0.0,0.0,0.0,0.0,0.0,0.0,0.0,0.0,0.0,0.0,0.0,0.0,0.0,0.0,0.0,0.0,0.0,0.0,0.0,0.0,0.0,0.0,0.0,0.0,0.0,0.0,-1.5755,-1.5606,0.0,0.0,0.0,0.0,0.0,0.0,0.0,0.0,0.0,0.0,0.0,-1.8556,-1.7765,0.0,0.0,0.0,0.0,0.0,0.0,0.0,0.0,0.0,0.0,0.0,0.0,-1.5746,-1.6687,-1.6122,-1.6239,-1.7088,-1.6499,-1.599,-1.5628,-1.4686,-1.3963,-1.3503,0.0,0.0,0.0,0.0,0.0,0.0,0.0,0.0,0.0,0.0,0.0,0.0,0.0,0.0,0.0,0.0,0.0,0.0,0.0,0.0,0.0,0.0,0.0,0.0,0.0,-0.9206,0.0,0.0,0.0,0.0,0.0,0.0,0.0,0.0,0.0,0.0,0.0,-1.1544,-1.1885,-1.1809,-1.1835,-1.2124,-1.2026,-1.1789,0.0,0.0,0.0,0.0,0.0,0.0,0.0,0.0,0.0,0.0,0.0,0.0,0.0,0.0,-1.2118,-1.2123,-1.2516,-1.2857,-1.2931,0.0,0.0,0.0,0.0,0.0,0.0,0.0,0.0,0.0,0.0,0.0,0.0,0.0,0.0,-1.7462,0.0,-1.7241,0.0,0.0,0.0,0.0,0.0,0.0,0.0,0.0,-1.8669,-1.8859,-1.9377,-1.8382,-1.83,0.0,-1.8665,-1.8248,0.0,0.0,0.0,0.0,0.0,0.0,0.0,0.0,-1.6655,-1.752,-1.7028,-1.7165,-1.7997,-1.7242,-1.6747,-1.6585,-1.544,-1.4368,-1.3424,-1.259,-1.1929,0.0,0.0,0.0,0.0,0.0,0.0,0.0,0.0,0.0,0.0,0.0,0.0,0.0,0.0,0.0,0.0,0.0,0.0,0.0,0.0,0.0,0.0,0.0,-0.9517,0.0,0.0,0.0,0.0,0.0,0.0,0.0,0.0,0.0,-1.1438,-1.1656,-1.2062,-1.244,-1.238,-1.2437,-1.2793,0.0,0.0,0.0,0.0,0.0,0.0,0.0,-1.3246,-1.3057,-1.3079,-1.3032,-1.2687,-1.2333,-1.2025,-1.1843,0.0,0.0,-1.1963,-1.2235,-1.2544,-1.2906,-1.2062,-1.1486,-1.2282,-1.1718,-1.1181,0.0,0.0,0.0,0.0,0.0,0.0,0.0,0.0,-1.9433,-1.9719,0.0,-1.8871,0.0,0.0,0.0,0.0,0.0,-1.9186,0.0,0.0,-1.9785,-1.9987,-1.9828,-1.9232,-1.8959,-1.8973,-1.9037,-1.8769,-1.8285,-1.8252,0.0,0.0,0.0,0.0,0.0,0.0,-1.768,-1.8183,-1.8016,-1.8201,-1.8738,-1.7544,-1.6846,-1.6759,-1.5553,-1.4209,-1.2813,-1.3409,-1.3145,-1.171,-1.3002,0.0,0.0,0.0,0.0,0.0,0.0,0.0,0.0,0.0,0.0,0.0,0.0,0.0,0.0,0.0,0.0,0.0,0.0,0.0,0.0,-0.9867,0.0,0.0,0.0,0.0,0.0,0.0,0.0,0.0,0.0,0.0,-1.2101,-1.29,-1.3329,-1.2634,0.0,0.0,0.0,0.0,-1.2698,-1.2845,-1.2429,-1.2314,-1.2809,-1.3283,-1.3723,-1.4149,0.0,0.0,-1.2344,-1.1811,-1.1486,-1.1208,-1.1477,-1.1744,-1.2135,-1.233,-1.2597,-1.2978,-1.1934,-1.1343,-1.2269,-1.1393,-1.0399,-2.5237,0.0,0.0,0.0,0.0,-2.2058,-2.217,-2.1899,-2.1946,-2.1755,-2.1388,-2.0631,0.0,0.0,0.0,0.0,0.0,0.0,-2.0541,-1.9804,-2.0908,-2.1263,-2.0918,-2.0333,-2.0266,-2.0646,-1.9876,-1.9421,-1.9271,-1.9293,-1.8934,-1.8299,0.0,0.0,0.0,0.0,-1.8224,-1.8666,-1.8603,-1.8629,-1.8785,-1.8425,-1.7767,-1.6819,-1.6395,-1.5527,-1.4233,-1.4394,-1.4273,-1.3749,-1.3776,0.0,0.0,0.0,0.0,0.0,0.0,0.0,0.0,0.0,0.0,0.0,0.0,0.0,0.0,0.0,0.0,0.0,0.0,0.0,-1.2105,-1.0956,-1.0557,0.0,0.0,0.0,0.0,0.0,0.0,0.0,0.0,0.0,-1.4336,-1.3713,-1.329,0.0,0.0,-1.323,-1.3529,-1.3515,-1.3554,-1.3908,-1.414,0.0,0.0,-1.4618,-1.4711,-1.4695,-1.4125,-1.3496,-1.3035,-1.2508,-1.2089,-1.1913,-1.2048,-1.2165,-1.211,-1.2186,-1.2368,-1.2698,-1.2377,-1.2142,-1.2621,-1.2277,-1.2,-2.9561,-2.6796,-2.5265,-2.4453,-2.4207,-2.4789,-2.4683,-2.4159,-2.4133,-2.3909,-2.3504,-2.265,-2.21,-2.1758,-2.1541,0.0,0.0,0.0,-2.2016,-2.0978,-2.2155,-2.2504,-2.209,-2.1751,-2.1629,-2.1735,-2.107,-2.0487,-2.0039,-2.013,-1.9735,-1.8907,0.0,0.0,-1.8628,-1.8997,-1.9318,-1.9574,-1.9513,-1.9469,-1.9456,-1.9274,-1.8669,-1.7639,-1.727,-1.6596,-1.5638,-1.5295,-1.5122,-1.5036,-1.4673,-1.4109,0.0,0.0,0.0,0.0,0.0,0.0,0.0,0.0,0.0,0.0,0.0,-1.2762,0.0,0.0,0.0,0.0,-1.2307,-1.2687,-1.225,-1.179,0.0,0.0,0.0,0.0,0.0,0.0,0.0,-1.5024,-1.4807,-1.4813,-1.5215,-1.4483,-1.4019,-1.438,-1.4154,-1.4049,-1.4319,0.0,-1.4545,-1.4805,-1.5097,-1.5285,-1.5178,-1.5402,-1.544,-1.496,-1.4608,-1.4022,-1.3356,-1.2974,-1.2691,-1.2502,-1.2484,-1.2467,-1.2282,-1.2384,-1.2561,-1.2797,-1.2904,-1.3003,-1.3244,-1.3066,-1.3002,-3.3619,-3.2421,-2.9892,-2.8312,-2.7499,-2.801,-2.7513,-2.6314,-2.6259,-2.6245,-2.609,-2.4922,-2.4664,-2.5043,-2.4507,0.0,-2.2118,-2.3674,-2.3719,-2.2557,-2.3545,-2.3782,-2.3335,-2.3309,-2.3011,-2.2466,-2.2359,-2.1724,-2.0694,-2.0849,-2.0561,-1.9828,-1.9855,-1.962,-1.9176,-2.0136,-2.0644,-2.0635,-2.0524,-2.0504,-2.0504,-1.9962,-1.9423,-1.8799,-1.8146,-1.7471,-1.6805,-1.6139,-1.5779,-1.5774,-1.5614,-1.4972,-1.38,0.0,0.0,0.0,0.0,0.0,0.0,0.0,0.0,0.0,0.0,0.0,0.0,0.0,0.0,0.0,-1.185,0.0,-1.1278,-1.2566,0.0,0.0,0.0,-1.5987,-1.5858,-1.5797,-1.5776,-1.5838,0.0,0.0,-1.5267,-1.528,-1.537,-1.5601,-1.5491,-1.5424,-1.55,-1.5475,-1.5508,-1.5546,-1.5617,-1.5568,-1.5466,-1.5846,-1.596,-1.5302,-1.5239,-1.4861,-1.3752,-1.3368,-1.325,-1.2932,-1.2787,-1.2674,-1.2567,-1.2851,-1.3107,-1.2985,-1.3354,-1.3758,-1.4014,-1.3662,-1.3485,-3.5207,-3.523,-3.4143,-3.2331,-3.0168,-3.0142,-2.995,-2.9619,-2.9451,-2.9167,-2.8647,-2.7454,-2.6216,-2.5033,-2.4878,-2.4601,-2.4299,-2.5584,-2.5489,-2.4342,-2.5505,-2.5492,-2.4442,-2.4308,-2.4172,-2.3979,-2.2867,-2.2156,-2.1871,-2.1471,-2.0784,-1.9869,-2.0265,-2.0017,-1.9148,-1.981,-2.013,-2.0019,-2.0434,-2.0597,-2.0491,-1.9962,-1.9423,-1.8812,-1.8615,-1.8004,-1.6846,-1.6613,-1.6522,-1.6458,-1.5951,-1.5344,-1.4708,-1.4936,0.0,0.0,0.0,0.0,0.0,0.0,0.0,0.0,0.0,-1.4789,-1.3739,0.0,-1.437,0.0,-1.2196,-1.2774,-1.361,-1.4576,0.0,0.0,-1.5993,-1.646,-1.6278,-1.6278,-1.6312,-1.6257,-1.6199,-1.6283,-1.6719,-1.6726,-1.6889,-1.7355,-1.6268,-1.5404,-1.55,-1.5956,-1.6231,-1.6238,-1.6519,-1.676,-1.6666,-1.6622,-1.6494,-1.6296,-1.5811,-1.5286,-1.4943,-1.4327,-1.3806,-1.3532,-1.3208,-1.2953,-1.2752,-1.3216,-1.3531,-1.3488,-1.3697,-1.4252,-1.511,-1.4739,-1.4425,-3.6678,-3.6722,-3.6373,-3.5346,-3.3811,-3.3321,-3.2777,-3.2165,-3.1952,-3.1392,-3.0485,-2.976,-2.8689,-2.7481,-2.7439,-2.7129,-2.6638,-2.7312,-2.7001,-2.598,-2.6834,-2.682,-2.605,-2.573,-2.5451,-2.5199,-2.3937,-2.3176,-2.2916,-2.2574,-2.1969,-2.1111,-2.1464,-2.1093,-2.0029,-1.9992,-2.0136,-2.0376,-2.0594,-2.0756,-2.0884,-2.0599,-2.0075,-1.9285,-1.9244,-1.865,-1.7394,-1.7307,-1.7262,-1.7123,-1.6718,-1.6145,-1.5366,-1.5358,-1.4916,0.0,0.0,0.0,0.0,0.0,0.0,0.0,0.0,0.0,0.0,0.0,-1.5285,-1.45,-1.4237,-1.4525,-1.5491,-1.6212,-1.6621,-1.6515,-1.7014,-1.7187,-1.6702,-1.67,-1.66,-1.6343,-1.634,-1.6538,-1.7014,-1.7043,-1.7253,-1.7878,-1.7099,-1.6524,-1.6629,-1.6802,-1.6878,-1.698,-1.7026,-1.7065,-1.7052,-1.6918,-1.6672,-1.6304,-1.6065,-1.5707,-1.5044,-1.4543,-1.4063,-1.3545,-1.3277,-1.3035,-1.2782,-1.3241,-1.3658,-1.3666,-1.4065,-1.4741,-1.5491,-1.505,-1.472,-3.7825,-3.7418,-3.7346,-3.736,-3.7375,-3.6613,-3.5489,-3.4137,-3.3893,-3.3016,-3.1834,-3.1664,-3.126,-3.061,-3.0526,-2.9876,-2.8789,-2.8783,-2.8344,-2.7506,-2.78,-2.7817,-2.7631,-2.7143,-2.6652,-2.6173,-2.5173,-2.443,-2.3944,-2.3778,-2.3352,-2.2743,-2.2699,-2.2193,-2.123,-2.041,-2.0368,-2.1122,-2.0887,-2.0949,-2.1335,-2.1281,-2.0733,-1.976,-1.9677,-1.9158,-1.8037,-1.7915,-1.7842,-1.772,-1.7591,-1.7078,-1.6103,-1.5673,-1.559,0.0,-1.5569,0.0,0.0,0.0,0.0,0.0,0.0,0.0,0.0,-1.6198,-1.6256,-1.7756,-1.6863,-1.6435,-1.6922,-1.7511,-1.7778,-1.7546,-1.7892,-1.7886,-1.7205,-1.7097,-1.6938,-1.6458,-1.647,-1.6669,-1.7031,-1.707,-1.7361,-1.7934,-1.7971,-1.792,-1.8101,-1.7733,-1.7481,-1.7744,-1.735,-1.7051,-1.6837,-1.6812,-1.6617,-1.6023,-1.6032,-1.5894,-1.4771,-1.4523,-1.4218,-1.3463,-1.3263,-1.3101,-1.2656,-1.3077,-1.3452,-1.3454,-1.4113,-1.4848,-1.5227,-1.5104,-1.489,-3.7694,-3.7984,-3.7506,-3.7593,-3.8028,-3.786,-3.6931,-3.5575,-3.486,-3.3807,-3.2528,-3.2331,-3.1893,-3.1274,-3.0755,-3.0371,-3.0087,-2.9627,-2.9066,-2.846,-2.8611,-2.8402,-2.7936,-2.7651,-2.7408,-2.7139,-2.5826,-2.5149,-2.5149,-2.4194,-2.3402,-2.2853,-2.239,-2.2042,-2.1769,0.0,0.0,0.0,-2.11,-2.1065,-2.1116,-2.0569,-1.9888,-1.9117,-1.9076,0.0,-1.7963,-1.7902,-1.7882,-1.7862,-1.774,0.0,0.0,0.0,0.0,0.0,0.0,0.0,0.0,0.0,0.0,0.0,-1.7529,-1.6887,-1.7076,-1.6899,-1.7044,-1.7689,-1.8234,-1.8193,-1.739,-1.8199,-1.8554,-1.8116,-1.8058,-1.7963,-1.7816,-1.7698,-1.7614,-1.7528,-1.7872,-1.8142,-1.8203,-1.8532,-1.8773,-1.8833,-1.8829,-1.8803,-1.8806,-1.8302,-1.8052,-1.8234,-1.7792,-1.7222,-1.6445,-1.6491,-1.6561,-1.6325,-1.5865,-1.5604,-1.5397,-1.5062,-1.4656,-1.392,-1.3625,-1.3349,-1.3025,-1.2935,-1.2975,-1.3146,-1.3445,-1.3879,-1.4688,-1.5399,-1.5716,-3.7941,0.0,-3.7868,-3.7926,0.0,-3.8202,-3.7765,-3.7003,-3.6251,-3.5011,-3.3591,-3.3507,-3.3064,-3.2342,-3.1429,-3.1007,-3.0951,-3.0024,-2.9448,-2.9153,-2.9292,-2.9199,-2.8872,-2.8471,-2.8257,-2.814,-2.6866,-2.6293,-2.6281,-2.5439,-2.4693,-2.4123,-2.3566,-2.3123,-2.2768,-2.1831,-2.1246,-2.0986,-2.0955,-2.107,-2.1403,-2.0955,-2.0448,-1.9916,0.0,0.0,0.0,0.0,0.0,0.0,0.0,0.0,0.0,0.0,0.0,-1.8989,-1.9015,-1.9101,-1.9316,-1.9355,-1.9473,-1.9758,-1.9271,-1.8554,-1.7635,-1.82,-1.8575,-1.8461,-1.8852,-1.8754,-1.7915,-1.8519,-1.8882,-1.8656,-1.877,-1.8783,-1.8559,-1.8423,-1.8275,-1.8064,-1.8226,-1.8462,-1.8685,-1.8856,-1.9086,-1.9253,-1.9237,-1.9198,-1.9204,-1.8619,-1.8105,-1.7818,-1.739,-1.6904,-1.6371,-1.6371,-1.6392,-1.6182,-1.5945,-1.5726,-1.5525,-1.5097,-1.4546,-1.3964,-1.3656,-1.336,-1.2912,-1.2833,-1.2882,-1.2822,-1.3101,-1.3436,-1.3922,-1.4782,-1.5471,-3.8202,-3.8202,-3.8202,-3.8202,-3.8202,-3.8202,-3.8202,-3.8159,0.0,0.0,0.0,-3.4406,-3.3953,-3.3206,-3.2159,-3.1654,-3.1569,-3.0347,-2.9827,-2.9926,-2.9812,-2.9817,-2.9888,-2.9292,-2.8979,-2.8951,-2.7899,-2.7384,-2.74,-2.6806,-2.6184,-2.5591,-2.5011,-2.4349,-2.3554,-2.3018,-2.2251,-2.1199,-2.0914,-2.1075,-2.1651,-2.1318,-2.1008,-2.0698,-2.0493,-2.0079,-1.945,-1.9414,-1.9391,-1.9324,-1.9394,-1.9478,-1.9548,-1.9459,-1.943,-1.9498,-1.9323,-1.942,-1.9917,-1.9956,-2.0229,-2.0792,-2.0831,-2.0165,-1.8595,-1.9573,-2.0028,-1.9469,-1.9295,-1.9032,-1.8615,-1.8931,-1.9196,-1.9208,-1.9585,-1.9648,-1.9208,-1.9146,-1.8983,-1.8581,-1.8555,-1.8607,-1.8946,-1.9008,-1.9044,-1.9336,-1.9316,-1.9303,-1.9321,-1.8847,-1.8164,-1.7359,-1.7074,-1.6672,-1.6246,-1.6297,-1.6262,-1.5991,-1.5949,-1.5816,-1.5396,-1.4898,-1.4401,-1.3987,-1.3768,-1.3492,-1.2926,-1.2967,-1.2965,-1.2532,-1.2853,-1.3249,-1.3196,-1.3899,-1.4636,-3.8202,-3.8202,-3.8202,-3.8202,-3.8202,-3.8202,-3.8202,-3.8101,-3.6735,-3.5633,-3.4704,-3.4015,-3.3571,-3.3248,-3.2595,-3.2286,-3.2188,-3.0979,-3.0698,-3.1162,-3.0126,-2.9915,-3.0333,-2.9677,-2.932,-2.9278,-2.8477,-2.8138,-2.8146,-2.7607,-2.6937,-2.6198,-2.5646,-2.4655,-2.3349,-2.3172,-2.305,-2.2834,-2.1663,-2.1096,-2.1166,-2.0545,-2.013,-1.9959,-1.9929,-1.9763,-1.9503,-1.9494,-1.9436,-1.9314,-1.9734,-2.0155,-2.0571,-2.0562,-2.0736,-2.1106,-2.0713,-2.0478,-2.0581,-2.0581,-2.0805,-2.1315,-2.1394,-2.1067,-2.0412,-2.0394,-2.0422,-2.0294,-2.013,-2.0016,-1.9939,-1.9978,-1.994,-1.9851,-1.9901,-1.9876,-1.9673,-1.966,-1.9623,-1.951,-1.9585,-1.9547,-1.9584,-1.9532,-1.9467,-1.9488,-1.9289,-1.8919,-1.8895,-1.9032,-1.8677,-1.7702,-1.7519,-1.7103,-1.6199,-1.6078,-1.6166,-1.6178,-1.5617,-1.5366,-1.5404,-1.504,-1.4651,-1.4426,-1.4438,-1.4233,-1.3623,-1.336,-1.3131,-1.2747,-1.2639,-1.2572,-1.283,-1.3354,-1.3712,-3.8536,-3.8217,-3.8202,-3.8202,-3.8202,-3.8202,-3.8202,-3.8115,-3.7171,-3.6259,-3.5382,-3.4604,-3.4122,-3.3875,-3.2868,-3.2581,-3.2848,-3.1612,-3.1204,-3.1401,-3.0498,-3.0231,-3.0413,-2.974,-2.9383,-2.9338,-2.8791,-2.8573,-2.8567,-2.7941,-2.7396,-2.7004,-2.6159,-2.5172,-2.4232,-2.3852,-2.3689,-2.3676,-2.2729,-2.2162,-2.1985,-2.1482,-2.1113,-2.0785,-2.0632,-2.0459,-2.0273,-2.0529,-2.0616,-2.0507,-2.1036,-2.1445,-2.1668,-2.1655,-2.1616,-2.1511,-2.1263,-2.1145,-2.1132,-2.1433,-2.1721,-2.1957,-2.1983,-2.189,-2.1654,-2.1497,-2.1432,-2.1393,-2.0991,-2.0681,-2.0668,-2.0386,-2.0131,-2.0016,-1.999,-1.9952,-1.9837,-1.9798,-1.9798,-1.9798,-1.9798,-1.9798,-1.9798,-1.9747,-1.9708,-1.9682,-1.9408,-1.9146,-1.8922,-1.9081,-1.8859,-1.7629,-1.6931,-1.6402,-1.5876,-1.5859,-1.5925,-1.5937,-1.5678,-1.5466,-1.544,-1.5157,-1.4886,-1.4747,-1.4703,-1.4445,-1.3971,-1.37,-1.3378,-1.3013,-1.2675,-1.2591,-1.2674,-1.2704,-1.2899,-3.8899,-3.8434,-3.826,-3.8202,-3.8202,-3.8202,-3.8202,-3.8144,-3.7549,-3.6939,-3.6209,-3.5303,-3.4711,-3.4377,-3.3332,-3.3037,-3.3157,-3.2342,-3.1921,-3.1822,-3.1106,-3.0811,-3.0806,-3.0019,-2.961,-2.9565,-2.9168,-2.8908,-2.8821,-2.8284,-2.789,-2.761,-2.6633,-2.5792,-2.5208,-2.4733,-2.4421,-2.4272,-2.3838,-2.3347,-2.2814,-2.261,-2.2342,-2.1969,-2.1756,-2.1571,-2.141,-2.1783,-2.193,-2.1786,-2.2336,-2.2624,-2.2596,-2.2597,-2.2348,-2.1943,-2.1786,-2.1707,-2.1721,-2.2139,-2.2469,-2.2577,-2.2573,-2.2631,-2.2752,-2.2676,-2.2498,-2.2238,-2.1703,-2.1391,-2.1313,-2.0862,-2.0425,-2.0296,-2.0156,-2.0054,-1.9914,-1.9875,-1.9875,-1.9862,-1.9837,-1.9837,-1.9734,-1.9708,-1.9604,-1.9436,-1.9474,-1.937,-1.9042,-1.8831,-1.8228,-1.747,-1.648,-1.5934,-1.5799,-1.5703,-1.5681,-1.5671,-1.5669,-1.5611,-1.5486,-1.5257,-1.511,-1.505,-1.4902,-1.4658,-1.4324,-1.4062,-1.3691,-1.3219,-1.2861,-1.2662,-1.2407,-1.2335,-1.2391,-3.916,-3.9015,-3.8449,-3.8202,-3.8202,-3.8202,-3.8202,-3.813,-3.7564,-3.7251,-3.7026,-3.5697,-3.4917,-3.4519,-3.4335,-3.3931,-3.3368,-3.3178,-3.3094,-3.2974,-3.1935,-3.1696,-3.2013,-3.083,-3.0271,-3.0311,-2.9704,-2.9337,-2.9178,-2.9008,-2.852,-2.7723,-2.7023,-2.6416,-2.586,-2.5738,-2.5439,-2.4909,-2.4869,-2.4299,-2.3228,-2.312,-2.3093,-2.3078,-2.2999,-2.296,-2.2735,-2.2843,-2.2777,-2.2591,-2.3065,-2.3311,-2.3145,-2.3145,-2.3119,-2.2986,-2.2583,-2.2322,-2.2323,-2.2362,-2.2637,-2.3054,-2.3119,-2.3352,-2.3819,-2.3913,-2.3456,-2.2675,-2.2348,-2.2256,-2.2256,-2.172,-2.1316,-2.112,-2.0746,-2.0385,-2.0207,-2.0156,-2.0118,-1.999,-1.9952,-1.9849,-1.9591,-1.9512,-1.9225,-1.875,-1.9054,-1.9066,-1.8474,-1.7871,-1.7394,-1.7162,-1.6952,-1.6539,-1.583,-1.5536,-1.5525,-1.5513,-1.5536,-1.5513,-1.5456,-1.5444,-1.5453,-1.5311,-1.5359,-1.5132,-1.4806,-1.4495,-1.4102,-1.3462,-1.3054,-1.2723,-1.2373,-1.2276,-1.2423,-3.9523,-3.9146,-3.8492,-3.8202,-3.8202,-3.8202,-3.8202,-3.8173,-3.7955,-3.7825,-3.7738,-3.6823,-3.5949,-3.5188,-3.4739,-3.4263,-3.3838,-3.3824,-3.3627,-3.3276,-3.2792,-3.2511,-3.23,-3.1447,-3.104,-3.1092,-3.0648,-3.0425,-3.0257,-2.9785,-2.9077,-2.8252,-2.7637,-2.7054,-2.6457,-2.6077,-2.5794,-2.552,-2.5181,-2.4761,-2.4286,-2.392,-2.3567,-2.3229,-2.3189,-2.3135,-2.3057,-2.3326,-2.3446,-2.3296,-2.3715,-2.3934,-2.3863,-2.3762,-2.3589,-2.3234,-2.3014,-2.2884,-2.2871,-2.3197,-2.3498,-2.3717,-2.3731,-2.3877,-2.4086,-2.4125,-2.389,-2.3485,-2.308,-2.2871,-2.2818,-2.2374,-2.1994,-2.1809,-2.1341,-2.0901,-2.0746,-2.0425,-2.0195,-2.0105,-1.9965,-1.9901,-1.9823,-1.9668,-1.9303,-1.8842,-1.896,-1.8854,-1.8444,-1.8078,-1.7699,-1.7266,-1.7185,-1.6719,-1.5775,-1.5424,-1.539,-1.5402,-1.5458,-1.5468,-1.5311,-1.5468,-1.5536,-1.5413,-1.5424,-1.5354,-1.5111,-1.4783,-1.4409,-1.3822,-1.3197,-1.2777,-1.2399,-1.2258,-1.224,-3.9857,-3.9349,-3.8551,-3.8202,-3.8202,-3.8202,-3.8202,-3.8202,-3.8202,-3.8202,-3.8159,-3.7738,-3.7003,-3.6041,-3.5388,-3.4937,-3.4592,-3.466,-3.4273,-3.3599,-3.3543,-3.322,-3.2651,-3.2047,-3.1752,-3.1696,-3.1413,-3.123,-3.1054,-3.0361,-2.9662,-2.9081,-2.8492,-2.7908,-2.7298,-2.6701,-2.6212,-2.5873,-2.5453,-2.5168,-2.4936,-2.4584,-2.4164,-2.3743,-2.3703,-2.3636,-2.3568,-2.3959,-2.4118,-2.3964,-2.4237,-2.4334,-2.4247,-2.4157,-2.3887,-2.3496,-2.3402,-2.3373,-2.3373,-2.3848,-2.4067,-2.3936,-2.3995,-2.4054,-2.3995,-2.4054,-2.4083,-2.4031,-2.3621,-2.3316,-2.3264,-2.2906,-2.2566,-2.2363,-2.1831,-2.139,-2.1106,-2.0616,-2.0232,-2.0054,-1.9837,-1.9759,-1.9785,-1.9539,-1.9184,-1.8866,-1.8839,-1.8774,-1.8498,-1.8285,-1.7961,-1.7319,-1.7096,-1.6594,-1.573,-1.551,-1.5418,-1.5278,-1.5311,-1.5311,-1.5131,-1.5356,-1.5446,-1.5278,-1.5323,-1.53,-1.5163,-1.4905,-1.467,-1.4309,-1.3636,-1.2862,-1.2624,-1.2293,-1.21,-4.0089,-3.9871,-3.871,-3.8217,-3.8217,-3.8202,-3.8202,-3.8202,-3.8202,-3.8202,-3.8202,-3.8121,-3.7699,-3.6928,-3.6605,-3.6143,-3.5518,-3.5756,-3.5264,-3.4231,-3.4189,-3.3852,-3.322,-3.2665,-3.2398,-3.2364,-3.1929,-3.1405,-3.1005,-3.0583,-3.0364,-3.0235,-2.9645,-2.9075,-2.8432,-2.7823,-2.704,-2.6131,-2.5801,-2.5573,-2.5127,-2.499,-2.4922,-2.4881,-2.4896,-2.4814,-2.4841,-2.4909,-2.4809,-2.4538,-2.4565,-2.4447,-2.4141,-2.4083,-2.4057,-2.4018,-2.3914,-2.3826,-2.3842,-2.3969,-2.3936,-2.3599,-2.3848,-2.3966,-2.3717,-2.3865,-2.3995,-2.4083,-2.3682,-2.3526,-2.3487,-2.3212,-2.3,-2.2776,-2.2257,-2.1679,-2.1169,-2.0789,-2.0298,-1.9819,-1.9656,-1.9512,-1.9146,-1.8919,-1.8771,-1.8556,-1.8545,-1.8518,-1.8217,-1.7786,-1.7504,-1.7273,-1.6877,-1.6287,-1.5812,-1.5645,-1.5485,-1.5337,-1.5303,-1.5153,-1.5108,-1.5119,-1.5119,-1.5131,-1.5165,-1.5153,-1.5131,-1.5004,-1.4819,-1.4362,-1.3595,-1.2992,-1.2846,-1.2238,-1.1968,-4.0481,-3.9973,-3.8725,-3.8449,-3.8783,-3.8391,-3.8202,-3.8165,-3.7915,-3.7938,-3.8127,-3.7938,-3.7558,-3.722,-3.7244,-3.6612,-3.5597,-3.6061,-3.5765,-3.495,-3.5222,-3.5082,-3.4506,-3.4289,-3.3844,-3.3373,-3.3136,-3.2463,-3.1548,-3.1256,-3.0834,-3.0304,-3.0123,-2.968,-2.8839,-2.8249,-2.7647,-2.6992,-2.5918,-2.5409,-2.5737,-2.5472,-2.5314,-2.5425,-2.5154,-2.5005,-2.5005,-2.5005,-2.485,-2.4536,-2.4578,-2.4432,-2.3995,-2.3848,-2.3776,-2.3776,-2.3848,-2.3832,-2.376,-2.3848,-2.392,-2.3743,-2.3671,-2.3671,-2.3599,-2.3539,-2.348,-2.345,-2.3378,-2.3228,-2.3095,-2.3098,-2.3191,-2.3186,-2.2607,-2.1948,-2.1405,-2.0907,-2.036,-1.9884,-1.9708,-1.9474,-1.8987,-1.8866,-1.8732,-1.834,-1.8259,-1.822,-1.8127,-1.7874,-1.7695,-1.7625,-1.7355,-1.6957,-1.6542,-1.599,-1.5643,-1.5555,-1.5441,-1.5223,-1.512,-1.5119,-1.5119,-1.5062,-1.5074,-1.5119,-1.5108,-1.5017,-1.4834,-1.4467,-1.368,-1.3135,-1.3098,-1.241,-1.2014,-4.0288,-3.9348,-3.8832,-3.8649,-3.873,-3.8481,-3.8332,-3.8265,-3.7811,-3.7878,-3.816,-3.7749,-3.738,-3.7226,-3.7211,-3.6711,-3.5864,-3.623,-3.5975,-3.533,-3.5527,-3.544,-3.505,-3.4966,-3.4581,-3.3956,-3.3698,-3.2896,-3.174,-3.1591,-3.1177,-3.0446,-3.0375,-2.9966,-2.9292,-2.8671,-2.8164,-2.7464,-2.6294,-2.5858,-2.6056,-2.5712,-2.5581,-2.5633,-2.5375,-2.5213,-2.5228,-2.498,-2.4758,-2.4575,-2.4424,-2.4187,-2.3819,-2.3641,-2.3539,-2.3599,-2.37,-2.3671,-2.3569,-2.3713,-2.373,-2.3595,-2.3492,-2.3403,-2.339,-2.3185,-2.3125,-2.3078,-2.2987,-2.2909,-2.2848,-2.2818,-2.2939,-2.3173,-2.2782,-2.2226,-2.169,-2.1017,-2.0318,-1.9673,-1.95,-1.9239,-1.8881,-1.8893,-1.8706,-1.8247,-1.8205,-1.8166,-1.7947,-1.7975,-1.7843,-1.7639,-1.7534,-1.7285,-1.693,-1.6402,-1.6009,-1.5871,-1.5609,-1.5359,-1.5222,-1.5188,-1.5074,-1.5028,-1.5028,-1.5074,-1.5051,-1.4971,-1.4733,-1.4449,-1.3826,-1.3149,-1.29,-1.2505,-1.2147,-3.9481,-3.8404,-3.9039,-3.8925,-3.8288,-3.8478,-3.8607,-3.8435,-3.7872,-3.789,-3.821,-3.7621,-3.7109,-3.69,-3.6598,-3.6292,-3.6105,-3.616,-3.5965,-3.543,-3.5104,-3.4897,-3.4672,-3.471,-3.4451,-3.3905,-3.3311,-3.2431,-3.1455,-3.1482,-3.1318,-3.0919,-3.0424,-3.0131,-3.0048,-2.9179,-2.8383,-2.7643,-2.7084,-2.6538,-2.5845,-2.5762,-2.5743,-2.5764,-2.5754,-2.5702,-2.5696,-2.5008,-2.4675,-2.4697,-2.4283,-2.387,-2.3718,-2.3556,-2.3488,-2.3509,-2.3463,-2.3403,-2.3403,-2.3509,-2.342,-2.315,-2.3223,-2.321,-2.3,-2.2987,-2.3017,-2.2957,-2.2818,-2.2769,-2.2878,-2.2574,-2.2432,-2.2647,-2.2665,-2.2358,-2.1837,-2.1115,-2.0213,-1.9365,-1.9177,-1.9037,-1.8972,-1.8839,-1.8637,-1.8422,-1.8286,-1.8123,-1.7783,-1.7854,-1.7717,-1.7346,-1.7262,-1.728,-1.7038,-1.6781,-1.6462,-1.6192,-1.5852,-1.5554,-1.5487,-1.5419,-1.5147,-1.5045,-1.4753,-1.4788,-1.4697,-1.4593,-1.4489,-1.4156,-1.3594,-1.3159,-1.2911,-1.2581,-1.2236,-4.0191,-3.9816,-3.9579,-3.9369,-3.9086,-3.8871,-3.8488,-3.8065,-3.7615,-3.7433,-3.7391,-3.6934,-3.6457,-3.623,-3.6189,-3.583,-3.5073,-3.5358,-3.5548,-3.5532,-3.5425,-3.537,-3.5326,-3.5298,-3.5003,-3.4161,-3.2978,-3.2275,-3.1967,-3.1479,-3.1005,-3.0752,-3.0736,-3.0331,-2.972,-2.908,-2.849,-2.797,-2.6747,-2.6204,-2.649,-2.6239,-2.6096,-2.6238,-2.6304,-2.633,-2.6217,-2.5643,-2.5274,-2.5119,-2.5058,-2.4708,-2.4155,-2.3882,-2.3613,-2.3213,-2.3313,-2.3283,-2.3133,-2.3283,-2.333,-2.309,-2.2982,-2.2891,-2.2769,-2.2598,-2.2537,-2.2494,-2.2402,-2.2402,-2.2432,-2.234,-2.2352,-2.2678,-2.2494,-2.2165,-2.1643,-2.1017,-2.0322,-1.972,-1.9528,-1.9369,-1.8959,-1.8714,-1.8484,-1.8232,-1.8068,-1.7838,-1.7799,-1.7661,-1.77,-1.7507,-1.7423,-1.7162,-1.6952,-1.6776,-1.6579,-1.6304,-1.603,-1.5758,-1.567,-1.5568,-1.5322,-1.5017,-1.4695,-1.4473,-1.4393,-1.4176,-1.4022,-1.3765,-1.3242,-1.3034,-1.3019,-1.2701,-1.224,-4.0097,-3.9853,-3.9732,-3.948,-3.9255,-3.8964,-3.8699,-3.8295,-3.7812,-3.7646,-3.7614,-3.6942,-3.6373,-3.6035,-3.5845,-3.5332,-3.4688,-3.4825,-3.4977,-3.5182,-3.5223,-3.5304,-3.5399,-3.5304,-3.4915,-3.422,-3.3172,-3.2463,-3.2169,-3.1655,-3.1112,-3.0718,-3.0752,-3.0458,-2.9668,-2.9206,-2.88,-2.8123,-2.707,-2.6549,-2.668,-2.6485,-2.6384,-2.6488,-2.6526,-2.6552,-2.648,-2.6182,-2.5819,-2.5453,-2.5326,-2.488,-2.421,-2.4029,-2.3679,-2.3106,-2.3072,-2.3103,-2.2891,-2.3012,-2.3215,-2.3175,-2.3034,-2.288,-2.2849,-2.2643,-2.2438,-2.2234,-2.2197,-2.2197,-2.2197,-2.2197,-2.2278,-2.2475,-2.234,-2.1957,-2.1488,-2.1127,-2.0665,-2.0233,-1.9997,-1.9622,-1.914,-1.8756,-1.8405,-1.8082,-1.7822,-1.7573,-1.7551,-1.7429,-1.7396,-1.7323,-1.7099,-1.692,-1.6853,-1.6729,-1.6637,-1.6422,-1.6175,-1.594,-1.5784,-1.5694,-1.5495,-1.5153,-1.483,-1.4497,-1.435,-1.3714,-1.3348,-1.3067,-1.2909,-1.2755,-1.2632,-1.2454,-1.211,-3.9445,-3.8659,-3.9573,-3.942,-3.8662,-3.8939,-3.9028,-3.8904,-3.8379,-3.8351,-3.8475,-3.7441,-3.677,-3.6332,-3.5557,-3.5151,-3.4962,-3.466,-3.4535,-3.4522,-3.4522,-3.4701,-3.4949,-3.4688,-3.4342,-3.399,-3.3496,-3.2856,-3.2192,-3.1901,-3.1523,-3.0886,-3.08,-3.0421,-2.9945,-2.9643,-2.9046,-2.828,-2.7827,-2.7256,-2.6647,-2.6508,-2.6496,-2.6487,-2.653,-2.6517,-2.6483,-2.6429,-2.6181,-2.5707,-2.528,-2.4885,-2.4255,-2.4067,-2.3779,-2.307,-2.2958,-2.294,-2.2806,-2.2978,-2.3146,-2.3559,-2.345,-2.3259,-2.3259,-2.3131,-2.2855,-2.239,-2.2318,-2.2258,-2.2234,-2.2197,-2.2197,-2.2197,-2.2154,-2.1908,-2.156,-2.1404,-2.1051,-2.0657,-2.0321,-1.993,-1.942,-1.9049,-1.8492,-1.8036,-1.774,-1.7434,-1.7172,-1.7078,-1.692,-1.6835,-1.679,-1.6705,-1.6637,-1.6609,-1.6477,-1.6334,-1.612,-1.5918,-1.57,-1.5589,-1.5447,-1.5133,-1.4794,-1.4489,-1.4055,-1.3402,-1.2988,-1.2841,-1.2647,-1.2416,-1.2282,-1.217,-1.2048,-4.0049,-3.919,-3.9766,-3.9637,-3.9119,-3.9207,-3.8978,-3.8596,-3.8433,-3.8215,-3.7886,-3.7517,-3.6957,-3.637,-3.6029,-3.554,-3.4959,-3.4756,-3.4577,-3.4397,-3.4397,-3.4439,-3.4522,-3.4327,-3.4124,-3.3957,-3.3331,-3.288,-3.2866,-3.2086,-3.1685,-3.1775,-3.1348,-3.0909,-3.0434,-2.9933,-2.9391,-2.8649,-2.7805,-2.7397,-2.7125,-2.67,-2.6499,-2.6487,-2.6499,-2.6487,-2.6487,-2.6487,-2.6449,-2.6298,-2.616,-2.5808,-2.5159,-2.4795,-2.4248,-2.3611,-2.3231,-2.3181,-2.3412,-2.3561,-2.3866,-2.4211,-2.4079,-2.3949,-2.3806,-2.3643,-2.3324,-2.2939,-2.2794,-2.2606,-2.2306,-2.2166,-2.2166,-2.2166,-2.1937,-2.1834,-2.187,-2.1525,-2.1109,-2.0823,-2.0531,-2.0114,-1.9546,-1.8982,-1.8469,-1.8131,-1.7717,-1.7351,-1.7117,-1.6864,-1.6751,-1.6694,-1.6648,-1.6534,-1.6459,-1.6431,-1.6335,-1.6171,-1.5983,-1.5771,-1.5485,-1.5209,-1.5039,-1.4797,-1.4496,-1.4195,-1.3636,-1.3007,-1.2799,-1.2662,-1.2425,-1.2246,-1.2184,-1.208,-1.1947,-4.024,-3.9703,-3.971,-3.9707,-3.9617,-3.9414,-3.9115,-3.8844,-3.879,-3.8464,-3.7905,-3.7567,-3.7062,-3.6328,-3.5935,-3.546,-3.4865,-3.4673,-3.4535,-3.4384,-3.4314,-3.4314,-3.4314,-3.4118,-3.3992,-3.4008,-3.3292,-3.3149,-3.3191,-3.2504,-3.2244,-3.2114,-3.1901,-3.1361,-3.0608,-3.0319,-2.9729,-2.8938,-2.826,-2.7896,-2.7607,-2.7128,-2.6876,-2.6776,-2.6663,-2.6487,-2.6487,-2.6487,-2.6487,-2.6487,-2.6461,-2.6223,-2.5636,-2.5322,-2.4798,-2.4146,-2.3829,-2.3841,-2.3926,-2.4089,-2.435,-2.4653,-2.4632,-2.4441,-2.4287,-2.4073,-2.3702,-2.34,-2.292,-2.2526,-2.2329,-2.2017,-2.1792,-2.1706,-2.1443,-2.1474,-2.1894,-2.1494,-2.1178,-2.0989,-2.0718,-2.0208,-1.9553,-1.8881,-1.8407,-1.7966,-1.7455,-1.7272,-1.7127,-1.6846,-1.662,-1.6591,-1.6449,-1.6278,-1.6202,-1.6202,-1.6,-1.5836,-1.5507,-1.5362,-1.5264,-1.4955,-1.4983,-1.4771,-1.4314,-1.39,-1.3528,-1.3133,-1.2779,-1.2571,-1.2279,-1.209,-1.2027,-1.1927,-1.1778,-4.0296,-4.0146,-3.9617,-3.9658,-3.9929,-3.9536,-3.9278,-3.9292,-3.9251,-3.8979,-3.8477,-3.7865,-3.7238,-3.6382,-3.584,-3.5151,-3.4852,-3.4632,-3.4494,-3.4369,-3.4243,-3.4202,-3.4285,-3.3894,-3.381,-3.3865,-3.3569,-3.3373,-3.3288,-3.3079,-3.2767,-3.2478,-3.2328,-3.1775,-3.1148,-3.0846,-3.0181,-2.9402,-2.9063,-2.8662,-2.8197,-2.767,-2.7394,-2.7341,-2.6901,-2.6612,-2.6524,-2.6487,-2.6487,-2.6487,-2.6487,-2.6248,-2.5762,-2.5674,-2.5306,-2.4821,-2.4576,-2.4462,-2.4439,-2.4485,-2.4607,-2.4948,-2.4935,-2.482,-2.4614,-2.4257,-2.3918,-2.3625,-2.2719,-2.241,-2.2194,-2.1728,-2.1444,-2.1299,-2.0903,-2.0987,-2.1336,-2.1285,-2.1094,-2.1094,-2.0764,-2.0145,-1.9482,-1.8876,-1.84,-1.7946,-1.7436,-1.7205,-1.7032,-1.6779,-1.6591,-1.6449,-1.622,-1.5972,-1.5943,-1.5943,-1.5682,-1.542,-1.4941,-1.4754,-1.4951,-1.4876,-1.5031,-1.4887,-1.4334,-1.41,-1.4035,-1.358,-1.2951,-1.2573,-1.2315,-1.2041,-1.1813,-1.1706,-1.1578,-4.1055,-4.0173,-4.0065,-3.9794,-3.9509,-3.9359,-3.9305,-3.9305,-3.9305,-3.9197,-3.8966,-3.842,-3.7811,-3.713,-3.6286,-3.5691,-3.4989,-3.4743,-3.4618,-3.4356,-3.4202,-3.4118,-3.4076,-3.3696,-3.3513,-3.3526,-3.3326,-3.321,-3.3167,-3.3154,-3.3031,-3.2893,-3.2767,-3.2528,-3.1926,-3.1687,-3.1336,-3.0369,-2.9854,-2.9365,-2.8825,-2.8285,-2.7959,-2.7858,-2.7381,-2.6892,-2.6575,-2.6487,-2.6487,-2.6487,-2.644,-2.633,-2.6189,-2.5816,-2.5519,-2.5323,-2.4953,-2.4817,-2.4929,-2.5073,-2.5179,-2.4999,-2.5071,-2.5003,-2.4578,-2.4305,-2.3942,-2.3607,-2.3225,-2.2674,-2.2099,-2.1891,-2.1518,-2.1158,-2.083,-2.0635,-2.0775,-2.0582,-2.0529,-2.0582,-2.0442,-1.9986,-1.9425,-1.8997,-1.849,-1.7923,-1.7566,-1.7249,-1.697,-1.6736,-1.6524,-1.6363,-1.6019,-1.5788,-1.5759,-1.5701,-1.5439,-1.5117,-1.4645,-1.4228,-1.4428,-1.4517,-1.4577,-1.4508,-1.4314,-1.4152,-1.402,-1.3548,-1.2828,-1.261,-1.236,-1.2008,-1.1731,-1.1567,-1.1301,-4.1625,-4.0987,-4.0431,-4.0173,-4.0065,-3.9563,-3.9305,-3.9305,-3.9305,-3.9142,-3.8827,-3.8401,-3.772,-3.677,-3.6211,-3.5535,-3.4931,-3.466,-3.4535,-3.4356,-3.4202,-3.4034,-3.3823,-3.3526,-3.327,-3.3356,-3.3185,-3.3111,-3.3124,-3.3124,-3.3124,-3.3124,-3.3124,-3.2717,-3.2303,-3.2215,-3.175,-3.111,-3.0708,-3.0269,-2.969,-2.9189,-2.8462,-2.8026,-2.7591,-2.7169,-2.6671,-2.6609,-2.6447,-2.6285,-2.6154,-2.6211,-2.6336,-2.5856,-2.5592,-2.562,-2.5302,-2.5102,-2.5235,-2.533,-2.53,-2.5004,-2.5016,-2.4838,-2.4491,-2.4177,-2.3952,-2.3678,-2.3204,-2.254,-2.1845,-2.1509,-2.1318,-2.1083,-2.0651,-2.0378,-2.0324,-2.0205,-2.0151,-2.0302,-2.0205,-1.9878,-1.9453,-1.9082,-1.8666,-1.8151,-1.7973,-1.7626,-1.7026,-1.6775,-1.6452,-1.621,-1.5865,-1.5633,-1.5604,-1.5488,-1.5254,-1.4902,-1.4488,-1.407,-1.3941,-1.3971,-1.401,-1.3971,-1.3932,-1.3837,-1.3652,-1.3173,-1.2898,-1.2692,-1.2423,-1.1978,-1.1567,-1.1257,-1.1005,-4.1937,-4.168,-4.0651,-4.0448,-4.051,-3.9501,-3.9069,-3.9185,-3.9216,-3.8853,-3.8324,-3.8071,-3.7304,-3.6247,-3.571,-3.5116,-3.4578,-3.4315,-3.424,-3.4198,-3.3904,-3.3798,-3.3581,-3.3399,-3.3269,-3.3354,-3.3093,-3.3038,-3.3025,-3.3025,-3.2982,-3.3038,-3.3038,-3.2727,-3.2326,-3.2243,-3.1976,-3.1422,-3.1297,-3.101,-3.0498,-2.9949,-2.9123,-2.8126,-2.7792,-2.741,-2.7028,-2.6831,-2.6599,-2.6047,-2.5775,-2.5924,-2.6037,-2.5781,-2.5418,-2.5769,-2.5402,-2.5227,-2.5168,-2.5216,-2.5158,-2.4909,-2.4731,-2.4515,-2.4227,-2.3838,-2.3692,-2.3506,-2.3114,-2.2388,-2.1791,-2.1565,-2.1214,-2.0895,-2.0467,-2.0227,-2.0118,-2.0118,-2.0118,-2.0118,-2.0118,-1.9889,-1.9563,-1.9174,-1.878,-1.839,-1.8231,-1.7932,-1.7334,-1.6789,-1.6458,-1.61,-1.5761,-1.5352,-1.5245,-1.5157,-1.4931,-1.4636,-1.4249,-1.3881,-1.3519,-1.3407,-1.3467,-1.358,-1.3563,-1.3476,-1.3377,-1.3107,-1.2889,-1.276,-1.2336,-1.1712,-1.1295,-1.092,-1.0655,-4.1518,-4.0656,-4.0455,-3.986,-3.8994,-3.8311,-3.8336,-3.8679,-3.8737,-3.84,-3.7943,-3.7553,-3.7098,-3.6363,-3.5474,-3.4889,-3.4508,-3.4261,-3.4027,-3.3938,-3.3624,-3.3419,-3.3608,-3.3526,-3.3394,-3.3182,-3.2934,-3.2829,-3.2766,-3.2754,-3.2766,-3.2766,-3.2766,-3.2599,-3.2488,-3.2463,-3.2208,-3.1702,-3.1573,-3.1302,-3.0741,-3.0112,-2.9394,-2.8369,-2.8157,-2.7826,-2.7483,-2.7324,-2.7103,-2.6576,-2.6082,-2.5829,-2.5728,-2.5478,-2.536,-2.5347,-2.5276,-2.5076,-2.4945,-2.5111,-2.4826,-2.4358,-2.4213,-2.402,-2.3618,-2.3324,-2.3261,-2.3202,-2.3088,-2.2673,-2.2248,-2.2007,-2.1625,-2.1155,-2.0783,-2.0554,-2.0271,-2.0118,-2.0085,-2.002,-1.9998,-1.9933,-1.9576,-1.9233,-1.8807,-1.8449,-1.8239,-1.7957,-1.7462,-1.6931,-1.6497,-1.6108,-1.5713,-1.5263,-1.4863,-1.4745,-1.4567,-1.4339,-1.398,-1.361,-1.3277,-1.292,-1.2889,-1.3133,-1.3216,-1.3177,-1.3064,-1.2889,-1.2679,-1.2442,-1.1957,-1.1428,-1.1007,-1.0643,-1.0314,-4.098,-4.0412,-3.977,-3.9203,-3.8629,-3.8031,-3.7959,-3.8167,-3.8167,-3.805,-3.7743,-3.7352,-3.6884,-3.6282,-3.5656,-3.5035,-3.4573,-3.436,-3.4197,-3.4097,-3.3946,-3.382,-3.3838,-3.3761,-3.3396,-3.3065,-3.2815,-3.2653,-3.2574,-3.255,-3.2562,-3.255,-3.255,-3.2475,-3.2444,-3.2438,-3.2315,-3.1994,-3.1902,-3.1657,-3.1038,-3.0286,-2.9462,-2.908,-2.8563,-2.8171,-2.772,-2.7598,-2.7343,-2.6844,-2.6427,-2.6017,-2.5659,-2.542,-2.5217,-2.5088,-2.4873,-2.4694,-2.4526,-2.4658,-2.4442,-2.4043,-2.3934,-2.3703,-2.3372,-2.315,-2.3038,-2.3001,-2.299,-2.2925,-2.2684,-2.2466,-2.2095,-2.1688,-2.1246,-2.0832,-2.0496,-2.0133,-1.9961,-1.9866,-1.9769,-1.9672,-1.9586,-1.9221,-1.8846,-1.8526,-1.8241,-1.7938,-1.7584,-1.6996,-1.6415,-1.5909,-1.5496,-1.5085,-1.4656,-1.4478,-1.4291,-1.4031,-1.3799,-1.3437,-1.3133,-1.2867,-1.2775,-1.2867,-1.2889,-1.2858,-1.2705,-1.2521,-1.2336,-1.2128,-1.1737,-1.1314,-1.0782,-1.0359,-1.006,-4.0298,-4.0089,-3.8999,-3.8504,-3.8275,-3.7753,-3.7546,-3.7638,-3.7671,-3.7579,-3.75,-3.715,-3.6688,-3.6105,-3.5562,-3.5037,-3.4636,-3.4541,-3.4396,-3.4359,-3.421,-3.4189,-3.4188,-3.3882,-3.3457,-3.3074,-3.2726,-3.2605,-3.2342,-3.23,-3.2313,-3.23,-3.23,-3.2313,-3.2257,-3.2257,-3.23,-3.2257,-3.2245,-3.1963,-3.1241,-3.045,-2.9808,-2.9687,-2.9012,-2.8502,-2.8189,-2.7972,-2.7621,-2.7172,-2.6766,-2.6387,-2.5787,-2.5494,-2.5212,-2.4807,-2.4415,-2.4282,-2.4363,-2.4248,-2.4294,-2.4223,-2.3807,-2.3578,-2.3383,-2.3187,-2.3001,-2.3001,-2.3001,-2.299,-2.2892,-2.2673,-2.2361,-2.1981,-2.141,-2.0906,-2.0533,-2.0164,-1.9697,-1.9573,-1.9481,-1.9396,-1.93,-1.906,-1.866,-1.8517,-1.824,-1.8045,-1.7652,-1.6872,-1.6297,-1.5697,-1.5229,-1.4849,-1.4517,-1.43,-1.4091,-1.3842,-1.3649,-1.3415,-1.3141,-1.2867,-1.2805,-1.2683,-1.2529,-1.2459,-1.2344,-1.2189,-1.2034,-1.1827,-1.1571,-1.1093,-1.0371,-1.0023,-0.9813,-3.9462,-3.8935,-3.8354,-3.7767,-3.7296,-3.6819,-3.6815,-3.7142,-3.7201,-3.6922,-3.6675,-3.6687,-3.6355,-3.5699,-3.5161,-3.4848,-3.4667,-3.4376,-3.4264,-3.4216,-3.3936,-3.3914,-3.3967,-3.3546,-3.3532,-3.3256,-3.2825,-3.2381,-3.2164,-3.2098,-3.2081,-3.2025,-3.2025,-3.1981,-3.1893,-3.1994,-3.1937,-3.1805,-3.1793,-3.154,-3.1093,-3.0797,-3.0447,-3.0049,-2.9501,-2.9088,-2.8859,-2.8546,-2.8023,-2.7433,-2.7183,-2.669,-2.6073,-2.5777,-2.5375,-2.4915,-2.4558,-2.4372,-2.4648,-2.4487,-2.4487,-2.4511,-2.4129,-2.3708,-2.342,-2.3198,-2.3001,-2.3001,-2.3001,-2.2927,-2.2889,-2.2909,-2.2511,-2.1979,-2.1384,-2.0919,-2.0519,-1.9924,-1.9517,-1.927,-1.9147,-1.9088,-1.9016,-1.8761,-1.8529,-1.8405,-1.8269,-1.8051,-1.7711,-1.698,-1.6179,-1.5602,-1.5252,-1.4878,-1.4472,-1.4243,-1.4003,-1.3735,-1.3467,-1.3333,-1.3141,-1.2897,-1.2621,-1.2467,-1.2305,-1.212,-1.1996,-1.1872,-1.1755,-1.1509,-1.1191,-1.0551,-0.978,-0.9619,-0.9611,-3.8879,-3.8271,-3.7457,-3.6963,-3.6713,-3.6499,-3.6499,-3.6687,-3.6687,-3.6593,-3.6405,-3.6323,-3.5943,-3.5368,-3.4969,-3.4811,-3.4727,-3.4522,-3.4438,-3.4402,-3.4234,-3.4246,-3.439,-3.421,-3.4078,-3.3645,-3.3416,-3.2981,-3.2494,-3.2019,-3.1849,-3.1849,-3.1849,-3.1793,-3.1705,-3.1805,-3.1805,-3.1749,-3.1693,-3.1597,-3.1356,-3.1079,-3.0771,-3.0506,-2.9749,-2.94,-2.9196,-2.8799,-2.8319,-2.7886,-2.7755,-2.7321,-2.6671,-2.634,-2.6066,-2.5417,-2.5199,-2.5001,-2.4863,-2.468,-2.4886,-2.5009,-2.4563,-2.3892,-2.3446,-2.3113,-2.2852,-2.2665,-2.2889,-2.2815,-2.2515,-2.2553,-2.2307,-2.1829,-2.1303,-2.1073,-2.055,-1.9758,-1.9259,-1.9043,-1.8847,-1.8801,-1.8751,-1.8546,-1.836,-1.8291,-1.8095,-1.7847,-1.7567,-1.712,-1.6317,-1.5512,-1.5236,-1.5006,-1.4568,-1.4237,-1.4088,-1.3774,-1.331,-1.3197,-1.315,-1.2928,-1.256,-1.2251,-1.2027,-1.184,-1.1654,-1.156,-1.1498,-1.1185,-1.08,-1.0247,-0.9697,-0.9575,-0.9482,-3.853,-3.7914,-3.7021,-3.6606,-3.6593,-3.6468,-3.6417,-3.6405,-3.631,-3.6323,-3.6193,-3.5955,-3.5572,-3.5223,-3.4969,-3.4775,-3.4763,-3.4775,-3.4775,-3.4775,-3.4775,-3.4727,-3.4631,-3.4595,-3.4294,-3.3994,-3.3717,-3.332,-3.2755,-3.2259,-3.191,-3.1729,-3.1761,-3.1705,-3.1705,-3.1717,-3.1705,-3.1705,-3.1705,-3.1693,-3.1609,-3.132,-3.1187,-3.0771,-3.0158,-2.9484,-2.94,-2.8823,-2.8431,-2.8195,-2.8051,-2.7651,-2.7051,-2.6834,-2.6523,-2.6053,-2.583,-2.5627,-2.531,-2.5123,-2.5314,-2.5306,-2.4837,-2.3887,-2.3152,-2.2927,-2.2777,-2.2478,-2.2478,-2.2289,-2.2063,-2.2111,-2.1956,-2.1628,-2.124,-2.108,-2.0819,-1.9886,-1.9292,-1.915,-1.8903,-1.8542,-1.8468,-1.8339,-1.8236,-1.8169,-1.7949,-1.7672,-1.7335,-1.7035,-1.6459,-1.5666,-1.5478,-1.5223,-1.4789,-1.4423,-1.4186,-1.3822,-1.3355,-1.3151,-1.3184,-1.2778,-1.2305,-1.2027,-1.1778,-1.1373,-1.1059,-1.1153,-1.1209,-1.0832,-1.0458,-1.0163,-0.9821,-0.9629,-0.9217,-3.853,-3.7965,-3.7387,-3.7086,-3.7036,-3.6619,-3.6417,-3.6358,-3.6146,-3.6051,-3.5955,-3.5512,-3.5271,-3.5138,-3.4981,-3.4835,-3.4775,-3.4775,-3.4799,-3.4799,-3.4775,-3.4775,-3.4679,-3.4426,-3.4138,-3.3994,-3.3885,-3.3585,-3.3164,-3.2803,-3.2238,-3.1789,-3.1789,-3.1741,-3.1705,-3.1705,-3.1705,-3.1705,-3.1705,-3.1705,-3.1705,-3.1609,-3.1597,-3.138,-3.0639,-3.0013,-2.9977,-2.9083,-2.8487,-2.8286,-2.7973,-2.7817,-2.7359,-2.7036,-2.6662,-2.6531,-2.6257,-2.6018,-2.5752,-2.5509,-2.5548,-2.5492,-2.4859,-2.3694,-2.288,-2.259,-2.244,-2.2289,-2.2138,-2.1949,-2.1797,-2.1807,-2.1655,-2.1298,-2.0959,-2.0803,-2.0506,-1.994,-1.9375,-1.9277,-1.901,-1.866,-1.8556,-1.8533,-1.8357,-1.8273,-1.7906,-1.7618,-1.7141,-1.6814,-1.6438,-1.596,-1.5776,-1.5476,-1.5041,-1.4724,-1.4453,-1.396,-1.3466,-1.3369,-1.3385,-1.283,-1.1848,-1.1716,-1.1435,-1.0965,-1.0581,-1.0762,-1.0744,-1.0423,-1.0129,-0.9888,-0.9619,-0.9364,-0.8813,-3.8944,-3.8956,-3.8078,-3.7299,-3.6707,-3.6493,-3.6417,-3.6358,-3.6098,-3.586,-3.5716,-3.5368,-3.5175,-3.5199,-3.5282,-3.5112,-3.4871,-3.5196,-3.5064,-3.4907,-3.4775,-3.4775,-3.4667,-3.4607,-3.4486,-3.4402,-3.4258,-3.4006,-3.3729,-3.3394,-3.3152,-3.2683,-3.2126,-3.1765,-3.1705,-3.1729,-3.1705,-3.1705,-3.1705,-3.1705,-3.1705,-3.1705,-3.1705,-3.1621,-3.1079,-3.0645,-3.0422,-2.9231,-2.8809,-2.8409,-2.7749,-2.751,-2.7348,-2.6951,-2.6767,-2.6718,-2.6441,-2.6185,-2.6106,-2.5748,-2.54,-2.4574,-2.4014,-2.3349,-2.2567,-2.2143,-2.1883,-2.1759,-2.1783,-2.174,-2.1138,-2.1244,-2.1272,-2.0914,-2.072,-2.0565,-2.0273,-1.9827,-1.9482,-1.9385,-1.9149,-1.8866,-1.8847,-1.8829,-1.8625,-1.8382,-1.8005,-1.7577,-1.7139,-1.6847,-1.6545,-1.6315,-1.6139,-1.593,-1.5528,-1.5109,-1.4681,-1.4164,-1.359,-1.3404,-1.3211,-1.198,-1.1192,-1.1153,-1.114,-1.0712,-1.0483,-1.0438,-1.0361,-1.0161,-0.9963,-0.9697,-0.9396,-0.9095,-0.8509,-3.9158,-3.9295,-3.8228,-3.7425,-3.686,-3.6719,-3.6543,-3.637,-3.6098,-3.5764,-3.5476,-3.5235,-3.5066,-3.5138,-3.5234,-3.5196,-3.4919,-3.5112,-3.5015,-3.4883,-3.4775,-3.4775,-3.4775,-3.4751,-3.4703,-3.4775,-3.4751,-3.451,-3.4234,-3.4066,-3.373,-3.326,-3.2647,-3.2295,-3.1958,-3.1777,-3.1717,-3.1705,-3.1705,-3.1705,-3.1705,-3.1705,-3.1705,-3.1633,-3.1151,-3.0769,-3.0369,-2.9484,-2.8786,-2.8332,-2.781,-2.7298,-2.7008,-2.6775,-2.6569,-2.6509,-2.6396,-2.601,-2.5942,-2.5744,-2.506,-2.426,-2.3819,-2.3146,-2.2439,-2.2084,-2.1993,-2.1796,-2.1805,-2.1577,-2.0948,-2.1224,-2.1223,-2.0968,-2.0712,-2.0556,-2.0362,-2.0005,-1.9735,-1.9496,-1.9269,-1.909,-1.889,-1.8872,-1.8749,-1.8512,-1.8269,-1.7845,-1.7352,-1.7107,-1.6989,-1.6722,-1.6519,-1.6316,-1.609,-1.5386,-1.4734,-1.4462,-1.3878,-1.3297,-1.2749,-1.1613,-1.1021,-1.123,-1.108,-1.0542,-1.041,-1.043,-1.025,-1.0023,-0.9833,-0.9631,-0.9219,-0.8891,-0.8365,-3.8894,-3.8743,-3.7775,-3.7525,-3.7814,-3.7362,-3.6835,-3.6411,-3.6063,-3.5668,-3.5223,-3.492,-3.4823,-3.4859,-3.5016,-3.4943,-3.4859,-3.4944,-3.4919,-3.4823,-3.4775,-3.4775,-3.4775,-3.4775,-3.4775,-3.4775,-3.4763,-3.4739,-3.4679,-3.433,-3.4054,-3.3862,-3.3416,-3.2911,-3.2478,-3.197,-3.1729,-3.1729,-3.1765,-3.1705,-3.1705,-3.1705,-3.1717,-3.1464,-3.1177,-3.0787,-3.024,-2.9589,-2.8916,-2.8391,-2.7804,-2.7341,-2.702,-2.6485,-2.6274,-2.6249,-2.5979,-2.5633,-2.5263,-2.521,-2.4703,-2.4012,-2.3577,-2.3186,-2.292,-2.2646,-2.2281,-2.201,-2.2008,-2.1924,-2.165,-2.1484,-2.1259,-2.1093,-2.0849,-2.0498,-2.0312,-2.0041,-1.9754,-1.9524,-1.9483,-1.9375,-1.9041,-1.8826,-1.8779,-1.862,-1.8462,-1.8073,-1.7568,-1.7404,-1.734,-1.6962,-1.6678,-1.6377,-1.6027,-1.5334,-1.4806,-1.4588,-1.4081,-1.334,-1.2699,-1.1919,-1.1533,-1.1485,-1.1019,-1.0487,-1.0436,-1.0447,-1.0258,-1.0101,-0.985,-0.9576,-0.9146,-0.8629,-0.8054,-3.9133,-3.932,-3.8191,-3.8065,-3.8354,-3.6992,-3.6482,-3.6474,-3.5828,-3.5271,-3.4969,-3.4823,-3.4775,-3.4907,-3.5124,-3.5075,-3.4859,-3.5268,-3.5268,-3.4787,-3.4775,-3.4775,-3.4775,-3.4775,-3.4775,-3.4775,-3.4775,-3.4775,-3.4751,-3.4522,-3.4522,-3.439,-3.3875,-3.3525,-3.2899,-3.2331,-3.1849,-3.207,-3.1958,-3.1705,-3.1705,-3.1673,-3.1484,-3.116,-3.0947,-3.0643,-3.0175,-2.9479,-2.8927,-2.8555,-2.8026,-2.7364,-2.7028,-2.6524,-2.6042,-2.5847,-2.5507,-2.4828,-2.4572,-2.436,-2.4047,-2.3612,-2.3239,-2.291,-2.2376,-2.2215,-2.2122,-2.2172,-2.2126,-2.1992,-2.1797,-2.1593,-2.1395,-2.1277,-2.0993,-2.0552,-2.0259,-1.9955,-1.9631,-1.9564,-1.9502,-1.9404,-1.9145,-1.901,-1.8943,-1.8791,-1.8644,-1.8221,-1.7715,-1.7715,-1.7679,-1.7135,-1.6732,-1.6386,-1.5953,-1.5265,-1.4796,-1.4561,-1.3841,-1.298,-1.2416,-1.1977,-1.1632,-1.1337,-1.0912,-1.05,-1.0499,-1.0467,-1.0378,-1.021,-0.9826,-0.9489,-0.9068,-0.8438,-0.7673,-3.9246,-3.9521,-3.8266,-3.8291,-3.8831,-3.7281,-3.6737,-3.6751,-3.5929,-3.5344,-3.5223,-3.498,-3.4775,-3.4931,-3.5112,-3.5232,-3.4823,-3.5087,-3.5256,-3.4787,-3.4775,-3.4775,-3.4775,-3.4775,-3.4775,-3.4775,-3.4775,-3.4775,-3.4775,-3.4775,-3.4641,-3.4352,-3.403,-3.3684,-3.3183,-3.2667,-3.213,-3.2205,-3.1851,-3.135,-3.1306,-3.1217,-3.0982,-3.0758,-3.0543,-3.0419,-2.9943,-2.9432,-2.8981,-2.8679,-2.811,-2.7381,-2.702,-2.6541,-2.6075,-2.5731,-2.5354,-2.4779,-2.4566,-2.4068,-2.3781,-2.34,-2.2916,-2.2598,-2.2383,-2.2454,-2.2435,-2.2383,-2.2243,-2.222,-2.2168,-2.1919,-2.1568,-2.145,-2.1066,-2.0624,-2.0217,-1.9916,-1.9625,-1.9536,-1.9429,-1.9341,-1.9292,-1.9228,-1.9148,-1.9006,-1.8855,-1.8344,-1.7926,-1.7933,-1.7831,-1.7258,-1.6639,-1.6144,-1.5705,-1.5122,-1.4768,-1.4553,-1.3739,-1.2842,-1.2356,-1.1964,-1.1598,-1.1253,-1.1003,-1.0761,-1.0605,-1.0502,-1.0315,-1.0013,-0.959,-0.9258,-0.8978,-0.8216,-0.7374,-3.9195,-3.9408,-3.7927,-3.8216,-3.9269,-3.804,-3.7356,-3.702,-3.6233,-3.5903,-3.5915,-3.5077,-3.4775,-3.4775,-3.4811,-3.4811,-3.4799,-3.4847,-3.4823,-3.4799,-3.4775,-3.4775,-3.4775,-3.4775,-3.4775,-3.4775,-3.4775,-3.4726,-3.4775,-3.4482,-3.4286,-3.4056,-3.3629,-3.3533,-3.3324,-3.2924,-3.2468,-3.222,-3.1567,-3.1113,-3.0894,-3.0578,-3.0397,-3.0216,-3.017,-2.9897,-2.96,-2.9304,-2.8864,-2.8437,-2.7911,-2.7493,-2.7031,-2.6502,-2.6346,-2.5982,-2.5595,-2.5265,-2.4737,-2.4148,-2.3777,-2.3432,-2.3096,-2.3062,-2.295,-2.2814,-2.2732,-2.2751,-2.2688,-2.2708,-2.2688,-2.2221,-2.1802,-2.149,-2.1093,-2.0673,-2.0266,-1.9925,-1.9608,-1.9427,-1.935,-1.9292,-1.9292,-1.9265,-1.9244,-1.9055,-1.8894,-1.8704,-1.8308,-1.8033,-1.7839,-1.7224,-1.656,-1.5857,-1.5381,-1.4965,-1.4593,-1.4348,-1.3695,-1.2919,-1.2444,-1.1924,-1.1589,-1.1289,-1.1199,-1.1002,-1.0673,-1.0396,-1.0189,-0.9814,-0.9195,-0.899,-0.8693,-0.7932,-0.7181,-3.9207,-3.9584,-3.8793,-3.8792,-3.92,-3.8142,-3.7025,-3.6033,-3.5403,-3.533,-3.5692,-3.5052,-3.4775,-3.4775,-3.4775,-3.4775,-3.4775,-3.4775,-3.4775,-3.4775,-3.4775,-3.4775,-3.4775,-3.4775,-3.4775,-3.4775,-3.4726,-3.4482,-3.4188,-3.3941,-3.3941,-3.3883,-3.3386,-3.338,-3.3149,-3.2783,-3.2581,-3.2183,-3.1379,-3.0859,-3.049,-3.0239,-2.9977,-2.9817,-2.9715,-2.9451,-2.9174,-2.9082,-2.8754,-2.8617,-2.8481,-2.8126,-2.7238,-2.7006,-2.6763,-2.5646,-2.5506,-2.5464,-2.4739,-2.4292,-2.3875,-2.3431,-2.2951,-2.2779,-2.2794,-2.2901,-2.2901,-2.2838,-2.2794,-2.2715,-2.2583,-2.2246,-2.1939,-2.1671,-2.1254,-2.082,-2.0453,-2.0108,-1.98,-1.9598,-1.9512,-1.9441,-1.9405,-1.9295,-1.9207,-1.9088,-1.8906,-1.8708,-1.8492,-1.8174,-1.7798,-1.7185,-1.6672,-1.5988,-1.5344,-1.4885,-1.4498,-1.4097,-1.3448,-1.2852,-1.2331,-1.1874,-1.1533,-1.126,-1.1074,-1.085,-1.0608,-1.0255,-0.9798,-0.9198,-0.8661,-0.8562,-0.831,-0.7576,-0.7025,-3.8881,-3.8779,-3.8279,-3.7929,-3.7664,-3.7419,-3.6628,-3.5641,-3.5219,-3.534,-3.5533,-3.5064,-3.4775,-3.4775,-3.4775,-3.4775,-3.4775,-3.4775,-3.4775,-3.4775,-3.4775,-3.4775,-3.4775,-3.458,-3.4433,-3.4433,-3.4237,-3.3892,-3.3645,-3.3446,-3.3396,-3.3235,-3.2985,-3.2935,-3.2721,-3.2372,-3.2169,-3.1826,-3.1335,-3.0751,-3.0328,-3.0009,-2.963,-2.937,-2.9266,-2.9024,-2.8839,-2.8803,-2.8803,-2.871,-2.8617,-2.8172,-2.7387,-2.7216,-2.6838,-2.5865,-2.5579,-2.5324,-2.4706,-2.4287,-2.3909,-2.3436,-2.2834,-2.2629,-2.2621,-2.2672,-2.2685,-2.2618,-2.2574,-2.2495,-2.2362,-2.2176,-2.2033,-2.1872,-2.1477,-2.105,-2.0695,-2.0383,-2.0136,-1.9897,-1.9752,-1.9689,-1.9575,-1.9421,-1.912,-1.882,-1.8512,-1.823,-1.8077,-1.7917,-1.7565,-1.7101,-1.6693,-1.6188,-1.5539,-1.4835,-1.4373,-1.3842,-1.3105,-1.2552,-1.2135,-1.1733,-1.131,-1.1074,-1.0893,-1.0631,-1.0331,-0.9722,-0.9193,-0.8627,-0.8097,-0.7808,-0.7605,-0.7215,-0.6793,-3.8291,-3.7556,-3.701,-3.637,-3.5539,-3.6328,-3.6227,-3.5593,-3.5461,-3.5569,-3.5497,-3.5015,-3.4775,-3.4775,-3.4775,-3.4859,-3.4871,-3.4859,-3.4871,-3.4811,-3.4628,-3.4628,-3.4482,-3.4237,-3.3991,-3.3744,-3.3595,-3.3446,-3.3247,-3.2996,-3.2633,-3.242,-3.237,-3.2319,-3.2246,-3.196,-3.1784,-3.171,-3.1255,-3.0655,-3.0092,-2.9678,-2.9226,-2.8937,-2.885,-2.8792,-2.8699,-2.871,-2.8757,-2.8477,-2.8092,-2.7694,-2.7284,-2.6931,-2.6471,-2.6159,-2.5687,-2.5255,-2.4691,-2.4233,-2.3943,-2.3475,-2.288,-2.263,-2.2609,-2.2497,-2.2435,-2.2397,-2.2353,-2.2318,-2.2185,-2.2008,-2.1865,-2.1793,-2.1537,-2.12,-2.0934,-2.0631,-2.0365,-2.0191,-2.0149,-2.0034,-1.9698,-1.9504,-1.9114,-1.8648,-1.8157,-1.784,-1.7698,-1.7601,-1.738,-1.7033,-1.6714,-1.6275,-1.5537,-1.4893,-1.4304,-1.367,-1.2904,-1.2337,-1.198,-1.157,-1.1074,-1.085,-1.0631,-1.0293,-0.9954,-0.9387,-0.8775,-0.8169,-0.7633,-0.7096,-0.6809,-0.6655,-0.6568,-3.7308,-3.7356,-3.6983,-3.6429,-3.5904,-3.59,-3.5558,-3.4979,-3.4967,-3.5207,-3.5461,-3.5039,-3.4775,-3.4775,-3.4726,-3.487,-3.5268,-3.4845,-3.5051,-3.4903,-3.4635,-3.4249,-3.4089,-3.3694,-3.3446,-3.3346,-3.3258,-3.3047,-3.2946,-3.2482,-3.2179,-3.2319,-3.2117,-3.1874,-3.1874,-3.1618,-3.1549,-3.1587,-3.0998,-3.0405,-2.9785,-2.9291,-2.888,-2.8803,-2.8803,-2.856,-2.842,-2.8222,-2.8092,-2.782,-2.7384,-2.6945,-2.6514,-2.6139,-2.572,-2.5456,-2.5496,-2.5092,-2.466,-2.4183,-2.3928,-2.3579,-2.3102,-2.2833,-2.2594,-2.2322,-2.2178,-2.2169,-2.216,-2.2134,-2.2026,-2.1839,-2.1687,-2.1641,-2.163,-2.1392,-2.1163,-2.0897,-2.0613,-2.0543,-2.0534,-2.0262,-1.9896,-1.9481,-1.9116,-1.8533,-1.7885,-1.7498,-1.74,-1.731,-1.7228,-1.6952,-1.6806,-1.6331,-1.5568,-1.4914,-1.4311,-1.367,-1.2935,-1.2408,-1.1856,-1.1317,-1.085,-1.0625,-1.0363,-0.9992,-0.9576,-0.9155,-0.8546,-0.7825,-0.7292,-0.6791,-0.6447,-0.6238,-0.6255,-3.6677,-3.6505,-3.6111,-3.5755,-3.5562,-3.557,-3.5316,-3.4883,-3.5064,-3.5098,-3.5084,-3.487,-3.4775,-3.4726,-3.458,-3.4915,-3.5288,-3.4757,-3.4802,-3.476,-3.4433,-3.3951,-3.3545,-3.3135,-3.2935,-3.2835,-3.2544,-3.2392,-3.2432,-3.2128,-3.1823,-3.1964,-3.1721,-3.1578,-3.1567,-3.1414,-3.1362,-3.1524,-3.0773,-2.9985,-2.9429,-2.9204,-2.8932,-2.8924,-2.871,-2.842,-2.8175,-2.794,-2.7752,-2.7431,-2.7013,-2.638,-2.5945,-2.5518,-2.5247,-2.5054,-2.4967,-2.4861,-2.4458,-2.4135,-2.3908,-2.3688,-2.3376,-2.3125,-2.307,-2.2797,-2.2427,-2.2345,-2.227,-2.2206,-2.204,-2.186,-2.1778,-2.1733,-2.1678,-2.1531,-2.1431,-2.1302,-2.1034,-2.0798,-2.0667,-2.0395,-1.9965,-1.9365,-1.8988,-1.8518,-1.7813,-1.7423,-1.7299,-1.7012,-1.6964,-1.6761,-1.6547,-1.6031,-1.5211,-1.4714,-1.4358,-1.3669,-1.2994,-1.2307,-1.1663,-1.1094,-1.0588,-1.0472,-1.0138,-0.9533,-0.9117,-0.8699,-0.8089,-0.7361,-0.6907,-0.6525,-0.6219,-0.5873,-0.5831,-3.6184,-3.544,-3.4993,-3.4835,-3.4883,-3.5304,-3.5244,-3.4895,-3.5243,-3.5035,-3.4455,-3.4604,-3.4677,-3.458,-3.42,-3.4764,-3.492,-3.4475,-3.4454,-3.4445,-3.4114,-3.3553,-3.3035,-3.2583,-3.237,-3.2167,-3.1975,-3.1823,-3.1772,-3.1618,-3.1618,-3.1567,-3.1578,-3.1578,-3.1362,-3.1157,-3.0991,-3.0818,-3.0205,-2.9452,-2.9298,-2.9289,-2.8867,-2.8668,-2.856,-2.8326,-2.794,-2.7704,-2.7468,-2.7051,-2.6534,-2.5858,-2.5323,-2.4932,-2.4883,-2.4671,-2.4511,-2.4382,-2.4217,-2.4082,-2.4096,-2.4024,-2.3684,-2.3499,-2.3425,-2.3197,-2.2785,-2.2648,-2.2529,-2.2355,-2.2181,-2.1943,-2.1906,-2.1797,-2.1733,-2.1651,-2.1615,-2.1498,-2.1177,-2.089,-2.0666,-2.0395,-1.9861,-1.9264,-1.8811,-1.8366,-1.7973,-1.7676,-1.7304,-1.6923,-1.6661,-1.6381,-1.6058,-1.5489,-1.4859,-1.4587,-1.4365,-1.3758,-1.3072,-1.2262,-1.1512,-1.1058,-1.0667,-1.0405,-1.0008,-0.9289,-0.8661,-0.8165,-0.7514,-0.698,-0.6676,-0.6374,-0.6025,-0.5715,-0.5443,-3.5465,-3.4932,-3.4823,-3.4775,-3.4847,-3.4956,-3.4859,-3.4799,-3.4883,-3.4602,-3.4211,-3.4139,-3.4237,-3.4433,-3.3694,-3.3962,-3.4713,-3.4138,-3.4016,-3.4058,-3.3615,-3.3092,-3.2583,-3.2117,-3.1823,-3.1721,-3.1669,-3.1618,-3.1516,-3.1567,-3.1567,-3.1567,-3.1578,-3.1362,-3.095,-3.0733,-3.0598,-3.0273,-2.9606,-2.884,-2.8718,-2.8515,-2.7963,-2.7715,-2.7515,-2.7194,-2.6918,-2.6822,-2.6582,-2.6294,-2.5849,-2.5235,-2.4794,-2.4498,-2.4449,-2.444,-2.4282,-2.423,-2.4153,-2.3959,-2.4003,-2.415,-2.3868,-2.3758,-2.3694,-2.3648,-2.3363,-2.3272,-2.3116,-2.2821,-2.2602,-2.2227,-2.2053,-2.178,-2.1645,-2.1554,-2.1463,-2.1087,-2.0673,-2.0574,-2.0484,-2.0121,-1.9679,-1.9171,-1.8795,-1.8324,-1.772,-1.7417,-1.7282,-1.6843,-1.6443,-1.6041,-1.5679,-1.526,-1.4748,-1.4657,-1.435,-1.3745,-1.3115,-1.2278,-1.1621,-1.1138,-1.0772,-1.0352,-0.9757,-0.9046,-0.8389,-0.7744,-0.7326,-0.6868,-0.6563,-0.6222,-0.587,-0.5479,-0.5207]},{"header":{"parameterUnit":"m.s-1","parameterCategory":1,"la1":31.0,"la2":29.5877,"lo1":-88.7671,"lo2":-86.6584,"dy":0.0162,"dx":0.0185,"nx":115,"ny":88,"refTime":"2023-04-17T06:00:00:Z","depth":0,"parameterNumber":3,"parameterNumberName":"V-component_of_WINDS"},"data":[0.0,0.0,0.0,0.0,0.0,0.0,0.0,0.0,0.0,0.0,0.0,0.0,0.0,0.0,0.0,0.0,0.0,0.0,0.0,0.0,0.0,0.0,0.0,0.0,0.0,0.0,0.0,0.0,0.0,0.0,0.0,0.0,0.0,0.0,0.0,0.0,0.0,0.0,0.0,0.0,0.0,0.0,0.0,0.0,0.0,0.0,0.0,0.0,0.0,0.0,0.0,0.0,0.0,0.0,0.0,0.0,0.0,0.0,0.0,0.0,0.0,0.0,0.0,0.0,0.0,0.0,0.0,0.0,0.0,0.0,0.0,0.0,0.0,0.0,0.0,0.0,0.0,0.0,0.0,0.0,0.0,0.0,0.0,0.0,0.0,0.0,0.0,0.0,0.0,0.0,0.0,0.0,0.0,0.0,0.0,0.0,0.0,0.0,0.0,0.0,0.0,0.0,0.0,0.0,0.0,0.0,0.0,0.0,0.0,0.0,0.0,0.0,0.0,0.0,0.0,0.0,0.0,0.0,0.0,0.0,0.0,0.0,0.0,0.0,0.0,0.0,0.0,0.0,0.0,0.0,0.0,0.0,0.0,0.0,0.0,0.0,0.0,0.0,0.0,0.0,0.0,0.0,0.0,0.0,0.0,0.0,0.0,0.0,0.0,0.0,0.0,0.0,0.0,0.0,0.0,0.0,0.0,0.0,0.0,0.0,0.0,0.0,0.0,0.0,0.0,0.0,0.0,0.0,0.0,0.0,0.0,0.0,0.0,0.0,0.0,0.0,0.0,0.0,0.0,0.0,0.0,0.0,0.0,0.0,0.0,0.0,0.0,0.0,0.0,0.0,0.0,0.0,0.0,0.0,0.0,0.0,0.0,0.0,0.0,0.0,0.0,0.0,0.0,0.0,0.0,0.0,0.0,0.0,0.0,0.0,0.0,0.0,0.0,0.0,0.0,0.0,0.0,0.0,0.0,0.0,0.0,0.0,0.0,0.0,0.0,0.0,0.0,0.0,0.0,0.0,0.0,0.0,0.0,0.0,0.0,0.0,0.0,0.0,0.0,0.0,0.0,0.0,0.0,0.0,0.0,0.0,0.0,0.0,0.0,0.0,0.0,0.0,0.0,0.0,0.0,0.0,0.0,0.0,0.0,0.0,0.0,0.0,0.0,0.0,0.0,0.0,0.0,0.0,0.0,0.0,0.0,0.0,0.0,0.0,0.0,0.0,0.0,0.0,0.0,0.0,0.0,0.0,0.0,0.0,0.0,0.0,0.0,0.0,0.0,0.0,0.0,0.0,0.0,0.0,0.0,0.0,0.0,0.0,0.0,0.0,0.0,0.0,0.0,0.0,0.0,0.0,0.0,0.0,0.0,0.0,0.0,0.0,0.0,0.0,0.0,0.0,0.0,0.0,0.0,0.0,0.0,0.0,0.0,0.0,0.0,0.0,0.0,0.0,0.0,0.0,0.0,0.0,0.0,0.0,0.0,0.0,0.0,0.0,0.0,0.0,0.0,0.0,0.0,0.0,0.0,0.0,0.0,0.0,0.0,0.0,0.0,0.0,0.0,0.0,0.0,0.0,0.0,0.0,0.0,0.0,0.0,0.0,0.0,0.0,0.0,0.0,0.0,0.0,0.0,0.0,0.0,0.0,0.0,0.0,0.0,0.0,0.0,0.0,0.0,0.0,0.0,0.0,0.0,0.0,0.0,0.0,0.0,0.0,0.0,0.0,0.0,0.0,0.0,0.0,0.0,0.0,0.0,0.0,0.0,0.0,0.0,0.0,0.0,0.0,0.0,0.0,0.0,0.0,0.0,0.0,0.0,0.0,0.0,0.0,0.0,0.0,0.0,0.0,0.0,0.0,0.0,0.0,0.0,0.0,0.0,0.0,0.0,0.0,0.0,0.0,0.0,0.0,0.0,0.0,0.0,0.0,0.0,0.0,0.0,0.0,0.0,0.0,0.0,0.0,0.0,0.0,0.0,0.0,0.0,0.0,0.0,0.0,0.0,0.0,0.0,0.0,0.0,0.0,0.0,0.0,0.0,0.0,0.0,0.0,0.0,0.0,0.0,0.0,0.0,0.0,0.0,0.0,0.0,0.0,0.0,0.0,0.0,0.0,0.0,0.0,0.0,0.0,0.0,0.0,0.0,0.0,0.0,0.0,0.0,0.0,0.0,0.0,0.0,0.0,0.0,0.0,0.0,0.0,0.0,0.0,0.0,0.0,0.0,0.0,0.0,0.0,0.0,0.0,0.0,0.0,0.0,0.0,0.0,0.0,0.0,0.0,0.0,0.0,0.0,0.0,0.0,0.0,0.0,0.0,0.0,0.0,0.0,0.0,0.0,0.0,0.0,0.0,0.0,0.0,0.0,0.0,0.0,0.0,0.0,0.0,0.0,0.0,0.0,0.0,0.0,0.0,0.0,0.0,0.0,0.0,0.0,0.0,0.0,0.0,0.0,0.0,0.0,0.0,0.0,0.0,0.0,0.0,0.0,0.0,0.0,0.0,0.0,0.0,0.0,0.0,0.0,0.0,0.0,0.0,0.0,0.0,0.0,0.0,0.0,0.0,0.0,0.0,0.0,0.0,0.0,0.0,0.0,0.0,0.0,0.0,0.0,0.0,0.0,0.0,0.0,0.0,0.0,0.0,0.0,0.0,0.0,0.0,0.0,0.0,0.0,0.0,0.0,0.0,0.0,0.0,0.0,0.0,0.0,0.0,0.0,0.0,0.0,0.0,0.0,0.0,0.0,0.0,0.0,0.0,0.0,0.0,0.0,0.0,0.0,0.0,0.0,0.0,0.0,0.0,0.0,0.0,0.0,0.0,0.0,0.0,0.0,0.0,0.0,0.0,0.0,0.0,0.0,0.0,0.0,0.0,0.0,0.0,0.0,0.0,0.0,0.0,0.0,0.0,0.0,0.0,0.0,0.0,0.0,0.0,0.0,0.0,0.0,0.0,0.0,0.0,0.0,0.0,0.0,0.0,0.0,0.0,0.0,0.0,0.0,0.0,0.0,0.0,0.0,0.0,0.0,0.0,0.0,0.0,0.0,0.0,0.0,0.0,0.0,0.0,0.0,0.0,0.0,0.0,0.0,0.0,0.0,0.0,0.0,0.0,0.0,0.0,0.0,0.0,0.0,0.0,0.0,0.0,0.0,0.0,0.0,0.0,0.0,0.0,0.0,0.0,0.0,0.0,0.0,0.0,0.0,0.0,0.0,0.0,0.0,0.0,0.0,0.0,0.0,0.0,0.0,0.0,0.0,0.0,0.0,0.0,0.0,0.0,0.0,0.0,0.0,0.0,0.0,0.0,0.0,0.0,0.0,0.0,0.0,0.0,0.0,0.0,0.0,0.0,0.0,0.0,0.0,0.0,0.0,0.0,0.0,0.0,0.0,0.0,0.0,0.0,0.0,0.0,0.0,0.0,0.0,0.0,0.0,0.0,0.0,0.0,0.0,0.0,0.0,0.0,0.0,0.0,0.0,0.0,0.0,0.0,0.0,0.0,0.0,0.0,0.0,0.0,0.0,0.0,0.0,0.0,0.0,0.0,0.0,0.0,0.0,0.0,0.0,0.0,0.0,0.0,0.0,0.0,0.0,0.0,0.0,0.0,0.0,0.0,0.0,0.0,0.0,0.0,0.0,0.0,0.0,0.0,0.0,0.0,0.0,0.0,0.0,0.0,0.0,0.0,0.0,0.0,0.0,0.0,0.0,0.0,0.0,0.0,0.0,0.0,0.0,0.0,0.0,0.0,0.0,0.0,0.0,0.0,0.0,0.0,0.0,0.0,0.0,0.0,0.0,0.0,0.0,0.0,0.0,0.0,0.0,0.0,0.0,0.0,0.0,0.0,0.0,0.0,0.0,0.0,0.0,0.0,0.0,0.0,0.0,0.0,0.0,0.0,0.0,0.0,0.0,0.0,0.0,0.0,0.0,0.0,0.0,0.0,0.0,0.0,0.0,0.0,0.0,0.0,0.0,0.0,0.0,0.0,0.0,0.0,0.0,0.0,0.0,0.0,0.0,0.0,0.0,0.0,0.0,0.0,0.0,0.0,0.0,0.0,0.0,0.0,0.0,0.0,0.0,0.0,0.0,0.0,0.0,0.0,0.0,0.0,0.0,0.0,0.0,0.0,0.0,0.0,0.0,0.0,0.0,0.0,0.0,0.0,0.0,0.0,0.0,0.0,0.0,0.0,0.0,0.0,0.0,0.0,0.0,0.0,0.0,0.0,0.0,0.0,0.0,0.0,0.0,0.0,0.0,0.0,0.0,0.0,0.7267,0.0,0.0,0.0,0.0,0.0,0.0,0.0,0.0,0.0,0.0,0.0,0.0,0.0,0.0,0.0,0.0,0.0,0.0,0.0,0.0,0.0,0.0,0.0,0.0,0.0,0.0,0.0,0.0,0.0,0.0,0.0,0.0,0.0,0.0,0.0,0.0,0.0,0.0,0.0,0.0,0.0,0.0,0.0,0.0,0.0,0.0,0.0,0.0,0.0,0.0,0.0,0.0,0.0,0.0,0.0,0.0,0.0,0.0,0.0,0.0,0.0,0.0,0.0,0.0,0.0,0.0,0.0,0.0,0.0,0.0,0.0,0.0,0.0,0.0,0.0,0.0,0.0,0.0,0.0,0.0,0.0,0.0,0.0,0.0,0.0,0.0,0.0,0.0,0.0,0.0,0.0,0.0,0.0,0.0,0.0,0.0,0.0,0.0,0.0,0.0,0.0,0.0,0.0,0.0,0.0,0.0,0.0,0.0,0.0,0.0,0.5991,0.6295,0.6287,0.6762,0.7746,0.0,0.0,0.0,0.0,0.0,0.0,0.0,0.0,0.0,0.0,0.0,0.0,0.0,0.0,0.0,0.0,0.0,0.0,0.0,0.0,0.0,0.0,0.0,0.0,0.0,0.0,0.0,0.0,0.0,0.0,0.0,0.0,0.0,0.0,0.0,0.0,0.0,0.0,0.0,0.0,0.0,0.0,0.0,0.0,0.0,0.0,0.0,0.0,0.0,0.0,0.0,0.0,0.0,0.0,0.0,0.0,0.0,0.0,0.0,0.0,0.0,0.0,0.0,0.0,0.0,0.0,0.0,0.0,0.0,0.0,0.0,0.0,0.0,0.0,0.0,0.0,0.0,0.0,0.0,0.0,0.0,0.0,0.0,0.0,0.0,0.0,0.0,0.0,0.0,0.0,0.0,0.0,0.0,0.0,0.0,0.0,0.0,0.0,0.0,0.0,0.0,0.0,0.0,0.0,0.0,0.0,0.0,0.0,0.0,0.0,0.0,0.0,0.671,0.7315,0.8555,0.0,0.0,0.0,0.0,0.0,0.0,0.0,0.0,0.0,0.0,0.0,0.0,0.0,0.0,0.0,0.0,0.0,0.0,0.0,0.0,0.0,0.0,0.0,0.0,0.0,0.0,0.0,0.0,0.0,0.0,0.0,0.0,0.0,0.0,0.0,0.0,0.0,0.0,0.0,0.0,0.0,0.0,0.0,0.0,0.0,0.0,0.0,0.0,0.0,0.0,0.0,0.0,0.0,0.0,0.0,0.0,0.0,0.0,0.0,0.0,0.0,0.0,0.0,0.0,0.0,0.0,0.0,0.0,0.0,0.0,0.0,0.0,0.0,0.0,0.0,0.0,0.0,0.0,0.0,0.0,0.0,0.0,0.0,0.0,0.0,0.0,0.0,0.0,0.0,0.0,0.0,0.0,0.0,0.0,0.0,0.0,0.0,0.0,0.0,0.0,0.0,0.0,0.0,0.0,0.0,0.0,0.0,0.0,0.0,0.0,0.6806,0.7905,0.7931,0.0,0.973,0.0,0.0,0.0,0.0,0.0,0.0,0.0,0.0,0.0,0.0,0.0,0.0,0.0,0.0,0.0,0.0,0.0,0.0,0.0,0.0,0.0,0.0,0.0,0.0,0.0,0.0,0.0,0.0,0.0,0.0,0.0,0.0,0.0,0.0,0.0,0.0,0.0,0.0,0.0,0.0,0.0,0.0,0.0,0.0,0.0,0.0,0.0,0.0,0.0,0.0,0.0,0.0,0.0,0.0,0.0,0.0,0.0,0.0,0.0,0.0,0.0,0.0,0.0,0.0,0.0,0.0,0.0,0.0,0.0,0.0,0.0,0.0,0.0,0.0,0.0,0.0,0.0,0.0,0.0,0.0,0.0,0.0,0.0,0.0,0.0,0.0,0.0,0.0,0.0,0.0,0.0,0.0,0.0,0.0,0.0,0.0,0.0,0.0,0.0,0.0,0.0,0.0,0.0,0.0,0.0,0.0,0.0,0.0,0.0,0.0,0.7254,0.8141,0.8807,0.923,0.0,0.0,0.0,0.0,0.0,0.0,0.0,0.0,0.0,0.0,0.0,0.0,0.0,0.0,0.0,0.0,0.0,0.0,0.0,0.0,0.0,0.0,0.0,0.0,0.0,0.0,0.0,0.0,0.0,0.0,0.0,0.0,0.0,0.0,0.0,0.0,0.0,0.0,0.0,0.0,0.0,0.0,0.0,0.0,0.0,0.0,0.0,0.0,0.0,0.0,0.0,0.0,0.0,0.0,0.0,0.0,0.0,0.0,0.0,0.0,0.0,0.0,0.0,0.0,0.0,0.0,0.0,0.0,0.0,0.0,0.0,0.0,0.0,0.0,0.0,0.0,0.0,0.0,0.0,0.0,0.0,0.0,0.0,0.0,0.0,0.0,0.0,0.0,0.0,0.0,0.0,0.0,0.0,0.0,0.0,0.0,0.0,0.0,0.0,0.0,0.0,0.0,0.0,0.0,0.0,0.0,0.0,0.0,0.0,0.0,0.6813,0.7606,0.8397,0.9055,0.9354,0.9255,0.0,0.0,0.0,0.0,0.0,0.0,0.0,0.0,0.0,0.0,0.0,0.0,0.0,0.0,0.0,0.0,0.0,0.0,0.0,0.0,0.0,0.0,0.0,0.0,0.0,0.0,0.0,0.0,0.0,0.0,0.0,0.0,0.0,0.0,0.0,0.0,0.0,0.0,0.0,0.0,0.0,0.0,0.0,0.0,0.0,0.0,0.0,0.0,0.0,0.0,0.0,0.0,0.0,0.0,0.0,0.0,0.0,0.0,0.0,0.0,0.0,0.0,0.0,0.0,0.0,0.0,0.0,0.0,0.0,0.0,0.0,0.0,0.0,0.0,0.0,0.0,0.0,0.0,0.0,0.0,0.0,0.0,0.0,0.0,0.0,0.0,0.0,0.0,0.0,0.0,0.0,0.0,0.0,0.0,0.0,0.0,0.0,0.0,0.0,0.0,0.0,0.0,0.0,0.0,0.0,0.0,0.0,0.0,0.8649,0.7801,0.7835,0.8919,0.8465,0.8722,0.0,0.0,0.0,0.0,0.0,0.0,0.0,0.0,0.0,0.0,0.0,0.0,0.0,0.0,0.0,0.0,0.0,0.0,0.0,0.0,0.0,0.0,0.0,0.0,0.0,0.0,0.0,0.0,0.0,0.0,0.0,0.0,0.0,0.0,0.0,0.0,0.0,0.0,0.0,0.0,0.0,0.0,0.0,0.0,0.0,0.0,0.0,0.0,0.0,0.0,0.0,0.0,0.0,0.0,0.0,0.0,0.0,0.0,0.0,0.0,0.0,0.0,0.0,0.0,0.0,0.0,0.0,0.0,0.0,0.0,0.0,0.0,0.0,0.0,0.0,0.0,0.0,0.0,0.0,0.0,0.0,0.0,0.0,0.0,0.0,0.0,0.0,0.0,0.0,0.0,0.0,0.0,0.0,0.0,0.0,0.0,0.0,0.0,0.0,0.0,0.0,0.0,0.0,0.0,0.0,0.0,0.0,0.0,0.0,0.6972,0.7606,0.8305,0.9027,0.8902,0.9002,0.0,0.0,0.0,0.0,0.0,0.0,0.0,0.0,0.0,0.0,0.0,0.0,0.0,0.0,0.0,0.0,0.0,0.0,0.0,0.0,0.0,0.0,0.0,0.0,0.0,0.0,0.0,0.0,0.0,0.0,0.0,0.0,0.0,0.0,0.0,0.0,0.0,0.0,0.0,0.0,0.0,0.0,0.0,0.0,0.0,0.0,0.0,0.0,0.0,0.0,0.0,0.0,0.0,0.0,0.0,0.0,0.0,0.0,0.0,0.0,0.0,0.0,0.0,0.0,0.0,0.0,0.0,0.0,0.0,0.0,0.0,0.0,0.0,0.0,0.0,0.0,0.0,0.0,0.0,0.0,0.0,0.0,0.0,0.0,0.0,0.0,0.0,0.0,0.0,0.0,0.0,0.0,0.0,0.0,0.0,0.0,0.0,0.0,0.0,0.0,0.0,0.0,0.0,0.0,0.0,0.0,0.0,0.0,0.0,0.6369,0.0,0.8198,0.8545,0.8618,0.8675,0.0,0.0,0.0,0.0,0.0,0.0,0.0,0.0,0.0,0.0,0.0,0.0,0.0,0.0,0.0,0.0,0.0,0.0,0.0,0.0,0.0,0.0,0.0,0.0,0.0,0.0,0.0,0.0,0.0,0.0,0.0,0.0,0.0,0.0,0.0,0.0,0.0,0.0,0.0,0.0,0.0,0.0,0.0,0.0,0.0,0.0,0.0,0.0,0.0,0.0,0.0,0.0,0.0,0.0,0.0,0.0,0.0,0.0,0.0,0.0,0.0,0.0,0.0,0.0,0.0,0.0,0.0,0.0,0.0,0.0,0.0,0.0,0.0,0.0,0.0,0.0,0.0,0.0,0.0,0.0,0.0,0.0,0.0,0.0,0.0,0.0,0.0,0.0,0.0,0.0,0.0,0.0,0.0,0.0,0.0,0.0,0.0,0.0,0.0,0.0,0.0,0.0,0.0,0.0,0.0,0.0,0.0,0.0,0.6805,0.7346,0.7384,0.752,0.7538,0.7573,0.7563,0.0,0.0,0.0,0.0,0.0,0.0,0.0,0.0,0.0,0.0,0.0,0.0,0.0,0.0,0.0,0.0,0.0,0.0,0.0,0.0,0.0,0.0,0.0,0.0,0.0,0.0,0.0,0.0,0.0,0.0,0.0,0.0,0.0,0.0,0.0,0.0,0.0,0.0,0.0,0.0,0.0,0.0,0.0,0.0,0.0,0.0,0.0,0.0,0.0,0.0,0.0,0.0,0.0,0.0,0.0,0.0,0.0,0.0,0.0,0.0,0.0,0.0,0.0,0.0,0.0,0.0,0.0,0.0,0.0,0.0,0.0,0.0,0.0,0.0,0.0,0.0,0.0,0.0,0.0,0.0,0.0,0.0,0.0,0.0,0.0,0.0,0.0,0.0,0.0,0.0,0.0,0.0,0.0,0.0,0.0,0.0,0.0,0.0,0.0,0.0,0.0,0.0,0.0,0.0,0.0,0.0,0.0,0.0,0.0,0.7384,0.7387,0.8005,0.9169,0.7855,0.7842,0.0,0.0,0.0,0.0,0.0,0.0,0.0,0.0,0.0,0.0,0.0,0.0,0.0,0.0,0.0,0.0,0.0,0.0,0.0,0.0,0.0,0.0,0.0,0.0,0.0,0.0,0.0,0.0,0.0,0.0,0.0,0.0,0.0,0.0,0.0,0.0,0.0,0.0,0.0,0.0,0.0,0.0,0.0,0.0,0.0,0.0,0.0,0.0,0.0,0.0,0.0,0.0,0.0,0.0,0.0,0.0,0.0,0.0,0.0,0.0,0.0,0.0,0.0,0.0,0.0,0.0,0.0,0.0,0.0,0.0,0.0,0.0,0.0,0.0,0.0,0.0,0.0,0.0,0.0,0.0,0.0,0.0,0.0,0.0,0.0,0.0,0.0,0.0,0.0,0.0,0.0,0.0,0.0,0.0,0.0,0.0,0.0,0.0,0.0,0.0,0.0,0.0,0.0,0.0,0.0,0.0,0.0,0.0,0.0,0.8882,0.8177,0.8312,0.9471,0.8034,0.7921,0.9389,0.0,0.0,0.0,0.0,0.0,0.0,0.0,0.0,0.0,0.0,0.0,0.0,0.0,0.0,0.0,0.0,0.0,0.0,0.0,0.0,0.0,0.0,0.0,0.0,0.0,0.0,0.0,0.0,0.0,0.0,0.0,0.0,0.0,0.0,0.0,0.0,0.0,0.0,0.0,0.0,0.0,0.0,0.0,0.0,0.0,0.0,0.0,0.0,0.0,0.0,0.0,0.0,0.0,0.0,0.0,0.0,0.0,0.0,0.0,0.0,0.0,0.0,0.0,0.0,0.0,0.0,0.0,0.0,0.0,0.0,0.0,0.0,0.0,0.0,0.0,0.0,0.0,0.0,0.0,0.0,0.0,0.0,0.0,0.0,0.0,0.0,0.0,0.0,0.0,0.0,0.0,0.0,0.0,0.0,0.0,0.0,0.0,0.0,0.0,0.0,0.0,0.0,0.0,0.0,0.0,0.0,0.0,0.0,1.1562,0.9701,0.8803,0.8913,0.8323,0.8032,0.0,0.0,0.0,0.0,0.0,0.0,0.0,0.0,0.0,0.0,0.0,0.0,0.0,0.0,0.0,0.0,0.0,0.0,0.0,0.0,0.0,0.0,0.0,0.0,0.0,0.0,0.0,0.0,0.0,0.0,0.0,0.0,0.0,0.0,0.0,0.0,0.0,0.0,0.0,0.0,0.0,0.0,0.0,0.0,0.0,0.0,0.0,0.0,0.0,0.0,0.0,0.0,0.0,0.0,0.0,0.0,0.0,0.0,0.0,0.0,0.0,0.0,0.0,0.0,0.0,0.0,0.0,0.0,0.0,0.0,0.0,0.0,0.0,0.0,0.0,0.0,0.0,0.0,0.0,0.0,0.0,0.0,0.0,0.0,0.0,0.0,0.0,0.0,0.0,0.0,0.0,0.0,0.0,0.0,0.0,0.0,0.0,0.0,0.0,0.0,0.0,0.0,0.0,0.0,0.0,0.0,0.0,0.0,0.0,1.2432,1.2379,1.2519,1.2879,1.1104,1.0343,0.0,0.0,0.0,0.0,0.0,0.0,0.0,0.0,0.0,0.0,0.0,0.0,0.0,0.0,0.0,0.0,0.0,0.0,0.0,0.0,0.0,0.0,0.0,0.0,0.0,0.0,0.0,0.0,0.0,0.0,0.0,0.0,0.0,0.0,0.0,0.0,0.0,0.0,0.0,0.0,0.0,0.0,0.0,0.0,0.0,0.0,0.0,0.0,0.0,0.0,0.0,0.0,0.0,0.0,0.0,0.0,0.0,0.0,0.0,0.0,0.0,0.0,0.0,0.0,0.0,0.0,0.0,0.0,0.0,0.0,0.0,0.0,0.0,0.0,0.0,0.0,0.0,0.0,0.0,0.0,0.0,0.0,0.0,0.0,0.0,0.0,0.0,0.0,0.0,0.0,0.0,0.0,0.0,0.0,0.0,0.0,0.0,0.0,0.0,0.0,0.0,0.0,0.0,0.0,0.0,0.0,0.0,0.0,1.1906,1.3756,1.4723,1.5521,1.6173,1.3437,1.1713,0.0,0.0,0.0,0.0,0.0,0.0,0.0,0.0,0.0,0.0,0.0,0.0,0.0,0.0,0.0,0.0,0.0,0.0,0.0,0.0,0.0,0.0,0.0,0.0,0.0,0.0,0.0,0.0,0.0,0.0,0.0,0.0,0.0,0.0,0.0,0.0,0.0,0.0,0.0,0.0,0.0,0.0,0.0,0.0,0.0,0.0,0.0,0.0,0.0,0.0,0.0,0.0,0.0,0.0,0.0,0.0,0.0,0.0,0.0,0.0,0.0,0.0,0.0,0.0,0.0,0.0,0.0,0.0,0.0,0.0,0.0,0.0,0.0,0.0,0.0,0.0,0.0,0.0,0.0,0.0,0.0,0.0,0.0,0.0,0.0,0.0,0.0,0.0,0.0,0.0,0.0,0.0,0.0,0.0,0.0,0.0,0.0,0.0,0.0,0.0,0.0,0.0,0.0,0.0,0.0,0.0,0.0,0.0,1.3265,1.4925,1.6505,1.7635,1.8161,1.5203,1.2595,0.0,0.0,0.0,0.0,0.0,0.0,0.0,0.0,0.0,0.0,0.0,0.0,0.0,0.0,0.0,0.0,0.0,0.0,0.0,0.0,0.0,0.0,0.0,0.0,0.0,0.0,0.0,0.0,0.0,0.0,0.0,0.0,0.0,0.0,0.0,0.0,0.0,0.0,0.0,0.0,0.0,0.0,0.0,0.0,0.0,0.0,0.0,0.0,0.0,0.0,0.0,0.0,0.0,0.0,0.0,0.0,0.0,0.0,0.0,0.0,0.0,0.0,0.0,0.0,0.0,0.0,0.0,0.0,0.0,0.0,0.0,0.0,0.0,0.0,0.0,0.0,0.0,0.0,0.0,0.0,0.0,0.0,0.0,0.0,0.0,0.0,0.0,0.0,0.0,0.0,0.0,0.0,0.0,0.0,0.0,0.0,0.0,0.0,0.0,0.0,0.0,0.0,0.0,0.0,0.0,0.0,0.0,0.0,1.2938,1.4739,1.6644,1.7316,1.6697,1.5387,1.4012,0.0,0.0,0.0,0.0,0.0,0.0,0.0,0.0,0.0,0.0,0.0,0.0,0.0,0.0,0.0,0.0,0.0,0.0,0.0,0.0,0.0,0.0,0.0,0.0,0.0,0.0,0.0,0.0,0.0,0.0,0.0,0.0,0.0,0.0,0.0,0.0,0.0,0.0,0.0,0.0,0.0,0.0,0.0,0.0,0.0,0.0,0.0,0.0,0.6558,0.0,0.0,0.0,0.0,0.0,0.0,0.0,0.0,0.0,0.0,0.0,0.0,0.0,0.0,0.0,0.0,0.0,0.0,0.0,0.0,0.0,0.0,0.0,0.0,0.0,0.0,0.0,0.0,0.0,0.0,0.0,0.0,0.0,0.0,0.0,0.0,0.0,0.0,0.0,0.0,0.0,0.0,0.0,0.0,0.0,0.0,0.0,0.0,0.0,0.0,0.0,0.0,0.0,0.0,0.0,0.0,0.0,0.0,0.0,1.2948,1.4774,1.6394,1.712,1.683,1.5428,1.4084,0.0,0.0,0.0,0.0,0.0,0.0,0.0,0.0,0.0,0.0,0.0,0.0,0.0,0.0,0.0,0.0,0.0,0.0,0.0,0.0,0.0,0.0,0.0,0.0,0.0,0.0,0.0,0.0,0.0,0.0,0.0,0.0,0.0,0.0,0.0,0.0,0.0,0.0,0.0,0.0,0.0,0.0,0.0,0.0,0.0,0.0,0.0,0.0,0.0,0.0,0.0,0.0,0.0,0.0,0.0,0.0,0.0,0.0,0.0,0.0,0.0,0.0,0.0,0.0,0.0,0.0,0.0,0.0,0.0,0.0,0.0,0.0,0.0,0.0,0.0,0.0,0.0,0.0,0.0,0.0,0.0,0.0,0.0,0.0,0.0,0.0,0.0,0.0,0.0,0.0,0.0,0.0,0.0,0.0,0.0,0.0,0.0,0.0,0.0,0.0,0.0,0.0,0.0,0.0,0.0,0.0,0.0,1.1582,1.312,1.4912,1.6104,1.6899,1.7279,1.5345,1.3692,1.2438,0.0,0.0,0.0,0.0,0.0,0.0,0.0,0.0,0.0,0.0,0.0,0.0,0.0,0.0,0.0,0.0,0.0,0.0,0.0,0.0,0.0,0.0,0.0,0.0,0.0,0.0,0.0,0.0,0.0,0.0,0.0,0.0,0.0,0.0,0.0,0.0,0.0,0.0,0.7188,0.6706,0.0,0.0,0.0,0.0,0.0,0.0,0.0,0.0,0.7509,0.0,0.0,0.0,0.0,0.0,0.0,0.0,0.0,0.0,0.0,0.0,0.0,0.0,0.0,0.0,0.0,0.0,0.0,0.0,0.0,0.0,0.0,0.0,0.0,0.0,0.0,0.0,0.0,0.0,0.0,0.0,0.0,0.0,0.0,0.0,0.0,0.0,0.0,0.0,0.0,0.0,0.0,0.0,0.0,0.0,0.0,0.0,0.0,0.0,0.0,0.0,0.0,0.0,0.0,0.0,0.0,1.1878,1.2161,1.326,1.5278,1.6208,1.649,1.6087,1.4871,1.388,1.3145,0.0,0.0,0.0,0.0,0.0,0.0,0.0,0.0,0.0,0.0,0.0,0.0,0.0,0.0,0.0,0.0,0.0,0.0,0.0,0.0,0.0,0.0,0.0,0.0,0.0,0.0,0.0,0.0,0.0,0.0,0.0,0.0,0.0,0.0,0.0,0.0,0.0,0.0,0.0,0.6588,0.6595,0.0,0.0,0.0,0.0,0.0,0.0,0.0,0.0,0.6815,0.0,0.0,0.0,0.0,0.0,0.0,0.0,0.0,0.0,0.0,0.0,0.0,0.0,0.0,0.0,0.0,0.0,0.0,0.0,0.0,0.0,0.0,0.0,0.0,0.0,0.0,0.0,0.0,0.0,0.0,0.0,0.0,0.0,0.0,0.0,0.0,0.0,0.0,0.0,0.0,0.0,0.0,0.0,0.0,0.0,0.0,0.0,0.0,0.0,0.0,0.0,0.0,0.0,0.0,0.0,1.205,1.2211,1.3191,1.5065,1.5687,1.5671,1.5029,1.3854,1.3103,0.0,0.0,0.0,0.0,0.0,0.0,0.0,0.0,0.0,0.0,0.0,0.0,0.0,0.0,0.0,0.0,0.0,0.0,0.0,0.0,0.0,0.0,0.0,0.0,0.0,0.0,0.0,0.0,0.0,0.0,0.0,0.0,0.0,0.0,0.0,0.0,0.0,0.0,0.0,0.0,0.6806,0.6754,0.7163,0.0,0.0,0.0,0.0,0.0,0.0,0.7395,0.7424,0.0,0.0,0.0,0.0,0.0,0.0,0.0,0.0,0.0,0.0,0.0,0.0,0.0,0.0,0.0,0.0,0.0,0.0,0.0,0.0,0.0,0.0,0.0,0.0,0.0,0.0,0.0,0.0,0.0,0.0,0.0,0.0,0.0,0.0,0.0,0.0,0.0,0.0,0.0,0.0,0.0,0.0,0.0,0.0,0.0,0.0,0.0,0.0,0.0,0.0,0.0,0.0,0.0,0.0,0.0,1.2064,1.2262,1.3187,1.4897,1.5193,1.5037,1.45,1.3188,1.2524,0.0,0.0,0.0,0.0,0.0,0.0,0.0,0.0,0.0,0.0,0.0,0.0,0.0,0.0,0.0,0.0,0.0,0.0,0.0,0.0,0.0,0.0,0.0,0.0,0.0,0.0,0.0,0.0,0.0,0.0,0.0,0.0,0.0,0.0,0.0,0.0,0.0,0.0,0.0,0.0,0.0,0.7111,0.7857,0.7336,0.0,0.0,0.0,0.0,0.8146,0.816,0.0,0.0,0.0,0.0,0.0,0.0,0.0,0.0,0.0,0.0,0.0,0.0,0.0,0.0,0.0,0.0,0.0,0.0,0.0,0.0,0.0,0.0,0.0,0.0,0.0,0.0,0.0,0.0,0.0,0.0,0.0,0.0,0.0,0.0,0.0,0.0,0.0,0.0,0.0,0.0,0.0,0.0,0.0,0.0,0.0,0.0,0.0,0.0,0.0,0.0,0.0,0.0,0.0,0.0,0.0,0.0,1.2554,1.2733,1.3629,1.5166,1.5283,1.5254,1.5167,1.381,1.3147,0.0,0.0,0.0,0.0,0.0,0.0,0.0,0.0,0.0,0.0,0.0,0.0,0.0,0.0,0.0,0.0,0.0,0.0,0.0,0.0,0.0,0.0,0.0,0.0,0.0,0.0,0.0,0.0,0.0,0.0,0.0,0.0,0.0,0.0,0.0,0.0,0.0,0.0,0.0,0.0,0.0,0.7804,0.843,0.7918,0.7743,0.0,0.0,0.7887,0.9339,0.938,0.0,0.0,0.0,0.0,0.0,0.0,0.0,0.0,0.0,0.0,0.0,0.0,0.0,0.0,0.0,0.0,0.0,0.0,0.0,0.0,0.0,0.0,0.0,0.0,0.0,0.0,0.0,0.0,0.0,0.0,0.0,0.0,0.0,0.0,0.0,0.0,0.0,0.0,0.0,0.0,0.0,0.0,0.0,0.0,0.0,0.0,0.0,0.0,0.0,0.0,0.0,0.0,0.0,0.0,0.0,1.171,1.3117,1.3431,1.4113,1.5194,1.5237,1.4906,1.4224,1.3192,1.2544,0.0,0.0,0.0,0.0,0.0,0.0,0.0,0.0,0.0,0.0,0.0,0.0,0.0,0.0,0.0,0.0,0.0,0.0,0.0,0.0,0.0,0.0,0.0,0.0,0.0,0.0,0.0,0.0,0.0,0.0,0.0,0.0,0.0,0.0,0.0,0.0,0.0,0.0,0.0,0.0,0.0,0.0,0.8633,0.8443,0.0,0.0,0.0,0.8536,0.9671,0.0,0.0,0.0,0.0,0.0,0.0,0.0,0.0,0.0,0.0,0.0,0.0,0.0,0.0,0.0,0.0,0.0,0.0,0.0,0.0,0.0,0.0,0.0,0.0,0.0,0.0,0.0,0.0,0.0,0.0,0.0,0.0,0.0,0.0,0.0,0.0,0.0,0.0,0.0,0.0,0.0,0.0,0.0,0.0,0.0,0.0,0.0,0.0,0.0,0.0,0.0,0.0,0.0,0.0,0.0,0.0,0.0,1.3439,1.3866,1.4427,1.5178,1.5193,1.4689,1.3657,1.2874,0.0,0.0,0.0,0.0,0.0,0.0,0.0,0.0,0.0,0.0,0.0,0.0,0.0,0.0,0.0,0.0,0.0,0.0,0.0,0.0,0.0,0.0,0.0,0.0,0.0,0.0,0.0,0.7814,0.0,0.0,0.0,0.0,0.0,0.0,0.0,0.0,0.0,0.0,0.0,0.0,0.0,0.0,0.9224,0.9224,0.9274,0.9478,0.0,0.0,0.9675,1.01,1.0286,1.0417,0.0,0.0,0.0,0.0,0.0,0.0,0.0,0.0,0.0,0.0,0.0,0.0,0.0,0.0,0.0,0.0,0.0,0.0,0.0,0.0,0.0,0.0,0.0,0.0,0.0,0.0,0.0,0.0,0.0,0.0,0.0,0.0,0.0,0.0,0.0,0.0,0.0,0.0,0.0,0.0,0.0,0.0,0.0,0.0,0.0,0.0,0.0,0.0,0.0,0.0,0.0,0.0,0.0,0.0,0.0,1.3397,1.3808,1.4426,1.5178,1.5193,1.4891,1.4254,1.3561,1.3242,0.0,0.0,0.0,0.0,0.0,0.0,0.0,0.0,0.0,0.0,0.0,0.0,0.0,0.0,0.0,0.0,0.0,0.0,0.0,0.0,0.0,0.0,0.0,0.0,0.0,0.0,0.0,0.0,0.0,0.0,0.0,0.0,0.0,0.0,0.0,0.0,0.0,0.0,0.0,0.0,0.0,1.046,1.0634,1.0663,1.0703,0.0,0.0,1.1425,1.0907,1.2827,1.404,1.2955,0.0,0.0,0.0,0.0,0.0,0.0,0.0,0.0,0.0,0.0,0.0,0.0,0.0,0.0,0.0,0.0,0.0,0.0,0.0,0.0,0.0,0.0,0.0,0.0,0.0,0.0,0.0,0.0,0.0,0.0,0.0,0.0,0.0,0.0,0.0,0.0,0.0,0.0,0.0,0.0,0.0,0.0,0.0,0.0,0.0,0.0,0.0,0.0,0.0,0.0,0.0,0.0,0.0,1.3709,1.4674,1.494,1.5443,1.6203,1.5889,1.5436,1.4921,1.4226,1.3303,0.0,0.0,0.0,0.0,0.0,0.0,0.0,0.0,0.0,0.0,0.0,0.0,0.0,0.0,0.0,0.0,0.0,0.0,0.0,0.0,0.0,0.0,0.0,0.0,0.0,0.0,0.0,0.0,0.6684,0.6607,0.791,0.0,0.0,0.0,0.0,0.0,0.0,0.0,0.0,0.0,0.0,1.1251,1.134,1.1718,0.0,0.0,1.1988,1.2141,1.1546,1.2601,1.3165,1.2177,1.244,0.0,0.0,0.0,0.0,0.0,0.0,0.0,0.0,0.0,0.0,0.0,0.0,0.0,0.0,0.0,0.0,0.0,0.0,0.0,0.0,0.0,0.0,0.0,0.0,0.0,0.0,0.0,0.0,0.0,0.0,0.0,0.0,0.0,0.0,0.0,0.0,0.0,0.0,0.0,0.0,0.0,0.0,0.0,0.0,0.0,0.0,0.0,0.0,0.0,0.0,0.0,0.0,1.4416,1.5407,1.5605,1.6067,1.6844,1.6296,1.5764,1.5253,1.4573,1.3593,0.0,0.0,0.0,0.0,0.0,0.0,0.0,0.0,0.0,0.0,0.0,0.0,0.0,0.0,0.0,0.0,0.0,0.0,0.0,0.0,0.0,0.0,0.0,0.0,0.0,0.0,0.0,0.0,0.7145,0.7242,0.8923,0.0,0.0,0.0,0.0,0.0,0.0,0.0,0.0,0.0,0.0,1.2281,1.2342,1.2564,1.2573,1.2186,1.2439,1.2526,1.213,1.2748,1.3102,1.2535,0.0,0.0,0.0,0.0,0.0,0.0,0.0,0.0,0.0,0.0,0.0,0.0,0.0,0.0,0.0,0.0,0.0,0.0,0.0,0.0,0.0,0.0,0.0,0.0,0.0,0.0,0.0,0.0,0.0,0.0,1.4474,0.0,0.0,0.0,0.0,0.0,0.0,0.0,0.0,0.0,0.0,0.0,0.0,0.0,0.0,0.0,0.0,0.0,0.0,0.0,0.0,0.0,0.0,1.4667,1.523,1.558,1.6076,1.6799,1.6291,1.5759,1.5176,1.4602,1.4283,1.421,0.0,0.0,0.0,0.0,0.0,0.0,0.0,0.0,0.0,0.0,0.0,0.0,0.0,0.0,0.0,0.0,0.0,0.0,0.0,0.0,0.0,0.0,0.0,0.0,0.0,0.0,1.007,0.902,0.8409,0.0,0.0,0.0,0.0,0.0,0.0,0.0,0.0,0.0,0.0,1.3198,1.3623,1.3815,1.3214,1.2752,1.2704,1.268,1.2644,1.2668,1.3778,1.4697,0.0,0.0,0.0,0.0,0.0,0.0,0.0,0.0,0.0,0.0,0.0,0.0,0.0,0.0,0.0,0.0,0.0,0.0,0.0,0.0,0.0,0.0,0.0,0.0,0.0,0.0,0.0,1.5789,1.5881,0.0,0.0,0.0,0.0,0.0,0.0,0.0,0.0,0.0,0.0,0.0,1.8235,1.7534,0.0,0.0,0.0,0.0,0.0,0.0,0.0,0.0,0.0,0.0,0.0,0.0,1.5576,1.6542,1.6442,1.6927,1.8007,1.7462,1.7109,1.7018,1.6027,1.5338,1.4964,0.0,0.0,0.0,0.0,0.0,0.0,0.0,0.0,0.0,0.0,0.0,0.0,0.0,0.0,0.0,0.0,0.0,0.0,0.0,0.0,0.0,0.0,0.0,0.0,0.0,0.9491,0.0,0.0,0.0,0.0,0.0,0.0,0.0,0.0,0.0,0.0,0.0,1.3048,1.3916,1.3827,1.3857,1.4354,1.4206,1.3895,0.0,0.0,0.0,0.0,0.0,0.0,0.0,0.0,0.0,0.0,0.0,0.0,0.0,0.0,1.6228,1.5139,1.5525,1.5877,1.5411,0.0,0.0,0.0,0.0,0.0,0.0,0.0,0.0,0.0,0.0,0.0,0.0,0.0,0.0,1.7424,0.0,1.7092,0.0,0.0,0.0,0.0,0.0,0.0,0.0,0.0,1.795,1.8371,1.9293,1.8382,1.8381,0.0,1.8706,1.8129,0.0,0.0,0.0,0.0,0.0,0.0,0.0,0.0,1.6546,1.7559,1.7441,1.7852,1.8841,1.813,1.7764,1.7863,1.674,1.5577,1.4427,1.3709,1.299,0.0,0.0,0.0,0.0,0.0,0.0,0.0,0.0,0.0,0.0,0.0,0.0,0.0,0.0,0.0,0.0,0.0,0.0,0.0,0.0,0.0,0.0,0.0,0.9706,0.0,0.0,0.0,0.0,0.0,0.0,0.0,0.0,0.0,1.2985,1.3262,1.3815,1.4598,1.4495,1.4498,1.4913,0.0,0.0,0.0,0.0,0.0,0.0,0.0,1.5682,1.5458,1.5973,1.6237,1.5738,1.5893,1.603,1.5752,0.0,0.0,1.5661,1.6018,1.6274,1.5938,1.4862,1.4121,1.4604,1.3751,1.2976,0.0,0.0,0.0,0.0,0.0,0.0,0.0,0.0,1.9014,1.9336,0.0,1.8666,0.0,0.0,0.0,0.0,0.0,1.8568,0.0,0.0,1.9741,2.0119,2.0221,1.9656,1.9377,1.9391,1.9246,1.8851,1.8285,1.8291,0.0,0.0,0.0,0.0,0.0,0.0,1.7565,1.8222,1.8414,1.8807,1.9319,1.8327,1.7752,1.7699,1.6715,1.5138,1.3039,1.4442,1.4314,1.2205,1.4127,0.0,0.0,0.0,0.0,0.0,0.0,0.0,0.0,0.0,0.0,0.0,0.0,0.0,0.0,0.0,0.0,0.0,0.0,0.0,0.0,1.0129,0.0,0.0,0.0,0.0,0.0,0.0,0.0,0.0,0.0,0.0,1.3677,1.4613,1.5198,1.4792,0.0,0.0,0.0,0.0,1.4608,1.4583,1.3987,1.3827,1.451,1.5213,1.5891,1.6529,0.0,0.0,1.5312,1.5358,1.5311,1.4443,1.5024,1.5655,1.6362,1.6363,1.6232,1.5955,1.5139,1.4486,1.4461,1.3488,1.2283,2.3483,0.0,0.0,0.0,0.0,2.1301,2.155,2.152,2.1472,2.1332,2.1064,2.0274,0.0,0.0,0.0,0.0,0.0,0.0,1.975,1.9804,2.0772,2.1356,2.1614,2.101,2.094,2.1333,2.0447,1.9936,1.9782,1.9761,1.9183,1.8022,0.0,0.0,0.0,0.0,1.8264,1.8953,1.9097,1.9207,1.941,1.9079,1.8519,1.7723,1.7505,1.6687,1.5196,1.5606,1.5611,1.5005,1.5166,0.0,0.0,0.0,0.0,0.0,0.0,0.0,0.0,0.0,0.0,0.0,0.0,0.0,0.0,0.0,0.0,0.0,0.0,0.0,1.3067,1.0837,1.0239,0.0,0.0,0.0,0.0,0.0,0.0,0.0,0.0,0.0,1.6133,1.5196,1.4631,0.0,0.0,1.479,1.536,1.5242,1.5286,1.5859,1.6123,0.0,0.0,1.6743,1.6998,1.7321,1.7212,1.6967,1.6684,1.6375,1.6079,1.5845,1.5988,1.6218,1.6478,1.6543,1.6676,1.6966,1.6425,1.604,1.6485,1.5714,1.5087,2.7207,2.4933,2.3767,2.3205,2.3123,2.373,2.3784,2.3483,2.3509,2.3291,2.2896,2.2065,2.1342,2.0738,2.0486,0.0,0.0,0.0,2.126,2.1254,2.2011,2.2602,2.2925,2.2573,2.2447,2.2507,2.1819,2.1215,2.0751,2.0664,2.0039,1.8907,0.0,0.0,1.8467,1.9038,1.9572,2.0005,2.0119,2.0161,2.0147,1.9915,1.9332,1.8426,1.8238,1.7719,1.677,1.6582,1.6502,1.6554,1.6224,1.5364,0.0,0.0,0.0,0.0,0.0,0.0,0.0,0.0,0.0,0.0,0.0,1.4811,0.0,0.0,0.0,0.0,1.2578,1.3081,1.2797,1.1688,0.0,0.0,0.0,0.0,0.0,0.0,0.0,1.7245,1.7071,1.704,1.7311,1.6263,1.5604,1.6041,1.5719,1.5603,1.6043,0.0,1.626,1.6734,1.7102,1.7353,1.7421,1.764,1.7762,1.7711,1.78,1.7471,1.6753,1.6681,1.6652,1.6404,1.6344,1.6357,1.6448,1.6737,1.7092,1.7573,1.7518,1.7493,1.7898,1.73,1.6907,3.0671,2.9579,2.7511,2.6343,2.5925,2.6465,2.6166,2.5356,2.5358,2.5344,2.5195,2.4014,2.3663,2.3973,2.346,0.0,2.2021,2.2861,2.3207,2.3206,2.3494,2.3782,2.4112,2.4137,2.3828,2.3213,2.3154,2.2545,2.1476,2.1216,2.0787,2.0221,2.0249,1.9878,1.9218,2.0357,2.1007,2.1044,2.1207,2.1279,2.1279,2.0717,2.007,1.9424,1.8914,1.837,1.7709,1.7344,1.7145,1.7176,1.719,1.6055,1.371,0.0,0.0,0.0,0.0,0.0,0.0,0.0,0.0,0.0,0.0,0.0,0.0,0.0,0.0,0.0,1.1148,0.0,1.1011,1.2899,0.0,0.0,0.0,1.8554,1.8691,1.8743,1.876,1.8708,0.0,0.0,1.7757,1.7772,1.772,1.7673,1.7432,1.7282,1.7214,1.7263,1.7338,1.7304,1.7345,1.7442,1.7714,1.8108,1.832,1.8036,1.8445,1.8149,1.6608,1.6769,1.7036,1.6367,1.6257,1.6296,1.6305,1.6899,1.7513,1.775,1.8254,1.8636,1.864,1.8049,1.7693,3.177,3.1861,3.0878,2.9561,2.8132,2.8417,2.8421,2.8231,2.8378,2.8166,2.7664,2.6454,2.5261,2.4068,2.392,2.3757,2.3619,2.4706,2.4776,2.4078,2.49,2.4942,2.4282,2.4361,2.4331,2.4137,2.3423,2.2943,2.2648,2.2137,2.1335,2.0263,2.0667,2.0281,1.919,1.9854,2.0307,2.0416,2.0885,2.119,2.1265,2.0717,2.007,1.9438,1.9276,1.8725,1.7752,1.7622,1.7601,1.7688,1.7332,1.6563,1.5364,1.5982,0.0,0.0,0.0,0.0,0.0,0.0,0.0,0.0,0.0,1.7164,1.5461,0.0,1.6207,0.0,1.1803,1.2553,1.4788,1.5597,0.0,0.0,1.8601,1.9358,1.9486,1.9486,1.9483,1.9504,1.9348,1.9405,1.9881,1.9977,2.0172,2.0546,1.8673,1.7221,1.7214,1.7566,1.7869,1.7995,1.8346,1.8655,1.8713,1.9038,1.9227,1.9165,1.9011,1.8709,1.8208,1.8052,1.7791,1.7013,1.7019,1.6919,1.6285,1.669,1.7436,1.8228,1.8511,1.8827,1.9647,1.8822,1.8298,3.3025,3.3064,3.2751,3.1965,3.0982,3.0937,3.0632,3.0258,3.0454,3.0051,2.9247,2.8676,2.7705,2.6538,2.6497,2.6256,2.5836,2.6432,2.6303,2.5643,2.6083,2.6013,2.5488,2.5229,2.4956,2.4655,2.4041,2.3585,2.332,2.2972,2.2307,2.1342,2.1652,2.114,1.9855,1.9948,2.0136,2.0421,2.0865,2.1307,2.1673,2.1378,2.0743,1.9796,1.9754,1.9187,1.8012,1.804,1.8111,1.8242,1.8006,1.7125,1.5569,1.6148,1.5787,0.0,0.0,0.0,0.0,0.0,0.0,0.0,0.0,0.0,0.0,0.0,1.7353,1.5721,1.4679,1.5107,1.751,1.8045,1.8622,1.9465,2.0143,2.0483,2.0352,2.0303,2.0183,1.9914,1.9866,2.0107,2.0778,2.0906,2.1163,2.1736,2.0378,1.9304,1.9214,1.9244,1.9203,1.9192,1.9203,1.9246,1.9232,1.9376,1.9434,1.926,1.9231,1.897,1.8048,1.808,1.7838,1.6802,1.6617,1.6609,1.6286,1.6646,1.7287,1.785,1.8454,1.9167,2.0142,1.9569,1.9183,3.4058,3.3692,3.3626,3.3639,3.3652,3.333,3.2591,3.1694,3.1813,3.1263,3.021,3.0444,3.0188,2.9624,2.9543,2.8978,2.8107,2.7917,2.7612,2.7267,2.7023,2.6921,2.6917,2.6326,2.5738,2.5165,2.4792,2.4377,2.384,2.3675,2.3301,2.2694,2.26,2.2,2.0863,2.0276,2.0235,2.0666,2.0932,2.1365,2.1997,2.1941,2.133,2.0151,2.0068,1.9538,1.8394,1.8431,1.8556,1.8673,1.8741,1.7801,1.5687,1.6089,1.625,0.0,1.6406,0.0,0.0,0.0,0.0,0.0,0.0,0.0,0.0,1.8188,1.8293,2.007,1.8483,1.7975,1.9424,2.0233,2.0724,2.0818,2.137,2.1553,2.1152,2.1113,2.0916,2.0324,2.0339,2.0631,2.1267,2.1411,2.1728,2.2245,2.2291,2.2081,2.1958,2.1274,2.0695,2.0547,1.9958,1.9571,1.9498,1.9468,1.9327,1.9011,1.9234,1.8942,1.7256,1.7618,1.7715,1.6441,1.6125,1.6106,1.6236,1.6626,1.7026,1.7298,1.8146,1.9133,2.0024,2.0044,1.9985,3.394,3.4201,3.377,3.3849,3.4241,3.4164,3.3619,3.267,3.2437,3.1733,3.0868,3.1018,3.0798,3.0201,2.9699,2.9393,2.9182,2.8673,2.813,2.7604,2.7449,2.713,2.6685,2.6644,2.6641,2.6553,2.577,2.5314,2.5094,2.4088,2.325,2.2556,2.2051,2.1708,2.1485,0.0,0.0,0.0,2.0689,2.0836,2.0978,2.0614,2.0107,1.9496,1.9454,0.0,1.852,1.8498,1.8517,1.8537,1.8653,0.0,0.0,0.0,0.0,0.0,0.0,0.0,0.0,0.0,0.0,0.0,1.9382,1.8672,1.9132,1.8976,1.9265,2.0259,2.0976,2.1114,2.0542,2.1545,2.2063,2.159,2.1664,2.1743,2.1661,2.1758,2.1751,2.1645,2.207,2.2454,2.258,2.3193,2.36,2.3677,2.383,2.3851,2.3749,2.245,2.1465,2.1208,2.0557,2.012,1.9906,1.9741,1.9606,1.9498,1.9245,1.8929,1.839,1.8312,1.8139,1.6849,1.7014,1.6933,1.6193,1.6189,1.6607,1.7288,1.7601,1.8129,1.9404,1.9843,2.0116,3.4162,0.0,3.4097,3.4149,0.0,3.4397,3.4153,3.3685,3.3291,3.2648,3.1877,3.1936,3.1721,3.1232,3.0351,2.9944,2.9889,2.8994,2.8438,2.8153,2.798,2.7709,2.7458,2.7255,2.7168,2.7234,2.6691,2.6408,2.6338,2.5439,2.4639,2.3966,2.3362,2.2922,2.2669,2.1783,2.1153,2.0804,2.0864,2.1024,2.1217,2.1139,2.0762,2.0134,0.0,0.0,0.0,0.0,0.0,0.0,0.0,0.0,0.0,0.0,0.0,2.0905,2.0934,2.1121,2.1452,2.1496,2.1627,2.1895,2.1309,2.0561,1.9759,2.0616,2.1274,2.1425,2.217,2.2202,2.135,2.2119,2.2553,2.2233,2.2469,2.2585,2.2314,2.23,2.2219,2.1913,2.2159,2.2496,2.2869,2.3233,2.3675,2.4042,2.413,2.4135,2.3981,2.3198,2.2258,2.133,2.0542,2.0057,1.9992,1.9815,1.9797,1.9894,1.9734,1.9334,1.8918,1.8561,1.8003,1.7091,1.6788,1.6424,1.6233,1.6097,1.6232,1.6823,1.7151,1.751,1.8391,1.9135,1.9713,3.4397,3.4397,3.4397,3.4397,3.4397,3.4397,3.4397,3.4358,0.0,0.0,0.0,3.2579,3.2432,3.2137,3.1056,3.0568,3.0486,2.9306,2.8804,2.8899,2.8538,2.8419,2.8487,2.798,2.7741,2.7714,2.7536,2.7444,2.74,2.6806,2.6241,2.5647,2.5011,2.4402,2.3761,2.322,2.2495,2.1667,2.1235,2.1213,2.1604,2.1741,2.1471,2.0789,2.0991,2.0929,2.0585,2.0592,2.0613,2.0677,2.0798,2.0933,2.1055,2.119,2.1297,2.1419,2.1367,2.1569,2.212,2.2164,2.2417,2.3041,2.3084,2.2396,2.0788,2.2269,2.3091,2.2645,2.2742,2.2581,2.2038,2.2461,2.2826,2.2841,2.3289,2.3364,2.2942,2.2868,2.2673,2.2143,2.2113,2.2274,2.2881,2.3007,2.3205,2.3824,2.4067,2.4051,2.3912,2.3641,2.2887,2.158,2.0805,2.0225,2.0018,1.9902,1.9904,2.0148,2.0006,1.9663,1.9098,1.8521,1.7943,1.7349,1.6518,1.6367,1.6397,1.6339,1.6191,1.6332,1.675,1.7111,1.7275,1.8114,1.8902,3.4397,3.4397,3.4397,3.4397,3.4397,3.4397,3.4397,3.4306,3.3515,3.2867,3.2433,3.2139,3.2067,3.2178,3.1477,3.1178,3.1083,2.9916,2.9645,3.0093,2.9029,2.8825,2.9292,2.8847,2.8625,2.8584,2.8229,2.8016,2.7841,2.7248,2.6703,2.6255,2.5646,2.4925,2.4126,2.3943,2.3817,2.3645,2.1758,2.0776,2.0845,2.05,2.0307,2.0311,2.0368,2.0421,2.0507,2.0543,2.0571,2.0712,2.1255,2.1851,2.2449,2.2538,2.2828,2.3389,2.2954,2.2693,2.2757,2.2757,2.3055,2.3673,2.376,2.3397,2.262,2.2899,2.3083,2.304,2.3157,2.3179,2.309,2.3134,2.3244,2.3346,2.3457,2.3478,2.3445,2.343,2.3385,2.3251,2.334,2.3295,2.3392,2.3537,2.3616,2.3852,2.4088,2.438,2.4349,2.4142,2.3427,2.2405,2.1877,2.131,2.0457,2.0078,2.0008,2.0023,1.9722,1.9447,1.9192,1.8908,1.8543,1.7974,1.7989,1.7853,1.7165,1.7024,1.6807,1.6462,1.6545,1.6571,1.6422,1.7054,1.779,3.4698,3.441,3.4397,3.4397,3.4397,3.4397,3.4397,3.4319,3.3616,3.308,3.2707,3.2339,3.231,3.2428,3.1671,3.1463,3.1721,3.0527,3.0133,3.0323,2.9515,2.9257,2.9434,2.9034,2.8812,2.883,2.8854,2.8823,2.8692,2.8185,2.7817,2.76,2.6678,2.584,2.5093,2.4753,2.4585,2.457,2.323,2.2308,2.1794,2.1717,2.1532,2.1197,2.1319,2.1512,2.1741,2.2063,2.2302,2.2429,2.3057,2.3609,2.3907,2.3893,2.3902,2.3891,2.3615,2.3432,2.3418,2.3751,2.3965,2.4067,2.4307,2.4418,2.4314,2.4192,2.4119,2.4128,2.3935,2.3791,2.3776,2.3504,2.3363,2.3487,2.3509,2.3516,2.3588,2.3595,2.3595,2.3595,2.3595,2.3595,2.3595,2.3638,2.3696,2.3717,2.3967,2.4177,2.4328,2.4204,2.3656,2.2513,2.167,2.0993,2.0412,2.0252,2.02,2.0216,2.0022,1.984,1.9762,1.9487,1.9054,1.8791,1.8651,1.8283,1.7762,1.7378,1.7085,1.6997,1.6518,1.6335,1.6296,1.6594,1.7157,3.5025,3.4607,3.445,3.4397,3.4397,3.4397,3.4397,3.4345,3.3809,3.3406,3.3107,3.2562,3.2511,3.2694,3.1978,3.1834,3.2019,3.1232,3.0825,3.073,3.0038,2.9754,2.9814,2.9307,2.8971,2.899,2.9168,2.9289,2.9265,2.8971,2.8755,2.8591,2.7579,2.6708,2.6104,2.5667,2.5344,2.5189,2.4739,2.4019,2.3064,2.321,2.3035,2.2552,2.2677,2.288,2.3111,2.3564,2.388,2.409,2.4699,2.5071,2.5096,2.5042,2.482,2.437,2.4196,2.4109,2.4123,2.4534,2.4737,2.4585,2.4906,2.53,2.5716,2.5574,2.5262,2.4971,2.4531,2.4338,2.425,2.3789,2.3496,2.3607,2.3496,2.3429,2.3523,2.353,2.353,2.3566,2.3588,2.3588,2.3674,2.3696,2.3782,2.3894,2.3888,2.3973,2.4209,2.4102,2.3383,2.2562,2.1525,2.086,2.0497,2.0373,2.039,2.0423,2.0375,2.0345,2.0318,1.9928,1.9647,1.9569,1.9116,1.8761,1.8625,1.8161,1.7682,1.7502,1.699,1.6576,1.6427,1.6481,1.6707,3.526,3.5129,3.462,3.4397,3.4397,3.4397,3.4397,3.4332,3.3822,3.3615,3.3485,3.2567,3.2347,3.2686,3.2654,3.2482,3.2223,3.211,3.2028,3.1843,3.0839,3.0608,3.0982,3.0099,2.9553,2.9399,2.9126,2.9082,2.9241,2.9135,2.8959,2.8645,2.8044,2.7355,2.6778,2.6652,2.6343,2.585,2.5753,2.5163,2.4053,2.3994,2.3966,2.3898,2.392,2.3985,2.401,2.4124,2.4266,2.4546,2.5171,2.5607,2.5705,2.5705,2.5676,2.5585,2.5081,2.4791,2.4737,2.4781,2.5085,2.5604,2.5676,2.5992,2.657,2.6617,2.6108,2.5183,2.482,2.4772,2.4718,2.4229,2.3935,2.403,2.3553,2.3194,2.3349,2.3341,2.34,2.3509,2.3516,2.3603,2.3818,2.3882,2.4114,2.4436,2.4224,2.424,2.4572,2.3877,2.3136,2.2724,2.2344,2.1701,2.0817,2.0477,2.0509,2.0494,2.0477,2.0494,2.0464,2.0448,2.0368,2.0181,2.0243,1.99,1.9559,1.928,1.8842,1.8028,1.7601,1.7312,1.6721,1.6477,1.6561,3.5587,3.5247,3.4659,3.4397,3.4397,3.4397,3.4397,3.4371,3.4175,3.4058,3.3979,3.3302,3.3014,3.303,3.2823,3.2728,3.2748,3.2735,3.2544,3.2205,3.1667,3.1395,3.1192,3.0501,3.0106,3.0025,2.9921,2.9898,2.9929,2.985,2.9589,2.9192,2.8619,2.8015,2.7397,2.7003,2.6652,2.6427,2.6076,2.564,2.5203,2.4824,2.4458,2.416,2.4118,2.4115,2.4244,2.4581,2.487,2.5091,2.5767,2.6176,2.6214,2.6332,2.6199,2.5861,2.556,2.5415,2.54,2.5763,2.6097,2.6399,2.6413,2.6518,2.675,2.6794,2.6533,2.6083,2.5633,2.54,2.5342,2.4849,2.4534,2.4542,2.4069,2.3728,2.3813,2.3496,2.3334,2.3385,2.348,2.356,2.3625,2.3754,2.4051,2.439,2.4323,2.4405,2.4643,2.421,2.381,2.3547,2.3437,2.2543,2.103,2.0561,2.061,2.0626,2.056,2.0527,2.0645,2.0527,2.0477,2.0594,2.0561,2.0515,2.0283,1.9797,1.9296,1.8637,1.7957,1.7466,1.6604,1.649,1.6503,3.5887,3.543,3.4711,3.4397,3.4397,3.4397,3.4397,3.4397,3.4397,3.4397,3.4358,3.3979,3.3685,3.3462,3.3217,3.3154,3.326,3.3471,3.3169,3.2517,3.2463,3.2151,3.1531,3.0948,3.0663,3.0608,3.0535,3.0556,3.065,3.0627,3.0382,3.0048,2.9504,2.89,2.8268,2.765,2.7144,2.6793,2.6357,2.6062,2.5878,2.5458,2.5022,2.4641,2.4599,2.4636,2.4674,2.5137,2.5471,2.5643,2.6162,2.6498,2.6578,2.6712,2.6588,2.6152,2.6105,2.613,2.613,2.6544,2.6846,2.6937,2.6884,2.6832,2.6884,2.6832,2.6806,2.6747,2.6407,2.6181,2.6123,2.5552,2.5228,2.5277,2.4784,2.4391,2.4172,2.3821,2.3637,2.348,2.3588,2.3653,2.3631,2.3861,2.4172,2.4421,2.4441,2.4467,2.4603,2.4543,2.4273,2.4112,2.3912,2.2998,2.1307,2.1057,2.1027,2.0742,2.0645,2.0645,2.0778,2.0611,2.0544,2.0694,2.0661,2.0629,2.0585,2.0143,1.9735,1.9515,1.8725,1.7622,1.7021,1.6804,1.6654,3.6096,3.59,3.4855,3.441,3.441,3.4397,3.4397,3.4397,3.4397,3.4397,3.4397,3.44,3.4168,3.3912,3.406,3.3925,3.3705,3.4304,3.4054,3.3129,3.3088,3.2762,3.2151,3.1544,3.1287,3.1322,3.0901,3.0795,3.1005,3.1258,3.1443,3.1378,3.0698,3.0108,2.9507,2.8874,2.8001,2.7059,2.6835,2.6539,2.602,2.5935,2.5864,2.5877,2.5781,2.5752,2.578,2.585,2.5973,2.6256,2.6285,2.6447,2.6753,2.6806,2.6777,2.6733,2.6852,2.693,2.689,2.6855,2.6937,2.7207,2.7015,2.691,2.7104,2.6974,2.6884,2.6806,2.7004,2.7063,2.7019,2.6352,2.594,2.6085,2.5604,2.4994,2.4299,2.4394,2.4297,2.3883,2.3739,2.3882,2.4177,2.438,2.4518,2.4681,2.4666,2.4686,2.4788,2.4425,2.4147,2.4049,2.366,2.2833,2.2116,2.1732,2.1461,2.1159,2.0918,2.0761,2.0794,2.081,2.081,2.0778,2.0777,2.0761,2.0778,2.0604,2.0304,1.9767,1.8755,1.7841,1.7681,1.7157,1.7013,3.6449,3.5992,3.4868,3.462,3.492,3.4567,3.4397,3.4439,3.4743,3.4688,3.4481,3.4688,3.487,3.486,3.4807,3.4366,3.3707,3.4296,3.4238,3.3677,3.4014,3.3878,3.3322,3.304,3.2826,3.2582,3.235,3.2392,3.2526,3.2156,3.221,3.2497,3.1674,3.0936,3.0523,2.9898,2.907,2.8074,2.7612,2.7367,2.73,2.696,2.7028,2.7565,2.6507,2.5893,2.5893,2.5893,2.6015,2.6312,2.6299,2.6488,2.6884,2.7015,2.7052,2.7052,2.7015,2.7055,2.7093,2.7015,2.6977,2.7133,2.717,2.717,2.7207,2.7258,2.731,2.7335,2.7372,2.7499,2.7585,2.7225,2.6914,2.679,2.6411,2.5869,2.5229,2.4806,2.4372,2.3854,2.3696,2.3888,2.4302,2.4421,2.4523,2.4842,2.4902,2.4906,2.495,2.4772,2.4636,2.471,2.4614,2.4273,2.3515,2.2469,2.1829,2.1508,2.1252,2.0952,2.0858,2.081,2.081,2.0827,2.0843,2.081,2.0794,2.0812,2.0558,2.0004,1.8959,1.8628,1.8534,1.8014,1.7811,3.6836,3.6214,3.5505,3.5416,3.5645,3.5107,3.4895,3.491,3.5029,3.5014,3.4967,3.5124,3.5318,3.548,3.5467,3.5143,3.4558,3.491,3.4893,3.4492,3.4988,3.4826,3.4219,3.4137,3.4056,3.3882,3.3698,3.3695,3.3667,3.3,3.307,3.3665,3.2644,3.2064,3.1757,3.0948,3.0005,2.9323,2.857,2.8281,2.8311,2.7937,2.7978,2.8406,2.7451,2.6802,2.676,2.6323,2.6318,2.6701,2.6654,2.6686,2.7041,2.7196,2.7258,2.7207,2.7144,2.717,2.7233,2.7159,2.7119,2.7262,2.7325,2.7401,2.7386,2.7509,2.756,2.7625,2.77,2.779,2.784,2.7865,2.7765,2.7494,2.721,2.6783,2.6137,2.5553,2.4813,2.4079,2.3867,2.4078,2.4385,2.44,2.4544,2.4886,2.4942,2.4946,2.5103,2.5084,2.513,2.525,2.5275,2.5091,2.4577,2.3754,2.2863,2.2458,2.1782,2.1384,2.1145,2.1049,2.0939,2.0924,2.0876,2.0843,2.0859,2.0893,2.0655,2.0257,1.9837,1.9449,1.9216,1.8893,1.866,3.7303,3.6764,3.6804,3.6697,3.6573,3.6117,3.5923,3.5763,3.5393,3.5488,3.5632,3.5546,3.5602,3.579,3.6044,3.6213,3.6263,3.6318,3.6044,3.5585,3.5878,3.5589,3.4823,3.4785,3.4905,3.511,3.457,3.425,3.4252,3.3908,3.3953,3.4264,3.379,3.3318,3.3445,3.1913,3.0974,3.0433,2.9621,2.9088,2.8767,2.8737,2.878,2.8866,2.8665,2.8607,2.8664,2.7232,2.6928,2.7671,2.7386,2.7099,2.7284,2.7399,2.738,2.7284,2.735,2.7401,2.7401,2.7284,2.7361,2.759,2.7554,2.7539,2.7715,2.77,2.7675,2.7725,2.7865,2.793,2.7815,2.8063,2.8201,2.8029,2.7864,2.761,2.7027,2.6604,2.5872,2.4675,2.4326,2.4312,2.4338,2.4441,2.462,2.4782,2.4882,2.5001,2.522,2.5146,2.5243,2.5476,2.5532,2.5379,2.526,2.5056,2.4234,2.3449,2.2639,2.206,2.1964,2.1868,2.1582,2.1487,2.1119,2.1071,2.1087,2.1135,2.123,2.0889,2.0538,2.0262,2.012,1.9844,1.9392,3.7973,3.8282,3.7313,3.7279,3.7745,3.7292,3.6845,3.6439,3.6484,3.6307,3.5872,3.598,3.6298,3.6468,3.6427,3.678,3.7529,3.7341,3.6972,3.6634,3.6683,3.6547,3.6263,3.6235,3.6168,3.592,3.521,3.5222,3.5503,3.4732,3.4738,3.5455,3.4664,3.4057,3.3815,3.2869,3.2061,3.1269,3.0499,3.0144,3.0206,2.9854,2.9953,3.045,2.9797,2.9695,3.0494,2.8921,2.8256,2.8706,2.8448,2.8236,2.8095,2.8148,2.8017,2.7664,2.7478,2.7503,2.763,2.7503,2.7437,2.764,2.7755,2.7831,2.793,2.8094,2.8143,2.8152,2.8226,2.8226,2.8201,2.8275,2.829,2.8005,2.8152,2.799,2.7332,2.678,2.601,2.5241,2.4995,2.4847,2.4596,2.4611,2.4809,2.4922,2.5041,2.5182,2.5185,2.5282,2.5278,2.5413,2.547,2.5624,2.5552,2.5528,2.5167,2.4458,2.3654,2.3036,2.2907,2.2598,2.2293,2.2004,2.1633,2.1406,2.1389,2.1417,2.1541,2.1452,2.1089,2.1012,2.109,2.0827,2.0421,3.8891,3.9335,3.8453,3.8376,3.8829,3.8373,3.7946,3.755,3.7566,3.7401,3.7044,3.6862,3.7014,3.7234,3.7038,3.7313,3.7938,3.7839,3.7672,3.7481,3.7443,3.7366,3.7303,3.7366,3.7116,3.6616,3.6122,3.6212,3.6681,3.5859,3.5712,3.6205,3.561,3.496,3.4507,3.3746,3.2985,3.228,3.1486,3.1084,3.1101,3.0805,3.0891,3.1289,3.0717,3.0747,3.1348,3.0318,2.9702,2.9605,2.9328,2.8939,2.8535,2.851,2.8344,2.7906,2.768,2.7655,2.7831,2.773,2.779,2.8052,2.8319,2.8444,2.8469,2.8658,2.8719,2.8458,2.8411,2.8411,2.8411,2.8411,2.8323,2.8192,2.8275,2.8104,2.7503,2.7042,2.651,2.5956,2.5768,2.5515,2.517,2.5117,2.5158,2.5175,2.5217,2.5391,2.5359,2.5419,2.5489,2.5562,2.5712,2.5807,2.5828,2.5885,2.599,2.5409,2.4731,2.4254,2.396,2.3433,2.3026,2.2785,2.2459,2.2164,2.2097,2.1947,2.1943,2.1747,2.1591,2.1547,2.1551,2.179,2.1513,3.9965,3.9859,3.992,3.9852,3.9774,3.9366,3.9113,3.8988,3.8546,3.8519,3.8643,3.8018,3.7746,3.787,3.7798,3.7777,3.7739,3.7991,3.8104,3.8089,3.8089,3.7953,3.7725,3.7938,3.7725,3.7174,3.7201,3.73,3.736,3.6941,3.6827,3.6727,3.6544,3.6174,3.5451,3.4555,3.3934,3.3406,3.251,3.1842,3.1616,3.1452,3.1437,3.1496,3.1408,3.1393,3.1422,3.1289,3.1063,3.0569,3.0061,2.9525,2.8906,2.8682,2.8464,2.7986,2.7851,2.7891,2.7976,2.8062,2.8329,2.8899,2.9088,2.9241,2.9241,2.9342,2.9187,2.8658,2.8565,2.8488,2.8458,2.8411,2.8411,2.8411,2.842,2.8167,2.7596,2.7519,2.7249,2.6739,2.6603,2.6508,2.5889,2.5921,2.5746,2.552,2.5394,2.5486,2.564,2.568,2.5807,2.5862,2.5915,2.597,2.599,2.6008,2.6115,2.5951,2.5486,2.529,2.4943,2.4412,2.4016,2.3753,2.339,2.3074,2.2769,2.2639,2.2383,2.213,2.2017,2.1946,2.2044,2.224,2.2306,4.0576,4.0405,4.0114,4.0159,4.042,4.0335,4.0012,3.962,3.9452,3.9229,3.8976,3.8681,3.8354,3.8159,3.8132,3.8029,3.7902,3.7929,3.8066,3.8202,3.8202,3.8165,3.8089,3.8292,3.8316,3.8046,3.7923,3.8159,3.8481,3.7734,3.751,3.7868,3.736,3.6836,3.6189,3.5436,3.4795,3.4143,3.299,3.2363,3.2184,3.175,3.1511,3.1496,3.1511,3.1496,3.1496,3.1496,3.1451,3.1271,3.1107,3.0688,2.9983,2.9549,2.909,2.8579,2.8056,2.7996,2.8464,2.8518,2.8824,2.9501,2.9735,2.984,2.9929,3.0058,2.9787,2.9294,2.911,2.8935,2.855,2.8436,2.8436,2.8436,2.8589,2.8519,2.8245,2.8436,2.8333,2.7571,2.7619,2.7369,2.6841,2.6429,2.6194,2.5954,2.5718,2.5543,2.5677,2.5844,2.5917,2.5954,2.6007,2.6079,2.615,2.6168,2.6205,2.626,2.6146,2.6183,2.5899,2.5564,2.5279,2.5059,2.4488,2.4099,2.3678,2.3406,2.303,2.2726,2.259,2.2554,2.2499,2.2599,2.2647,4.1128,4.1024,4.0498,4.0583,4.1025,4.0814,4.0505,4.0224,4.0168,3.9831,3.9338,3.8986,3.8631,3.8198,3.8033,3.7943,3.7882,3.8005,3.8104,3.8188,3.8277,3.8277,3.8277,3.8478,3.859,3.8523,3.8552,3.8727,3.8948,3.848,3.8342,3.8272,3.8018,3.7375,3.6477,3.6133,3.5429,3.4563,3.3679,3.3245,3.2901,3.2258,3.1959,3.1839,3.1705,3.1496,3.1496,3.1496,3.1496,3.1496,3.1466,3.1182,3.0552,3.0178,2.9751,2.9226,2.8778,2.8793,2.9154,2.9222,2.9539,3.0174,3.0418,3.0521,3.0669,3.0812,3.068,2.995,2.9803,2.949,2.91,2.8823,2.8723,2.874,2.8912,2.8889,2.8597,2.885,2.8817,2.8495,2.8451,2.8265,2.7413,2.7027,2.6595,2.614,2.5756,2.5667,2.5694,2.5879,2.6025,2.6043,2.6133,2.624,2.631,2.631,2.6433,2.6486,2.6657,2.6742,2.6572,2.6366,2.6215,2.5909,2.5495,2.5077,2.4658,2.425,2.3908,2.3643,2.34,2.3102,2.2981,2.279,2.2868,4.1727,4.1573,4.1025,4.1067,4.1348,4.094,4.0674,4.0688,4.0645,4.0364,3.9845,3.9296,3.8815,3.8255,3.8015,3.7777,3.7868,3.8043,3.8142,3.8254,3.8366,3.8404,3.8329,3.8649,3.8723,3.8701,3.8958,3.9075,3.9147,3.9247,3.905,3.8706,3.8527,3.7868,3.712,3.6761,3.5968,3.504,3.4637,3.4158,3.3604,3.2976,3.2647,3.2512,3.1989,3.1645,3.154,3.1496,3.1496,3.1496,3.1496,3.1212,3.0702,3.0597,3.0293,2.991,2.9681,2.9674,3.0046,3.0034,3.0388,3.1016,3.1277,3.1343,3.1505,3.1756,3.1597,3.0789,3.0494,3.0286,2.9789,2.943,2.9179,2.9115,2.9305,2.922,2.8967,2.9029,2.9167,2.9167,2.938,2.8836,2.8084,2.7529,2.7215,2.6296,2.591,2.5689,2.5733,2.5899,2.6043,2.6133,2.6276,2.645,2.6468,2.6468,2.6623,2.6776,2.7024,2.7104,2.6973,2.6836,2.6839,2.6651,2.6332,2.597,2.5583,2.5208,2.4878,2.4347,2.3975,2.3632,2.331,2.3036,2.297,4.2514,4.1601,4.1488,4.1207,4.0912,4.0758,4.0702,4.0702,4.0702,4.0589,4.035,3.9872,3.924,3.8702,3.8238,3.7941,3.7768,3.7915,3.8028,3.824,3.8404,3.8478,3.8516,3.8848,3.898,3.8995,3.9192,3.9316,3.9352,3.9337,3.9364,3.92,3.905,3.8766,3.8048,3.7764,3.7345,3.6193,3.5579,3.4996,3.4352,3.3709,3.332,3.32,3.2632,3.2048,3.16,3.1496,3.1496,3.1496,3.1509,3.1448,3.121,3.0834,3.0548,3.0381,3.0003,3.0039,3.0579,3.0688,3.0955,3.1997,3.209,3.2292,3.2616,3.2771,3.2578,3.2049,3.182,3.1279,3.0417,3.0061,2.9753,2.9458,2.9405,2.947,2.9396,2.9531,2.9592,2.9531,2.9605,2.9491,2.8597,2.7967,2.7413,2.6571,2.6105,2.5753,2.5821,2.602,2.6063,2.6187,2.6399,2.6537,2.6555,2.6589,2.6742,2.6925,2.7185,2.7405,2.7279,2.7231,2.72,2.7214,2.7206,2.6828,2.6368,2.6306,2.6013,2.5292,2.4588,2.4217,2.3853,2.3455,2.3107,4.3104,4.2444,4.1868,4.1601,4.1488,4.0969,4.0702,4.0702,4.0702,4.0533,4.0294,4.0027,3.9489,3.8748,3.8578,3.8274,3.7954,3.7991,3.8104,3.824,3.8404,3.8553,3.8738,3.8995,3.9213,3.9141,3.9286,3.9373,3.9388,3.9388,3.9388,3.9388,3.9388,3.899,3.8497,3.8392,3.7838,3.7075,3.6596,3.6073,3.5462,3.4786,3.407,3.3772,3.3322,3.2885,3.2283,3.2207,3.2012,3.1816,3.1798,3.1726,3.1596,3.1436,3.1324,3.1149,3.1107,3.1068,3.1512,3.1561,3.1735,3.2513,3.2602,3.2738,3.3022,3.3277,3.3271,3.2891,3.2606,3.219,3.1198,3.0647,3.0304,3.0039,2.9769,2.972,2.971,2.9814,2.9874,2.9748,2.9814,2.947,2.8908,2.8357,2.8001,2.7358,2.6772,2.6441,2.6344,2.6458,2.6201,2.6259,2.6469,2.6606,2.6623,2.6691,2.6825,2.7023,2.7247,2.7465,2.7509,2.7494,2.7496,2.7494,2.7491,2.7452,2.7086,2.7083,2.6891,2.6166,2.5472,2.4971,2.4388,2.38,2.3466,4.3617,4.335,4.228,4.2068,4.2225,4.1353,4.0901,4.0844,4.0787,4.0675,4.0209,4.0206,3.9829,3.9212,3.9227,3.9,3.8827,3.8616,3.8787,3.8824,3.8745,3.8966,3.9231,3.954,3.9649,3.9399,3.9439,3.946,3.9445,3.9445,3.9481,3.946,3.946,3.9262,3.8782,3.8597,3.8362,3.7781,3.7631,3.7286,3.667,3.6009,3.5172,3.4272,3.4091,3.3773,3.3228,3.306,3.2846,3.2237,3.2331,3.2085,3.1868,3.2051,3.2315,3.2035,3.2078,3.2216,3.2287,3.2348,3.2419,3.2683,3.2819,3.298,3.3193,3.3497,3.3601,3.3492,3.3242,3.2959,3.2231,3.1747,3.123,3.0833,3.0344,3.0058,2.9896,2.9896,2.9896,2.9896,2.9826,2.9556,2.914,2.8695,2.8441,2.8183,2.761,2.7222,2.7144,2.6934,2.6726,2.6532,2.6758,2.6792,2.6808,2.6858,2.7006,2.7168,2.7373,2.7539,2.7719,2.7795,2.7766,2.7689,2.7654,2.7631,2.7657,2.7635,2.7328,2.6827,2.6379,2.5849,2.5073,2.4171,2.3862,4.4231,4.3218,4.3005,4.2465,4.1725,4.1718,4.1563,4.1297,4.1269,4.145,4.1499,4.0982,4.0842,4.0742,4.0719,4.0759,4.0494,4.0114,3.9929,3.9825,3.963,3.9651,4.0231,4.0401,4.051,4.0432,4.013,3.9736,3.9661,3.9646,3.9661,3.9661,3.9661,3.9546,3.9586,3.9556,3.9159,3.8715,3.8644,3.8311,3.7709,3.6937,3.6137,3.5032,3.4927,3.4516,3.4015,3.3817,3.3544,3.2965,3.3233,3.2911,3.2418,3.2391,3.2459,3.237,3.2425,3.2605,3.273,3.2578,3.2796,3.3145,3.3251,3.3366,3.3652,3.3857,3.3924,3.3917,3.3829,3.3615,3.2983,3.2627,3.206,3.1364,3.0885,3.0545,3.0123,3.0038,2.9989,2.9962,2.9859,2.9762,2.9436,2.9195,2.91,2.8959,2.8629,2.8322,2.8218,2.7833,2.7388,2.7211,2.708,2.7045,2.7022,2.7086,2.7182,2.7326,2.7511,2.7674,2.7836,2.8025,2.8039,2.7925,2.7864,2.7861,2.7936,2.8039,2.7984,2.762,2.7173,2.6679,2.5775,2.4848,2.4224,4.4624,4.4005,4.3401,4.2782,4.2248,4.2053,4.1881,4.1744,4.1744,4.1798,4.1918,4.1849,4.169,4.1646,4.1748,4.166,4.1385,4.113,4.0935,4.0815,4.0636,4.0664,4.1232,4.1321,4.124,4.1106,4.0705,4.0233,3.9869,3.9839,3.9854,3.9839,3.9839,3.9925,3.9975,3.9879,3.9728,3.951,3.9484,3.918,3.85,3.7651,3.6709,3.6315,3.5828,3.5416,3.4927,3.4774,3.4452,3.3975,3.4054,3.3754,3.3364,3.3129,3.3087,3.2769,3.2784,3.292,3.3069,3.2947,3.3107,3.3398,3.3477,3.3617,3.3848,3.4,3.4075,3.4101,3.4084,3.3987,3.3631,3.3307,3.2757,3.223,3.1797,3.1252,3.0748,3.0707,3.0446,3.0158,3.0081,3.0005,2.9874,2.9739,2.9725,2.9648,2.955,2.9415,2.9264,2.8568,2.7937,2.7486,2.725,2.7145,2.7135,2.723,2.7307,2.7463,2.7602,2.778,2.7925,2.8071,2.8112,2.8071,2.8039,2.8053,2.8122,2.8205,2.8286,2.8313,2.7651,2.6982,2.6272,2.5559,2.49,4.4952,4.472,4.3599,4.3046,4.2884,4.2485,4.2252,4.217,4.2114,4.2196,4.2293,4.2548,4.2484,4.2367,4.2569,4.2598,4.2017,4.1995,4.1912,4.1866,4.1685,4.1753,4.2031,4.2028,4.1967,4.1673,4.1326,4.0898,4.0208,4.0066,4.0081,4.0066,4.0066,4.0081,4.0101,4.0101,4.0066,4.0101,4.0086,3.9736,3.9013,3.8195,3.7558,3.7405,3.6967,3.6399,3.5999,3.5722,3.5353,3.4935,3.4804,3.4701,3.4298,3.4297,3.3995,3.3372,3.3297,3.3345,3.3456,3.3298,3.3361,3.3726,3.3686,3.3752,3.3864,3.3975,3.4101,3.4101,3.4101,3.4084,3.3939,3.3615,3.3307,3.2974,3.2579,3.2115,3.1542,3.1199,3.0919,3.065,3.0432,3.03,3.0222,3.0282,3.0301,3.0366,3.0282,3.0331,3.0042,2.9004,2.8299,2.7674,2.7333,2.7208,2.7231,2.7324,2.7432,2.7537,2.7677,2.7813,2.7943,2.8071,2.8099,2.8154,2.8223,2.8232,2.8304,2.8371,2.8437,2.8291,2.7848,2.7284,2.6584,2.6027,2.548,4.5196,4.4593,4.3831,4.3254,4.281,4.3015,4.2915,4.2633,4.2607,4.285,4.3036,4.305,4.323,4.3596,4.4006,4.4205,4.3975,4.3508,4.3172,4.3111,4.2759,4.2827,4.3183,4.2744,4.2631,4.2375,4.192,4.1076,4.0526,4.0353,4.0242,4.0261,4.0261,4.0296,4.0366,4.0312,4.0331,4.0436,4.042,4.0098,3.953,3.9241,3.8795,3.8288,3.7675,3.723,3.6938,3.6538,3.603,3.5671,3.5666,3.55,3.5156,3.5156,3.4845,3.4214,3.3724,3.3546,3.3925,3.3704,3.3704,3.4048,3.3985,3.378,3.3838,3.3991,3.4101,3.4101,3.4101,3.4151,3.4176,3.4045,3.377,3.3444,3.3086,3.2757,3.2364,3.1885,3.1539,3.1141,3.0941,3.0771,3.0655,3.0766,3.0838,3.0935,3.1015,3.103,3.0753,2.9709,2.8816,2.822,2.7945,2.7836,2.7653,2.7728,2.7631,2.77,2.7766,2.7874,2.7943,2.8056,2.8182,2.825,2.83,2.838,2.8432,2.8484,2.8554,2.8485,2.8318,2.7666,2.6869,2.6429,2.6141,4.5622,4.4909,4.3857,4.3278,4.308,4.321,4.321,4.305,4.305,4.313,4.329,4.3384,4.3699,4.4166,4.4458,4.4556,4.4548,4.4286,4.4178,4.4132,4.3818,4.3833,4.4018,4.3886,4.3618,4.3063,4.2771,4.2119,4.1311,4.0616,4.0401,4.0401,4.0401,4.042,4.0489,4.0436,4.0436,4.0455,4.0474,4.0351,4.0043,3.969,3.9385,3.9046,3.8077,3.7631,3.7369,3.6861,3.6492,3.6259,3.6335,3.6174,3.588,3.576,3.555,3.4984,3.4683,3.4489,3.43,3.4047,3.4331,3.458,3.4515,3.42,3.4034,3.4025,3.4201,3.4325,3.4176,3.4226,3.4423,3.4399,3.4349,3.41,3.3763,3.3561,3.3289,3.272,3.2291,3.185,3.1444,3.129,3.1206,3.1328,3.1325,3.1207,3.1185,3.1147,3.097,3.0415,2.9588,2.887,2.873,2.8674,2.8439,2.8322,2.8026,2.8007,2.7906,2.7982,2.7961,2.8042,2.8209,2.8345,2.8419,2.8497,2.8574,2.8612,2.8637,2.8761,2.8887,2.8154,2.748,2.7419,2.7058,4.5918,4.5185,4.4022,4.3529,4.3514,4.3364,4.3305,4.329,4.3369,4.3384,4.3518,4.3714,4.4026,4.4281,4.4458,4.461,4.4594,4.461,4.461,4.461,4.461,4.4548,4.4425,4.4379,4.3994,4.3608,4.3156,4.2648,4.1925,4.1197,4.0751,4.052,4.047,4.0489,4.0489,4.0505,4.0489,4.0489,4.0489,4.0474,4.0366,3.9997,3.9828,3.9385,3.86,3.7738,3.7631,3.6892,3.6554,3.6662,3.6723,3.661,3.6474,3.6513,3.6256,3.5777,3.5552,3.5435,3.5158,3.4979,3.5082,3.5233,3.5063,3.4513,3.4163,3.4151,3.425,3.4448,3.4448,3.457,3.4715,3.4707,3.4714,3.4781,3.4745,3.4568,3.4224,3.3508,3.2997,3.2673,3.2251,3.1874,3.1827,3.1924,3.1825,3.1549,3.1404,3.1315,3.1033,3.0731,3.0156,2.9386,2.9264,2.9244,2.9181,2.8928,2.8609,2.8418,2.8317,2.8283,2.8354,2.8283,2.83,2.8419,2.8523,2.8687,2.881,2.8773,2.8731,2.8875,2.8929,2.86,2.8223,2.8165,2.785,4.5918,4.5244,4.4556,4.4197,4.4137,4.3544,4.3305,4.3329,4.3557,4.3636,4.3714,4.405,4.4243,4.4374,4.4573,4.4687,4.461,4.461,4.4641,4.4641,4.461,4.461,4.4486,4.4163,4.3793,4.3608,4.3371,4.2987,4.2448,4.1986,4.1263,4.0597,4.0597,4.0536,4.0489,4.0489,4.0489,4.0489,4.0489,4.0489,4.0489,4.0366,4.0351,4.0074,3.9216,3.8415,3.8369,3.7308,3.6708,3.6863,3.6954,3.6998,3.6974,3.7212,3.6951,3.6516,3.6473,3.6476,3.6354,3.5928,3.59,3.5987,3.5668,3.4881,3.4323,3.4374,3.4472,3.457,3.4667,3.4787,3.4883,3.4899,3.4994,3.5098,3.5142,3.5054,3.4639,3.4021,3.3558,3.3389,3.3093,3.273,3.2632,3.2757,3.2363,3.2052,3.181,3.1703,3.1163,3.0808,3.0434,2.9937,2.9748,2.9729,2.9841,2.9694,2.9632,2.9349,2.9127,2.9,2.895,2.8816,2.8515,2.8549,2.8662,2.8846,2.9072,2.9172,2.922,2.9129,2.9005,2.882,2.8643,2.8501,2.8165,4.6411,4.6426,4.5379,4.4451,4.3648,4.3394,4.3305,4.3329,4.3596,4.3793,4.391,4.4166,4.432,4.445,4.4957,4.4941,4.4733,4.5049,4.488,4.4679,4.461,4.461,4.4471,4.4394,4.424,4.4132,4.3848,4.3525,4.3171,4.2838,4.2432,4.1832,4.1028,4.0566,4.0489,4.052,4.0489,4.0489,4.0489,4.0489,4.0489,4.0489,4.0489,4.0382,3.969,3.9136,3.8939,3.8009,3.7545,3.7359,3.7415,3.7348,3.7298,3.761,3.7526,3.72,3.7326,3.7482,3.737,3.6858,3.6529,3.6432,3.6196,3.5698,3.4833,3.4757,3.4851,3.4906,3.503,3.5217,3.5354,3.5268,3.5228,3.5328,3.5352,3.5352,3.5115,3.4515,3.4173,3.4003,3.3845,3.3601,3.3567,3.3622,3.3087,3.2573,3.2315,3.2038,3.1565,3.119,3.0953,3.0766,3.0594,3.0439,3.0558,3.0637,3.0693,3.0375,2.9994,2.9843,2.9672,2.9011,2.8779,2.8773,2.8925,2.9232,2.9501,2.9683,2.9669,2.951,2.9351,2.9193,2.9025,2.8957,2.8727,4.6563,4.683,4.5559,4.4601,4.3928,4.3663,4.3454,4.3344,4.3596,4.3871,4.4104,4.4297,4.4381,4.4573,4.4895,4.5049,4.4795,4.4941,4.4918,4.4748,4.461,4.461,4.461,4.4579,4.4517,4.461,4.4579,4.4271,4.3917,4.3701,4.327,4.2571,4.1786,4.1243,4.0812,4.0582,4.0505,4.0489,4.0489,4.0489,4.0489,4.0489,4.0489,4.0397,3.9782,3.956,3.94,3.8774,3.82,3.8028,3.7928,3.7745,3.7689,3.7711,3.7857,3.7947,3.8049,3.829,3.8101,3.781,3.7329,3.7179,3.7209,3.6595,3.5909,3.5601,3.5978,3.6007,3.5933,3.5911,3.6191,3.6121,3.594,3.6044,3.5605,3.5515,3.5537,3.5179,3.4882,3.4636,3.4584,3.4616,3.4079,3.4045,3.3912,3.3396,3.3128,3.2782,3.2294,3.2004,3.1868,3.17,3.1564,3.1427,3.1324,3.1459,3.1597,3.1551,3.1171,3.0765,3.0404,2.9768,2.9576,2.9936,3.0033,2.9874,3.0127,3.0616,3.0305,2.9846,2.993,3.0201,2.992,2.9897,2.9785,4.6352,4.6172,4.4919,4.4721,4.5065,4.4526,4.3898,4.3489,4.3651,4.3949,4.4281,4.4496,4.4572,4.4618,4.4818,4.4825,4.4718,4.4726,4.4695,4.4671,4.461,4.461,4.461,4.461,4.461,4.461,4.4594,4.4564,4.4486,4.404,4.3685,4.3439,4.2771,4.2125,4.1571,4.0828,4.052,4.052,4.0566,4.0489,4.0489,4.0489,4.0505,4.0454,4.0084,3.9941,4.0039,3.9624,3.9078,3.881,3.8801,3.8508,3.7968,3.8178,3.8228,3.8103,3.8335,3.8544,3.8717,3.8728,3.8405,3.7965,3.7915,3.7652,3.722,3.7136,3.7174,3.6995,3.7268,3.7499,3.7499,3.7212,3.6914,3.6626,3.6203,3.5954,3.5992,3.5786,3.5454,3.5314,3.5604,3.5685,3.4888,3.4405,3.4497,3.4294,3.4003,3.3547,3.2953,3.2819,3.2698,3.2412,3.2295,3.2055,3.1969,3.2329,3.2488,3.248,3.2192,3.1618,3.1333,3.0948,3.0948,3.1132,3.101,3.0782,3.1191,3.1681,3.1455,3.1321,3.136,3.1445,3.1125,3.0725,3.0457,4.6533,4.686,4.5514,4.5364,4.5708,4.4479,4.3963,4.4148,4.4146,4.4243,4.4458,4.4572,4.461,4.4679,4.4957,4.4995,4.4718,4.5141,4.5141,4.4625,4.461,4.461,4.461,4.461,4.461,4.461,4.461,4.461,4.4579,4.4286,4.4286,4.4117,4.3553,4.291,4.2109,4.1289,4.0674,4.1047,4.0812,4.0489,4.0489,4.0539,4.0662,4.0885,4.0606,4.0665,4.0965,4.0482,4.0182,3.9848,3.9841,3.9445,3.887,3.8956,3.8975,3.8683,3.8721,3.9067,3.9228,3.9269,3.9049,3.872,3.8581,3.8413,3.7799,3.7713,3.7745,3.7829,3.8036,3.8091,3.7753,3.778,3.7623,3.7511,3.72,3.6887,3.6737,3.628,3.5968,3.5938,3.6105,3.6113,3.5631,3.5194,3.5163,3.5156,3.4881,3.3999,3.3317,3.3494,3.3513,3.3092,3.2838,3.2598,3.2529,3.2642,3.275,3.2706,3.2508,3.2125,3.1928,3.1929,3.1744,3.1685,3.169,3.1726,3.2075,3.2455,3.2914,3.3008,3.2778,3.2164,3.1494,3.1082,3.0776,4.6668,4.71,4.5603,4.5633,4.6277,4.5026,4.4665,4.4981,4.4767,4.4734,4.478,4.4672,4.461,4.471,4.4941,4.5095,4.4671,4.501,4.5126,4.4625,4.461,4.461,4.461,4.461,4.461,4.461,4.461,4.461,4.461,4.461,4.4639,4.4567,4.4149,4.3799,4.3051,4.2191,4.1124,4.1313,4.1044,4.0765,4.0799,4.0867,4.1021,4.1189,4.1276,4.1392,4.1593,4.155,4.1294,4.1053,4.0805,4.0499,4.0059,3.991,3.996,3.9717,3.9797,4.0043,3.9991,4.0156,3.9873,3.9235,3.9294,3.914,3.8768,3.8794,3.8761,3.8768,3.8623,3.8681,3.8689,3.8741,3.8512,3.84,3.7809,3.7495,3.7139,3.668,3.6238,3.6264,3.6255,3.628,3.6284,3.6163,3.5918,3.5839,3.5742,3.4774,3.3891,3.4086,3.4162,3.3688,3.3192,3.2827,3.265,3.2709,3.2784,3.288,3.2763,3.2601,3.283,3.2871,3.2525,3.2336,3.2649,3.2873,3.2883,3.3182,3.3609,3.3802,3.3721,3.2963,3.1966,3.1626,3.1472,4.6711,4.6965,4.52,4.5544,4.6903,4.6147,4.5824,4.592,4.5449,4.5238,4.5253,4.4795,4.461,4.461,4.4656,4.4656,4.4641,4.4702,4.4671,4.4641,4.461,4.461,4.461,4.461,4.461,4.461,4.461,4.4648,4.461,4.4836,4.4986,4.4989,4.4627,4.4601,4.4123,4.32,4.2123,4.1895,4.1607,4.1289,4.1185,4.1323,4.1456,4.1588,4.1621,4.1818,4.1981,4.2045,4.1899,4.1765,4.1673,4.1341,4.1131,4.1103,4.1157,4.118,4.1261,4.1028,4.0665,4.0791,4.0669,4.0079,4.0003,4.0045,3.9952,3.9714,3.9671,3.9705,3.9696,3.9932,4.0101,3.9781,3.9433,3.8869,3.8151,3.778,3.7423,3.6986,3.6492,3.6345,3.6297,3.6284,3.6284,3.6232,3.6287,3.6122,3.6008,3.5931,3.5169,3.4827,3.4729,3.4078,3.358,3.2967,3.289,3.3124,3.2969,3.3098,3.3268,3.3221,3.3506,3.3674,3.3419,3.3377,3.3839,3.3986,3.3722,3.387,3.4259,3.4368,3.4317,3.3846,3.2874,3.2724,3.2557,4.6726,4.7174,4.613,4.6436,4.7342,4.6997,4.6442,4.5708,4.511,4.5018,4.5479,4.4864,4.461,4.461,4.461,4.461,4.461,4.461,4.461,4.461,4.461,4.461,4.461,4.461,4.461,4.461,4.4648,4.4836,4.5061,4.5247,4.5247,4.5169,4.5222,4.5421,4.5106,4.4405,4.3533,4.2806,4.2406,4.199,4.1678,4.1716,4.1833,4.1899,4.1948,4.2158,4.2349,4.2413,4.2329,4.2327,4.2325,4.2093,4.1743,4.1684,4.1608,4.0745,4.1017,4.125,4.0869,4.0932,4.1041,4.0892,4.067,4.0364,4.0288,4.0272,4.0272,4.0263,4.0288,4.0355,4.0429,4.0236,4.0093,3.9705,3.9043,3.8545,3.8166,3.7619,3.7141,3.6762,3.6697,3.6757,3.6688,3.6481,3.6506,3.6281,3.6222,3.6325,3.6194,3.5764,3.5407,3.4753,3.4373,3.3899,3.3767,3.3929,3.3544,3.3312,3.36,3.3812,3.388,3.4002,3.4098,3.4148,3.4209,3.4281,3.4295,3.4484,3.4596,3.4781,3.4737,3.4339,3.3959,3.365,3.341,4.6439,4.6524,4.5923,4.5909,4.6304,4.6727,4.6358,4.5618,4.518,4.5234,4.548,4.488,4.461,4.461,4.461,4.461,4.461,4.461,4.461,4.461,4.461,4.461,4.461,4.4761,4.4874,4.4874,4.5024,4.5284,4.5468,4.5614,4.5651,4.5744,4.5925,4.5961,4.5873,4.5594,4.4996,4.4208,4.3527,4.2912,4.2518,4.2266,4.2414,4.2238,4.2286,4.2429,4.2555,4.2602,4.2602,4.2665,4.2728,4.2766,4.2577,4.2618,4.2741,4.2104,4.205,4.225,4.2048,4.175,4.1833,4.1742,4.1406,4.114,4.081,4.0692,4.0506,4.0387,4.0412,4.0478,4.0551,4.0631,4.0686,4.0707,4.0076,3.9485,3.8922,3.8336,3.787,3.7422,3.7344,3.7422,3.7305,3.7011,3.6925,3.7036,3.6928,3.6764,3.6556,3.6134,3.5915,3.5554,3.5294,3.5013,3.49,3.4738,3.4594,3.4368,3.4363,3.4486,3.4386,3.4195,3.4173,3.4209,3.4288,3.437,3.4461,3.4618,3.4762,3.4927,3.5073,3.4859,3.4484,3.4128,3.3956,4.5938,4.566,4.4996,4.4813,4.4579,4.5773,4.5953,4.5557,4.5387,4.5526,4.5434,4.4918,4.461,4.461,4.461,4.4718,4.4733,4.4718,4.4733,4.4656,4.4723,4.4723,4.4836,4.5024,4.521,4.5395,4.5505,4.5614,4.576,4.5941,4.6175,4.6301,4.6337,4.6372,4.6375,4.6502,4.603,4.5392,4.4637,4.3984,4.3377,4.3283,4.333,4.27,4.2571,4.2586,4.2649,4.2665,4.2634,4.2821,4.3052,4.3262,4.3453,4.3626,4.3839,4.3753,4.3284,4.3198,4.2983,4.2615,4.2644,4.2569,4.236,4.2007,4.1641,4.0901,4.0578,4.051,4.0534,4.0576,4.0648,4.0745,4.0799,4.0772,4.0399,3.9871,3.937,3.8801,3.8301,3.7974,3.7996,3.8079,3.8144,3.787,3.7412,3.7711,3.7539,3.7193,3.7001,3.6592,3.6438,3.6321,3.6255,3.6025,3.5733,3.5625,3.574,3.5611,3.5334,3.5081,3.4916,3.458,3.4209,3.4281,3.437,3.4473,3.4572,3.473,3.487,3.5037,3.5157,3.527,3.5028,3.464,3.4597,4.5358,4.5824,4.5875,4.5593,4.5137,4.5539,4.541,4.4872,4.4856,4.5164,4.5387,4.4949,4.461,4.461,4.4648,4.4833,4.5141,4.4901,4.4964,4.5078,4.5137,4.5039,4.5136,4.5431,4.5614,4.5687,4.5776,4.5905,4.5977,4.6282,4.6493,4.6372,4.6512,4.6703,4.6703,4.6876,4.6664,4.6284,4.5527,4.4655,4.3848,4.3121,4.2716,4.2602,4.2602,4.2743,4.2836,4.2943,4.3052,4.3251,4.3505,4.3756,4.4018,4.4265,4.4103,4.3759,4.3939,4.3902,4.3698,4.3293,4.3167,4.3203,4.2995,4.2718,4.2159,4.1219,4.0741,4.0724,4.0707,4.0765,4.0779,4.0858,4.0894,4.0808,4.0681,4.0233,3.9802,3.9301,3.8767,3.8738,3.872,3.8819,3.8942,3.8649,3.8133,3.779,3.7496,3.7312,3.7422,3.7227,3.7157,3.7091,3.72,3.7006,3.6676,3.6568,3.6682,3.6321,3.5905,3.5657,3.5432,3.4829,3.4281,3.4351,3.4431,3.4561,3.4678,3.4772,3.4926,3.5115,3.525,3.535,3.5434,3.5154,3.525,4.479,4.508,4.5397,4.5355,4.511,4.5426,4.5203,4.4748,4.488,4.5126,4.521,4.4833,4.461,4.4648,4.4761,4.5094,4.5472,4.5093,4.5354,4.5608,4.5488,4.5362,4.5541,4.5817,4.5961,4.6032,4.6262,4.6369,4.6317,4.6528,4.6738,4.6617,4.6807,4.6927,4.6911,4.7014,4.7048,4.6846,4.6056,4.5196,4.4252,4.3604,4.2893,4.278,4.2665,4.2836,4.2974,4.3127,4.3248,4.3476,4.3759,4.4121,4.4378,4.4648,4.451,4.4283,4.4242,4.4279,4.4124,4.3878,4.3691,4.3855,4.3734,4.3492,4.3388,4.2538,4.1739,4.1695,4.1446,4.1436,4.1126,4.1112,4.1067,4.0981,4.0877,4.0601,4.0411,4.017,3.998,4.0059,4.0127,4.0244,4.0263,4.0035,3.9588,3.9487,3.8974,3.8121,3.807,3.7986,3.7879,3.7755,3.7828,3.788,3.7649,3.7594,3.7648,3.7176,3.6568,3.6125,3.5763,3.4921,3.4363,3.4521,3.4641,3.467,3.4782,3.4889,3.5035,3.5195,3.5327,3.542,3.5494,3.5573,3.556,4.4385,4.4158,4.4488,4.4587,4.4649,4.5187,4.511,4.4764,4.521,4.5248,4.5005,4.4792,4.4685,4.4761,4.5077,4.5408,4.5509,4.5235,4.5619,4.5919,4.5581,4.5657,4.5889,4.6211,4.6337,4.6477,4.6633,4.6738,4.6772,4.6876,4.6876,4.6911,4.6927,4.6927,4.7048,4.7184,4.727,4.6893,4.629,4.5569,4.49,4.4251,4.3407,4.2905,4.2743,4.2898,4.3127,4.3279,4.3429,4.3713,4.4051,4.4452,4.4759,4.4978,4.5005,4.4854,4.4563,4.479,4.4835,4.4353,4.4611,4.4828,4.4544,4.4311,4.4173,4.3741,4.2965,4.2595,4.2371,4.2043,4.1716,4.1378,4.1309,4.1212,4.1091,4.0935,4.0866,4.0861,4.1007,4.111,4.1223,4.1358,4.1292,4.1078,4.0922,4.0889,4.0487,3.97,3.9095,3.8921,3.8779,3.8474,3.8293,3.8337,3.8334,3.825,3.8167,3.8058,3.7432,3.6779,3.6099,3.5341,3.489,3.4847,3.4902,3.4817,3.4898,3.5018,3.5163,3.5293,3.5372,3.5467,3.5528,3.5579,3.5622,4.4288,4.4511,4.4572,4.461,4.4603,4.4741,4.4718,4.4641,4.4748,4.4892,4.5092,4.5098,4.5024,4.4874,4.5431,4.5792,4.5962,4.5612,4.597,4.6449,4.595,4.5968,4.6211,4.6512,4.6738,4.6807,4.6842,4.6876,4.6945,4.6911,4.6911,4.6911,4.6927,4.7048,4.732,4.7438,4.7456,4.7177,4.6583,4.582,4.5296,4.4545,4.3577,4.3295,4.3399,4.3625,4.3818,4.3877,4.4023,4.4196,4.4435,4.4831,4.5076,4.5238,4.5264,4.5247,4.4955,4.5094,4.5069,4.4707,4.4906,4.5181,4.4889,4.4682,4.4561,4.4475,4.394,4.3768,4.3475,4.3034,4.262,4.2023,4.1805,4.1618,4.1468,4.1185,4.1012,4.1163,4.1351,4.1378,4.1423,4.16,4.1725,4.1466,4.1123,4.1036,4.0875,4.0176,3.9745,3.9679,3.9698,3.9209,3.8808,3.8617,3.8544,3.8433,3.8382,3.8416,3.8223,3.7371,3.6577,3.5869,3.5511,3.5372,3.5034,3.4821,3.4944,3.5113,3.5223,3.5335,3.5412,3.5514,3.5554,3.5596,3.5637]}]]